[[{"header":{"parameterUnit":"m.s-1","parameterCategory":1,"la1":30.6,"la2":28.766,"lo1":-90.7593,"lo2":-88.6598,"dy":0.0162,"dx":0.0183,"nx":116,"ny":114,"refTime":"2024-05-17T12:00:00:Z","depth":0,"parameterNumber":2,"parameterNumberName":"U-component_of_WINDS"},"data":[0.0,0.0,0.0,0.0,0.0,0.0,0.0,0.0,0.0,0.0,0.0,0.0,0.0,0.0,0.0,0.0,0.0,0.0,0.0,0.0,0.0,0.0,0.0,0.0,0.0,0.0,0.0,0.0,0.0,0.0,0.0,0.0,0.0,0.0,0.0,0.0,0.0,0.0,0.0,0.0,0.0,0.0,0.0,0.0,0.0,0.0,0.0,0.0,0.0,0.0,0.0,0.0,0.0,0.0,0.0,0.0,0.0,0.0,0.0,0.0,0.0,0.0,0.0,0.0,0.0,0.0,0.0,0.0,0.0,0.0,0.0,0.0,0.0,0.0,0.0,0.0,0.0,0.0,0.0,0.0,0.0,0.0,0.0,0.0,0.0,0.0,0.0,0.0,0.0,0.0,0.0,0.0,0.0,0.0,0.0,0.0,0.0,0.0,0.0,0.0,0.0,0.0,0.0,0.0,0.0,0.0,0.0,0.0,0.0,0.0,0.0,0.0,0.0,0.0,0.0,0.0,0.0,0.0,0.0,0.0,0.0,0.0,0.0,0.0,0.0,0.0,0.0,0.0,0.0,0.0,0.0,0.0,0.0,0.0,0.0,0.0,0.0,0.0,0.0,0.0,0.0,0.0,0.0,0.0,0.0,0.0,0.0,0.0,0.0,0.0,0.0,0.0,0.0,0.0,0.0,0.0,0.0,0.0,0.0,0.0,0.0,0.0,0.0,0.0,0.0,0.0,0.0,0.0,0.0,0.0,0.0,0.0,0.0,0.0,0.0,0.0,0.0,0.0,0.0,0.0,0.0,0.0,0.0,0.0,0.0,0.0,0.0,0.0,0.0,0.0,0.0,0.0,0.0,0.0,0.0,0.0,0.0,0.0,0.0,0.0,0.0,0.0,0.0,0.0,0.0,0.0,0.0,0.0,0.0,0.0,0.0,0.0,0.0,0.0,0.0,0.0,0.0,0.0,0.0,0.0,0.0,0.0,0.0,0.0,0.0,0.0,0.0,0.0,0.0,0.0,0.0,0.0,0.0,0.0,0.0,0.0,0.0,0.0,0.0,0.0,0.0,0.0,0.0,0.0,0.0,0.0,0.0,0.0,0.0,0.0,0.0,0.0,0.0,0.0,0.0,0.0,0.0,0.0,0.0,0.0,0.0,0.0,0.0,0.0,0.0,0.0,0.0,0.0,0.0,0.0,0.0,0.0,0.0,0.0,0.0,0.0,0.0,0.0,0.0,0.0,0.0,0.0,0.0,0.0,0.0,0.0,0.0,0.0,0.0,0.0,0.0,0.0,0.0,0.0,0.0,0.0,0.0,0.0,0.0,0.0,0.0,0.0,0.0,0.0,0.0,0.0,0.0,0.0,0.0,0.0,0.0,0.0,0.0,0.0,0.0,0.0,0.0,0.0,0.0,0.0,0.0,0.0,0.0,0.0,0.0,0.0,0.0,0.0,0.0,0.0,0.0,0.0,0.0,0.0,0.0,0.0,0.0,0.0,0.0,0.0,0.0,0.0,0.0,0.0,0.0,0.0,0.0,0.0,0.0,0.0,0.0,0.0,0.0,0.0,0.0,0.0,0.0,0.0,0.0,0.0,0.0,0.0,0.0,0.0,0.0,0.0,0.0,0.0,0.0,0.0,0.0,0.0,0.0,0.0,0.0,0.0,0.0,0.0,0.0,0.0,0.0,0.0,0.0,0.0,0.0,0.0,0.0,0.0,0.0,0.0,0.0,0.0,0.0,0.0,0.0,0.0,0.0,0.0,0.0,0.0,0.0,0.0,0.0,0.0,0.0,0.0,0.0,0.0,0.0,0.0,0.0,0.0,0.0,0.0,0.0,0.0,0.0,0.0,0.0,0.0,0.0,0.0,0.0,0.0,0.0,0.0,0.0,0.0,0.0,0.0,0.0,0.0,0.0,0.0,0.0,0.0,0.0,0.0,0.0,0.0,0.0,0.0,0.0,0.0,0.0,0.0,0.0,0.0,0.0,0.0,0.0,0.0,0.0,0.0,0.0,0.0,0.0,0.0,0.0,0.0,0.0,0.0,0.0,0.0,0.0,0.0,0.0,0.0,0.0,0.0,0.0,0.0,0.0,0.0,0.0,0.0,0.0,0.0,0.0,0.0,0.0,0.0,0.0,0.0,0.0,0.0,0.0,0.0,0.0,0.0,0.0,0.0,0.0,0.0,0.0,0.0,0.0,0.0,0.0,0.0,0.0,0.0,0.0,0.0,0.0,0.0,0.0,0.0,0.0,0.0,0.0,0.0,0.0,0.0,0.0,0.0,0.0,0.0,0.0,0.0,0.0,0.0,0.0,0.0,0.0,0.0,0.0,0.0,0.0,0.0,0.0,0.0,0.0,0.0,0.0,0.0,0.0,0.0,0.0,0.0,0.0,0.0,0.0,0.0,0.0,0.0,0.0,0.0,0.0,0.0,0.0,0.0,0.0,0.0,0.0,0.0,0.0,0.0,0.0,0.0,0.0,0.0,0.0,0.0,0.0,0.0,0.0,0.0,0.0,0.0,0.0,0.0,0.0,0.0,0.0,0.0,0.0,0.0,0.0,0.0,0.0,0.0,0.0,0.0,0.0,0.0,0.0,0.0,0.0,0.0,0.0,0.0,0.0,0.0,0.0,0.0,0.0,0.0,0.0,0.0,0.0,0.0,0.0,0.0,0.0,0.0,0.0,0.0,0.0,0.0,0.0,0.0,0.0,0.0,0.0,0.0,0.0,0.0,0.0,0.0,0.0,0.0,0.0,0.0,0.0,0.0,0.0,0.0,0.0,0.0,0.0,0.0,0.0,0.0,0.0,0.0,0.0,0.0,0.0,0.0,0.0,0.0,0.0,0.0,0.0,0.0,0.0,0.0,0.0,0.0,0.0,0.0,0.0,0.0,0.0,0.0,0.0,0.0,0.0,0.0,0.0,0.0,0.0,0.0,0.0,0.0,0.0,0.0,0.0,0.0,0.0,0.0,0.0,0.0,0.0,0.0,0.0,0.0,0.0,0.0,0.0,0.0,0.0,0.0,0.0,0.0,0.0,0.0,0.0,0.0,0.0,0.0,0.0,0.0,0.0,0.0,0.0,0.0,0.0,0.0,0.0,0.0,0.0,0.0,0.0,0.0,0.0,0.0,0.0,0.0,0.0,0.0,0.0,0.0,0.0,0.0,0.0,0.0,0.0,0.0,0.0,0.0,0.0,0.0,0.0,0.0,0.0,0.0,0.0,0.0,0.0,0.0,0.0,0.0,0.0,0.0,0.0,0.0,0.0,0.0,0.0,0.0,0.0,0.0,0.0,0.0,0.0,0.0,0.0,0.0,0.0,0.0,0.0,0.0,0.0,0.0,0.0,0.0,0.0,0.0,0.0,0.0,0.0,0.0,0.0,0.0,0.0,0.0,0.0,0.0,0.0,0.0,0.0,0.0,0.0,0.0,0.0,0.0,0.0,0.0,0.0,0.0,0.0,0.0,0.0,0.0,0.0,0.0,0.0,0.0,0.0,0.0,0.0,0.0,0.0,0.0,0.0,0.0,0.0,0.0,0.0,0.0,0.0,0.0,0.0,0.0,0.0,0.0,0.0,0.0,0.0,0.0,0.0,0.0,0.0,0.0,0.0,0.0,0.0,0.0,0.0,0.0,0.0,0.0,0.0,0.0,0.0,0.0,0.0,0.0,0.0,0.0,0.0,0.0,0.0,0.0,0.0,0.0,0.0,0.0,0.0,0.0,0.0,0.0,0.0,0.0,0.0,0.0,0.0,0.0,0.0,0.0,0.0,0.0,0.0,0.0,0.0,0.0,0.0,0.0,0.0,0.0,0.0,0.0,0.0,0.0,0.0,0.0,0.0,0.0,0.0,0.0,0.0,0.0,0.0,0.0,0.0,0.0,0.0,0.0,0.0,0.0,0.0,0.0,0.0,0.0,0.0,0.0,0.0,0.0,0.0,0.0,0.0,0.0,0.0,0.0,0.0,0.0,0.0,0.0,0.0,0.0,0.0,0.0,0.0,0.0,0.0,0.0,0.0,0.0,0.0,0.0,0.0,0.0,0.0,0.0,0.0,0.0,0.0,0.0,0.0,0.0,0.0,0.0,0.0,0.0,0.0,0.0,0.0,0.0,0.0,0.0,0.0,0.0,0.0,0.0,0.0,0.0,0.0,0.0,0.0,0.0,0.0,0.0,0.0,0.0,0.0,0.0,0.0,0.0,0.0,0.0,0.0,0.0,0.0,0.0,0.0,0.0,0.0,0.0,0.0,0.0,0.0,0.0,0.0,0.0,0.0,0.0,0.0,0.0,0.0,0.0,0.0,0.0,0.0,0.0,0.0,0.0,0.0,0.0,0.0,0.0,0.0,0.0,0.0,0.0,0.0,0.0,0.0,0.0,0.0,0.0,0.0,0.0,0.0,0.0,0.0,0.0,0.0,0.0,0.0,0.0,0.0,0.0,0.0,0.0,0.0,0.0,0.0,0.0,0.0,0.0,0.0,0.0,0.0,0.0,0.0,0.0,0.0,0.0,0.0,0.0,0.0,0.0,0.0,0.0,0.0,0.0,0.0,0.0,0.0,0.0,0.0,0.0,0.0,0.0,0.0,0.0,0.0,0.0,0.0,0.0,0.0,0.0,0.0,0.0,0.0,0.0,0.0,0.0,0.0,0.0,0.0,0.0,0.0,0.0,0.0,0.0,0.0,0.0,0.0,0.0,0.0,0.0,0.0,0.0,0.0,0.0,0.0,0.0,0.0,0.0,0.0,0.0,0.0,0.0,0.0,0.0,0.0,0.0,0.0,0.0,0.0,0.0,0.0,0.0,0.0,0.0,0.0,0.0,0.0,0.0,0.0,0.0,0.0,0.0,0.0,0.0,0.0,0.0,0.0,0.0,0.0,0.0,0.0,0.0,0.0,0.0,0.0,0.0,0.0,0.0,0.0,0.0,0.0,0.0,0.0,0.0,0.0,0.0,0.0,0.0,0.0,0.0,0.0,0.0,0.0,0.0,0.0,0.0,0.0,0.0,0.0,0.0,0.0,0.0,0.0,0.0,0.0,0.0,0.0,0.0,0.0,0.0,0.0,0.0,0.0,0.0,0.0,0.0,0.0,0.0,0.0,0.0,0.0,0.0,0.0,0.0,0.0,0.0,0.0,0.0,0.0,0.0,0.0,0.0,0.0,0.0,0.0,0.0,0.0,0.0,0.0,0.0,0.0,0.0,0.0,0.0,0.0,0.0,0.0,0.0,0.0,0.0,0.0,0.0,0.0,0.0,0.0,0.0,0.0,0.0,0.0,0.0,0.0,0.0,0.0,0.0,0.0,0.0,0.0,0.0,0.0,0.0,0.0,0.0,0.0,0.0,0.0,0.0,0.0,0.0,0.0,0.0,0.0,0.0,0.0,0.0,0.0,0.0,0.0,0.0,0.0,0.0,0.0,0.0,0.0,0.0,0.0,0.0,0.0,0.0,0.0,0.0,0.0,0.0,0.0,0.0,0.0,0.0,0.0,0.0,0.0,0.0,0.0,0.0,0.0,0.0,0.0,0.0,0.0,0.0,0.0,0.0,0.0,0.0,0.0,0.0,0.0,0.0,0.0,0.0,0.0,0.0,0.0,0.0,0.0,0.0,0.0,0.0,0.0,0.0,0.0,0.0,0.0,0.0,0.0,0.0,0.0,0.0,0.0,0.0,0.0,0.0,0.0,0.0,0.0,0.0,0.0,0.0,0.0,0.0,0.0,0.0,0.0,0.0,0.0,0.0,0.0,0.0,0.0,0.0,0.0,0.0,0.0,0.0,0.0,0.0,0.0,0.0,0.0,0.0,0.0,0.0,0.0,0.0,0.0,0.0,0.0,0.0,0.0,0.0,0.0,0.0,0.0,0.0,0.0,0.0,0.0,0.0,0.0,0.0,0.0,0.0,0.0,0.0,0.0,0.0,0.0,0.0,0.0,0.0,0.0,0.0,0.0,0.0,0.0,0.0,0.0,0.0,0.0,0.0,0.0,0.0,0.0,0.0,0.0,0.0,0.0,0.0,0.0,0.0,0.0,0.0,0.0,0.0,0.0,0.0,0.0,0.0,0.0,0.0,0.0,0.0,0.0,0.0,0.0,0.0,0.0,0.0,-3.5592,0.0,0.0,0.0,0.0,0.0,0.0,0.0,0.0,0.0,0.0,0.0,0.0,0.0,0.0,0.0,0.0,0.0,0.0,0.0,0.0,0.0,0.0,0.0,0.0,-1.9873,-2.0379,-2.0379,-2.0549,-2.0666,-2.0666,0.0,0.0,0.0,0.0,0.0,-2.1099,-2.1099,-2.1099,-2.1099,-2.1235,-2.1518,-2.1884,-2.2228,-2.283,-2.3616,0.0,0.0,0.0,0.0,0.0,0.0,0.0,0.0,0.0,0.0,0.0,0.0,0.0,0.0,0.0,0.0,0.0,0.0,0.0,0.0,0.0,0.0,0.0,0.0,0.0,0.0,0.0,0.0,0.0,0.0,0.0,0.0,0.0,0.0,0.0,0.0,0.0,0.0,0.0,0.0,0.0,0.0,0.0,0.0,0.0,0.0,0.0,0.0,0.0,0.0,0.0,0.0,0.0,0.0,0.0,0.0,0.0,0.0,0.0,0.0,0.0,0.0,0.0,0.0,0.0,0.0,0.0,0.0,0.0,0.0,0.0,-3.5304,0.0,0.0,0.0,0.0,0.0,0.0,0.0,0.0,0.0,0.0,0.0,0.0,0.0,0.0,0.0,0.0,0.0,0.0,0.0,0.0,0.0,-1.7976,-1.8099,-1.9072,-1.9708,-1.9708,-2.0,-2.021,-2.021,-2.0565,0.0,0.0,0.0,-2.091,-2.0991,-2.0991,-2.0991,-2.0991,-2.0991,-2.0991,-2.1023,-2.1288,-2.1905,-2.2825,-2.2919,0.0,0.0,0.0,0.0,0.0,0.0,0.0,0.0,0.0,0.0,0.0,0.0,0.0,0.0,0.0,0.0,0.0,0.0,0.0,0.0,0.0,0.0,0.0,0.0,0.0,0.0,0.0,0.0,0.0,0.0,0.0,0.0,0.0,0.0,0.0,0.0,0.0,0.0,0.0,0.0,0.0,0.0,0.0,0.0,0.0,0.0,0.0,0.0,0.0,0.0,0.0,0.0,0.0,0.0,0.0,0.0,0.0,0.0,0.0,0.0,0.0,0.0,0.0,-3.7331,-3.7371,-3.7371,-3.7082,-3.6951,-3.6899,-3.5684,-3.5209,-3.5262,0.0,0.0,0.0,0.0,0.0,0.0,0.0,0.0,0.0,0.0,0.0,0.0,0.0,0.0,0.0,0.0,0.0,0.0,0.0,0.0,-1.7118,-1.7688,-1.8931,-1.9708,-1.9708,-1.9747,-1.9782,-1.9782,-1.9836,0.0,0.0,-2.0399,-2.0583,-2.0991,-2.0991,-2.0991,-2.0991,-2.0991,-2.0991,-2.0991,-2.1055,-2.1149,-2.1304,-2.1852,-2.23,-2.268,0.0,0.0,0.0,0.0,0.0,0.0,0.0,0.0,0.0,0.0,0.0,0.0,0.0,0.0,0.0,0.0,0.0,0.0,0.0,0.0,0.0,0.0,0.0,0.0,0.0,0.0,0.0,0.0,0.0,0.0,0.0,0.0,0.0,0.0,0.0,0.0,0.0,0.0,0.0,0.0,0.0,-3.3839,-3.4766,0.0,0.0,0.0,0.0,0.0,0.0,0.0,0.0,0.0,0.0,0.0,0.0,0.0,-3.6341,-3.6941,-3.7499,-3.7789,-3.7789,-3.827,-3.8494,-3.8438,-3.7053,-3.6408,-3.6367,-3.5721,0.0,-3.5811,-3.5823,0.0,0.0,0.0,0.0,0.0,0.0,0.0,0.0,0.0,0.0,0.0,0.0,0.0,0.0,0.0,0.0,0.0,0.0,0.0,0.0,0.0,-1.7916,-1.8467,-1.8755,-1.8798,-1.8798,-1.8798,-1.8798,-1.901,-1.9492,-1.951,-1.9758,-2.026,-1.9954,-1.9816,-1.9816,-2.0124,-2.0277,-2.0277,-2.0277,-2.0277,-2.0277,-2.0554,-2.1052,-2.1703,-2.19,0.0,0.0,0.0,0.0,0.0,0.0,0.0,0.0,0.0,0.0,0.0,0.0,0.0,0.0,0.0,0.0,0.0,0.0,0.0,0.0,0.0,0.0,0.0,0.0,0.0,0.0,0.0,0.0,0.0,0.0,0.0,0.0,0.0,0.0,0.0,0.0,0.0,0.0,0.0,-3.3243,-3.4435,-3.4325,-3.4729,-3.4674,0.0,0.0,0.0,0.0,0.0,0.0,0.0,0.0,0.0,-3.6099,-3.6563,-3.6959,-3.7318,-3.8002,-3.8356,-3.8342,-3.86,-3.8707,-3.8689,-3.7973,-3.7404,-3.6978,-3.721,-3.6567,-3.5417,-3.5769,-3.551,-3.4823,0.0,0.0,0.0,0.0,-3.2317,-3.2096,0.0,0.0,0.0,0.0,0.0,0.0,0.0,0.0,0.0,0.0,0.0,0.0,-1.6661,-1.7072,-1.7519,-1.8051,-1.8106,-1.8106,0.0,0.0,-1.8283,-1.8669,-1.8688,-1.8874,-1.9281,-1.8893,-1.8688,-1.8688,-1.9114,-1.9281,-1.9281,-1.9281,-1.9281,-1.9299,-1.9424,-1.9984,-2.0845,-2.1101,-2.1454,0.0,0.0,0.0,0.0,0.0,0.0,0.0,0.0,0.0,0.0,0.0,0.0,0.0,0.0,0.0,0.0,0.0,0.0,0.0,0.0,0.0,0.0,0.0,0.0,0.0,0.0,0.0,0.0,0.0,0.0,0.0,0.0,0.0,0.0,0.0,0.0,0.0,0.0,-3.4435,-3.5114,-3.4504,-3.5147,-3.5316,0.0,0.0,0.0,0.0,0.0,0.0,-3.5334,-3.5954,-3.6376,-3.6597,-3.7199,-3.7603,-3.7823,-3.8395,-3.8707,-3.8707,-3.8487,-3.8395,-3.8377,-3.7955,-3.7441,-3.689,-3.7496,-3.6582,-3.4752,-3.564,-3.5443,-3.4505,-3.3863,-3.3518,-3.3315,-3.2665,-3.241,-3.2406,0.0,0.0,0.0,0.0,0.0,0.0,0.0,0.0,0.0,0.0,0.0,-1.5719,-1.6277,0.0,-1.7519,-1.8051,-1.8106,-1.8106,0.0,0.0,-1.8125,-1.8145,-1.8145,-1.8165,-1.8185,-1.8165,-1.8145,-1.8145,-1.8185,-1.8185,-1.8185,-1.8185,-1.8185,-1.8204,-1.8708,-1.9456,-2.0348,-2.035,-2.0633,-2.1055,0.0,0.0,0.0,0.0,0.0,0.0,0.0,0.0,0.0,0.0,0.0,0.0,0.0,0.0,0.0,0.0,0.0,0.0,0.0,0.0,0.0,0.0,0.0,0.0,0.0,0.0,0.0,0.0,0.0,0.0,0.0,0.0,0.0,0.0,0.0,0.0,0.0,0.0,0.0,-3.6174,-3.6886,0.0,0.0,0.0,0.0,-3.6156,-3.6211,-3.6229,-3.6229,-3.6266,-3.6652,-3.7419,-3.7474,-3.7878,-3.8634,-3.8689,-3.8707,-3.8689,-3.7933,-3.7566,-3.7511,-3.5903,-3.5169,-3.5133,-3.5169,-3.4674,-3.399,-3.5611,-3.5465,-3.4223,-3.4174,-3.3847,-3.3391,-3.3353,-3.2825,-3.2119,0.0,0.0,0.0,0.0,0.0,-1.336,-1.284,-1.3531,-1.41,-1.41,-1.4404,-1.4897,0.0,-1.6092,-1.6492,-1.7024,-1.7076,-1.7076,-1.7076,0.0,-1.7209,-1.7565,-1.7585,-1.7585,-1.7585,-1.7927,-1.7927,-1.7585,-1.7927,-1.8106,-1.8106,-1.8106,-1.8106,-1.8125,-1.8302,-1.8579,-1.8929,-1.963,-2.0158,-2.055,-2.055,-2.0813,0.0,0.0,0.0,0.0,0.0,0.0,0.0,0.0,0.0,0.0,0.0,0.0,0.0,0.0,0.0,0.0,0.0,0.0,0.0,0.0,0.0,0.0,0.0,0.0,0.0,0.0,0.0,0.0,0.0,0.0,0.0,0.0,0.0,0.0,0.0,0.0,0.0,-3.5337,-3.6284,0.0,-3.5862,-3.6087,-3.6303,-3.6303,-3.6795,-3.707,-3.707,-3.8046,-3.8744,-3.9053,-3.9053,-3.9166,-3.946,-3.8964,-3.8707,-3.8707,-3.8414,-3.8267,-3.8248,-3.7661,-3.6817,-3.5881,-3.6376,-3.5532,-3.388,-3.5,-3.4866,-3.3935,-3.3935,-3.3833,-3.3672,-3.3672,-3.3569,-3.3448,0.0,0.0,0.0,0.0,-1.2427,-1.2623,-1.2071,-1.2959,-1.3615,-1.3437,-1.3618,-1.4001,-1.4643,-1.4935,-1.5308,-1.5862,-1.5876,-1.5976,-1.6194,0.0,-1.6441,-1.7013,-1.7034,-1.7034,-1.7034,-1.7394,-1.7394,-1.7034,-1.7394,-1.7565,-1.7565,-1.7565,-1.7565,-1.7565,-1.7747,-1.7827,-1.7887,-1.8779,-1.9416,-1.9831,-1.9831,-2.0196,-2.0701,0.0,0.0,0.0,0.0,0.0,0.0,0.0,0.0,0.0,0.0,0.0,0.0,0.0,0.0,0.0,0.0,0.0,0.0,0.0,0.0,0.0,0.0,0.0,0.0,0.0,0.0,0.0,0.0,0.0,0.0,0.0,0.0,0.0,0.0,0.0,-3.5701,-3.5171,-3.629,-3.6777,-3.5984,-3.665,-3.711,-3.711,-3.786,-3.8319,-3.8319,-3.957,-4.0304,-4.0304,-4.0304,-4.0175,-3.99,-3.9368,-3.8964,-3.8707,-3.8414,-3.8303,-3.8285,-3.801,-3.7312,-3.6303,-3.6541,-3.5716,-3.4215,-3.4491,-3.427,-3.3807,-3.3807,-3.3807,-3.3807,-3.3807,-3.3915,-3.4068,0.0,0.0,0.0,-1.1284,-1.168,-1.1999,-1.1984,-1.2685,-1.3042,-1.2585,-1.2868,-1.3155,-1.3206,-1.3636,-1.4127,-1.4653,-1.4687,-1.4926,-1.5543,-1.5565,-1.582,-1.6423,-1.6445,-1.6445,-1.6445,-1.6445,-1.6445,-1.6445,-1.6445,-1.6445,-1.6445,-1.6445,-1.6445,-1.6466,-1.7013,-1.725,-1.7291,-1.7827,-1.8361,-1.8855,-1.8874,-1.9434,-2.026,0.0,0.0,0.0,0.0,0.0,0.0,0.0,0.0,0.0,0.0,0.0,0.0,0.0,0.0,0.0,0.0,0.0,0.0,0.0,0.0,0.0,0.0,0.0,0.0,0.0,0.0,0.0,0.0,0.0,0.0,0.0,0.0,0.0,-3.5728,-3.5876,-3.5894,-3.5894,-3.7041,-3.7554,-3.678,-3.7879,-3.8643,-3.8643,-3.941,-3.9884,-3.9884,-4.0673,-4.1132,-4.1132,-4.1132,-4.0763,-3.9937,-3.99,-3.9496,-3.8689,-3.7915,-3.7547,-3.7511,-3.6725,-3.6358,-3.6285,-3.5445,-3.5059,-3.4949,-3.4174,-3.3825,-3.3807,-3.3807,-3.3807,-3.3807,-3.3807,-3.3807,-3.3807,0.0,0.0,-1.1242,-1.1036,-1.1549,-1.1939,-1.1742,-1.2566,-1.3131,-1.297,-1.3403,-1.3741,-1.3712,-1.3924,-1.4227,-1.4664,-1.4429,-1.4462,-1.4926,0.0,-1.5017,-1.5186,-1.5197,-1.5197,-1.5197,-1.5197,-1.5197,-1.5197,-1.5197,-1.5197,-1.5197,-1.5197,-1.5197,-1.522,-1.5808,-1.6058,-1.6114,-1.6685,-1.725,-1.7767,-1.8165,-1.8711,-1.9276,0.0,0.0,0.0,0.0,0.0,0.0,0.0,0.0,0.0,0.0,0.0,0.0,0.0,0.0,0.0,0.0,0.0,0.0,0.0,0.0,0.0,0.0,0.0,0.0,0.0,0.0,0.0,0.0,0.0,0.0,0.0,0.0,-3.5186,-3.4911,-3.5343,-3.5685,-3.5685,-3.6342,-3.6735,-3.6488,-3.7179,-3.7614,-3.7614,-3.8669,-3.9328,-3.9328,-4.1001,-4.1974,-4.1974,-4.1974,-4.1589,-4.0765,-4.0194,-3.9496,-3.8707,-3.8487,-3.8377,-3.8358,-3.8138,-3.7716,-3.7162,-3.6923,-3.6119,-3.4986,-3.4766,-3.4325,-3.3807,-3.3807,-3.3807,-3.3807,-3.3807,-3.3807,-3.3715,0.0,-1.1434,-1.1141,-1.1216,-1.1574,-1.1863,-1.192,-1.2663,-1.3122,-1.2846,-1.3104,-1.3241,-1.2968,-1.2999,-1.315,-1.3372,-1.334,-1.3505,-1.4013,0.0,-1.4698,-1.4698,-1.4698,-1.4698,-1.4698,-1.4698,-1.4698,-1.4698,-1.4698,-1.4698,-1.4698,-1.4698,-1.4698,-1.4732,-1.5073,-1.5231,-1.5253,-1.5599,-1.6083,-1.6617,-1.6941,-1.7803,-1.89,-1.89,-1.9263,-1.9847,-2.0188,-2.0316,-2.0422,-2.1026,0.0,0.0,0.0,0.0,0.0,0.0,0.0,0.0,0.0,0.0,0.0,0.0,0.0,0.0,0.0,0.0,0.0,0.0,0.0,0.0,0.0,0.0,0.0,0.0,-3.5334,-3.6062,-3.5943,-3.6028,-3.5994,-3.5633,-3.6075,-3.6395,-3.6395,-3.7143,-3.7527,-3.7227,-3.877,-3.9695,-3.9607,-4.1433,-4.2574,-4.28,-4.2488,-4.1919,-4.1113,-4.0304,-3.9496,-3.8707,-3.8707,-3.8707,-3.8707,-3.8707,-3.8432,0.0,-3.7658,-3.6762,-3.5518,-3.5151,-3.4527,0.0,0.0,0.0,0.0,0.0,-3.3807,-3.3733,0.0,-1.1402,-1.1162,-1.1717,-1.1735,-1.1839,-1.2341,-1.2814,-1.295,-1.2462,0.0,-1.2143,-1.1656,-1.1535,-1.1547,-1.1596,-1.1924,-1.2407,0.0,0.0,-1.4502,-1.4502,-1.4502,-1.4502,-1.4502,-1.4502,-1.4502,-1.4502,-1.4502,-1.4502,-1.4502,-1.4502,-1.4502,-1.4502,-1.456,-1.4606,-1.4606,-1.4675,-1.5017,-1.5499,-1.5565,-1.6869,-1.8746,-1.8814,-1.9179,-1.9736,-1.9857,-1.9907,-2.0002,-2.0625,0.0,0.0,0.0,0.0,0.0,0.0,0.0,0.0,0.0,0.0,0.0,0.0,0.0,0.0,0.0,0.0,0.0,0.0,0.0,0.0,0.0,0.0,0.0,0.0,-3.6405,-3.7246,-3.7821,-3.7398,-3.6705,-3.5836,-3.6165,-3.6467,-3.6467,-3.7542,-3.7983,-3.7335,-3.9294,-4.0423,-4.0253,0.0,0.0,0.0,0.0,-4.1834,-4.1113,-4.0304,-3.9496,-3.8707,-3.8707,-3.8707,-3.8707,-3.8707,-3.8707,-3.867,-3.786,-3.7052,-3.6229,-3.5353,-3.4527,-3.3807,-3.3807,-3.3807,-3.3807,-3.3807,-3.3733,-3.3678,0.0,-1.2037,-1.1757,-1.2389,-1.2352,-1.2291,-1.2375,-1.2518,-1.2578,-1.2424,-1.207,-1.1767,-1.1622,-1.1271,-1.1193,-1.1577,-1.1663,-1.205,0.0,0.0,-1.3248,-1.3248,-1.3248,-1.3248,-1.3248,-1.3248,-1.3248,-1.3248,-1.3248,-1.3248,-1.3248,-1.3248,-1.3248,-1.3272,-1.3755,-1.398,-1.4003,-1.4491,-1.4766,-1.4926,-1.541,-1.6436,-1.7737,-1.8162,-1.8676,-1.9285,-2.0259,-2.0611,-2.0764,-2.1855,-2.2304,-2.2523,-2.3059,0.0,0.0,0.0,0.0,0.0,0.0,0.0,0.0,0.0,0.0,0.0,0.0,0.0,0.0,0.0,0.0,0.0,0.0,0.0,0.0,-3.5505,-3.7274,-3.8413,-3.7973,-3.8294,-3.8075,-3.6721,-3.6667,-3.6718,-3.6718,-3.749,-3.7911,-3.7797,-3.911,-3.9948,-3.9905,-4.1213,-4.2244,-4.2845,-4.2012,-4.1414,-4.1095,-4.0304,-3.9496,-3.8707,0.0,0.0,-3.8707,-3.8707,-3.8707,-3.867,-3.786,-3.7052,-3.6229,-3.5353,-3.4527,-3.3807,-3.3807,-3.3807,-3.3807,-3.3807,-3.3385,-3.2913,-1.3842,-1.2937,-1.2389,-1.2994,-1.2718,-1.2488,-1.2764,-1.2822,-1.2741,-1.2443,-1.2009,-1.1622,-1.1287,-1.085,-1.0684,-1.0929,-1.1351,0.0,0.0,-1.2905,-1.2905,-1.2905,-1.2905,-1.2715,-1.2369,-1.2344,-1.2197,-1.1841,-1.1841,-1.1841,-1.1841,-1.1841,-1.1841,-1.1891,-1.2502,-1.2793,-1.2841,-1.3518,-1.3978,-1.4305,-1.4804,-1.5555,-1.6479,-1.7743,-1.8706,-1.9472,-2.0079,-2.0295,-2.0436,-2.134,-2.2071,-2.2704,-2.3245,-2.3851,-2.4417,0.0,0.0,0.0,0.0,0.0,0.0,0.0,0.0,0.0,0.0,0.0,0.0,0.0,0.0,-3.2299,0.0,0.0,-3.5325,-3.6054,-3.7418,-3.8395,-3.8395,-3.8748,-3.8582,-3.7483,-3.7032,-3.6795,-3.6795,-3.7466,-3.7753,-3.7381,-3.8962,-3.9748,-3.9279,-4.0246,-4.1078,-4.1674,-4.0529,-4.0035,-4.0311,-3.9138,-3.8344,-3.7965,-3.8201,-3.8099,-3.7717,-3.7973,-3.8102,-3.8065,-3.7676,-3.7052,-3.6193,-3.4926,-3.4174,-3.3807,-3.3807,-3.355,-3.3201,-3.3201,-3.2687,-3.2118,-1.499,-1.401,-1.3275,-1.3627,-1.3137,-1.2817,-1.3152,-1.3216,-1.3023,-1.2474,-1.2119,-1.1711,-1.11,-1.0753,-1.0586,0.0,0.0,0.0,0.0,-1.2905,-1.2905,-1.2905,-1.2774,-1.2403,-1.1814,-1.1665,-1.1341,-1.0788,-1.0788,-1.0788,-1.0788,-1.0788,-1.0864,-1.1015,-1.1566,-1.1909,-1.2165,-1.2757,-1.3346,-1.3904,-1.4341,-1.4889,-1.5603,-1.7303,-1.8549,-1.9443,-1.9542,-1.9669,-1.9886,-2.049,-2.1387,-2.235,-2.2977,-2.3936,-2.4734,-2.445,-2.4395,0.0,0.0,0.0,0.0,0.0,0.0,0.0,0.0,-2.949,-3.0283,-3.1393,-3.2219,-3.3092,-3.423,-3.5078,-3.5851,-3.6546,-3.7305,-3.8024,-3.8608,-3.8859,-3.8756,-3.8167,-3.7462,-3.6965,-3.6812,-3.7466,-3.7652,-3.7066,-3.8674,-3.9333,-3.8582,-3.91,-3.9703,-4.0291,-3.8947,-3.8563,-3.9281,-3.79,-3.7209,-3.7192,-3.7578,-3.7376,-3.6722,-3.7312,-3.7409,-3.7113,-3.6966,-3.6483,-3.5716,-3.4357,-3.3807,-3.3807,-3.3807,-3.3311,-3.2601,-3.2601,-3.21,-3.1525,0.0,-1.5228,-1.4737,-1.4438,-1.4023,-1.362,-1.3254,-1.3258,-1.3078,-1.248,-1.2404,-1.2183,-1.1593,-1.1489,-1.1604,0.0,0.0,0.0,-1.2876,-1.2905,-1.2905,-1.2905,-1.227,-1.1888,-1.1789,-1.1216,-1.0889,-1.0788,-1.0788,-1.0788,-1.0788,-1.0788,-1.1116,-1.169,-1.1765,-1.2357,-1.3326,-1.3412,-1.3678,-1.4116,-1.4769,-1.5358,-1.5919,-1.6662,-1.743,-1.8161,-1.8653,-1.9228,-1.9886,-2.049,-2.0783,-2.1091,-2.2084,-2.2521,-2.2879,-2.3997,-2.4302,-2.4473,-2.5218,-2.5901,-2.658,-2.7323,-2.8113,-2.8981,0.0,-3.0821,-3.1495,-3.2226,-3.2931,-3.3622,-3.4361,-3.5094,-3.582,-3.6504,-3.727,-3.7841,-3.7905,-3.8487,-3.8884,-3.8801,-3.8196,-3.7516,-3.6863,-3.7466,-3.7872,-3.7787,-3.8007,-3.8099,-3.7984,-3.8068,-3.8379,-3.8903,-3.8065,-3.7912,-3.8522,-3.7634,-3.7209,-3.7209,-3.7248,-3.7095,-3.6723,-3.7511,-3.7109,-3.5783,-3.5046,-3.4499,-3.4064,-3.388,-3.3807,-3.3807,-3.3807,-3.3311,-3.2601,-3.2601,-3.21,-3.1525,0.0,-1.5769,-1.5285,-1.4627,-1.4165,-1.3853,-1.3748,-1.3417,-1.3108,-1.2892,-1.2581,-1.2191,-1.1672,-1.1606,-1.176,0.0,0.0,0.0,-1.2876,-1.2905,-1.2905,-1.2905,-1.2187,-1.1616,-1.1241,-1.0568,-1.0038,-0.964,-0.964,-0.964,-0.964,-1.0038,-1.05,-1.1083,-1.1868,-1.26,-1.3277,-1.3683,-1.3948,-1.415,-1.4703,-1.5049,-1.5313,-1.5817,-1.6428,-1.7163,-1.7827,-1.8528,0.0,0.0,-2.0044,-2.0779,-2.1232,-2.1568,-2.2002,-2.2892,-2.3145,-2.337,-2.4473,-2.6148,-2.7589,-2.753,-2.8897,-3.0315,-3.0477,-3.1017,-3.1795,-3.2871,-3.3305,-3.3814,-3.4876,-3.5327,-3.5624,0.0,-3.66,-3.7084,-3.7084,-3.7422,-3.7644,-3.7627,-3.7036,-3.6824,-3.7391,-3.733,-3.7246,-3.7246,-3.7669,-3.7719,-3.728,-3.7246,-3.7369,-3.7592,-3.6818,-3.674,-3.7469,-3.6671,-3.627,-3.6253,-3.615,-3.5792,-3.5187,-3.5385,-3.5094,-3.4485,-3.4129,-3.4049,-3.4106,-3.3633,-3.3447,-3.3447,-3.3447,-3.296,-3.2283,-3.2504,-3.21,-3.1525,0.0,-1.6094,-1.5624,-1.4674,-1.4262,-1.403,-1.3867,-1.3711,-1.3497,-1.3195,-1.3032,-1.2716,-1.2036,-1.1969,-1.2083,-1.2383,-1.2389,-1.2549,0.0,-1.2905,-1.2798,-1.2618,-1.1907,-1.1216,-1.0542,-0.9865,-0.9332,-0.8898,-0.8898,-0.9072,-0.9382,-0.9644,-1.0298,-1.1253,-1.2014,-1.2797,-1.3589,-1.409,-1.4358,-1.4484,-1.4834,-1.4961,-1.499,-1.5293,-1.5719,-1.6293,-1.7034,-1.7895,0.0,0.0,-1.947,-2.0478,-2.0641,-2.1069,-2.1594,-2.2146,-2.2393,-2.274,-2.3722,-2.559,-2.723,-2.7145,-2.8871,-3.0612,-3.0479,-3.1127,-3.2049,-3.3021,-3.3514,-3.4068,-3.504,-3.5385,-3.5504,-3.5504,-3.5943,-3.6306,-3.6306,-3.6399,-3.6522,-3.667,-3.6289,-3.6431,-3.7466,-3.6892,-3.6451,-3.6451,-3.6958,-3.7043,-3.6485,-3.6451,-3.6451,-3.6451,-3.591,-3.5893,-3.6451,-3.5887,-3.56,-3.5583,-3.5257,-3.4731,-3.409,-3.3457,-3.337,-3.3684,-3.3335,-3.345,-3.384,-3.3247,-3.3014,-3.3014,-3.3014,-3.2657,-3.217,-3.2448,-3.221,-3.1806,0.0,0.0,-1.5909,-1.4707,-1.4485,-1.4211,-1.3365,-1.4143,-1.4398,-1.3167,-1.3938,-1.4181,-1.2977,-1.2866,-1.2876,-1.2886,-1.2886,-1.2895,-1.2905,-1.2905,-1.2584,-1.1864,-1.1191,-1.0517,-0.984,-0.9185,-0.8945,-0.9198,-0.9198,-0.975,-1.082,-1.0071,-1.0891,-1.2986,-1.2246,-1.2962,-1.4738,-1.4766,-1.5,-1.5342,-1.5391,-1.5391,-1.5391,-1.541,-1.541,-1.5526,-1.6255,0.0,0.0,0.0,-1.9188,-1.9924,-2.0515,-2.1069,-2.1594,-2.2146,-2.2656,-2.3083,-2.3138,-2.3763,-2.4697,-2.5857,-2.7341,-2.8814,-3.0012,-3.144,-3.2497,-3.2512,-3.3559,-3.4488,-3.4533,-3.5055,-3.5504,-3.5504,-3.5537,-3.5537,-3.5537,-3.5584,-3.5885,-3.6521,-3.6711,-3.6768,0.0,-3.6071,-3.5633,-3.5633,-3.565,-3.565,-3.5633,-3.5633,-3.5633,-3.5633,-3.5616,-3.5616,-3.5633,-3.5616,-3.56,-3.5583,-3.4866,-3.4379,-3.4053,-3.2534,-3.2529,-3.3632,-3.2388,-3.2109,-3.2553,-3.2535,-3.2517,-3.2517,-3.2517,-3.25,-3.2482,-3.2498,-3.2535,-3.2564,0.0,0.0,0.0,-1.6303,-1.5941,-1.5513,-1.4931,-1.4544,-1.4277,-1.4185,-1.4127,0.0,0.0,0.0,0.0,0.0,-1.2905,-1.2905,-1.2905,-1.2905,-1.2559,-1.1839,-1.1166,-1.0491,-0.9814,-0.9327,-0.9118,-0.9211,-0.9439,-0.9723,-1.0128,-1.0821,-1.1881,-1.3196,-1.3923,-1.4904,-1.6044,-1.6044,-1.6328,-1.6689,-1.6406,-1.6465,-1.665,-1.6064,-1.587,-1.587,0.0,0.0,0.0,-1.7246,-1.7743,-1.8444,-1.9155,-1.9779,-2.051,-2.1889,-2.2669,-2.3108,-2.3108,-2.3966,-2.4985,-2.5398,-2.6911,-2.8529,-2.949,-3.0394,-3.1306,-3.2303,-3.2871,-3.344,-3.4354,-3.4666,-3.4966,-3.5429,-3.5504,-3.5504,-3.5504,-3.5145,-3.5125,-3.5782,-3.5519,0.0,0.0,0.0,0.0,-3.5633,-3.56,-3.56,-3.56,-3.56,-3.56,-3.56,-3.56,-3.56,-3.56,-3.56,-3.56,-3.5583,-3.437,-3.3202,-3.2159,-3.163,-3.1642,-3.2018,-3.1589,-3.164,-3.2039,-3.2039,-3.2039,-3.2039,-3.2039,-3.2039,-3.2039,-3.2039,-3.2258,-3.257,0.0,0.0,0.0,0.0,0.0,0.0,0.0,0.0,0.0,0.0,0.0,0.0,0.0,0.0,0.0,0.0,0.0,-1.2905,-1.2905,0.0,-1.2187,-1.1466,-1.0788,-1.0141,-0.9465,-0.92,-0.9158,-0.9371,-0.9593,-1.0101,-1.0901,-1.1707,-1.2855,-1.4278,-1.5091,-1.5906,-1.6697,-1.6697,-1.6863,-1.7129,-1.6814,-1.6863,-1.709,-1.6523,-1.6299,0.0,0.0,0.0,0.0,-1.6522,-1.6978,-1.7776,-1.8724,-1.9732,-2.0787,-2.1854,-2.2611,-2.3108,-2.3108,-2.3756,-2.4502,-2.4723,-2.5952,-2.7371,-2.8314,-2.9038,-2.9959,-3.141,-3.1885,-3.2464,-3.3887,-3.4354,-3.4728,-3.5385,-3.5504,-3.5504,-3.5504,-3.4906,-3.4751,-3.543,-3.5137,-3.5258,0.0,0.0,0.0,-3.6067,-3.6028,-3.591,-3.5616,-3.56,-3.56,-3.56,-3.56,-3.56,-3.56,-3.5329,-3.4945,-3.4421,-3.3457,-3.2374,-3.119,-3.119,-3.119,-3.119,-3.119,-3.1351,-3.1584,-3.1584,-3.1584,-3.1584,-3.1584,-3.1584,-3.1584,-3.1584,-3.1878,-3.2351,0.0,0.0,0.0,0.0,0.0,0.0,0.0,0.0,0.0,0.0,0.0,0.0,0.0,0.0,0.0,0.0,0.0,0.0,-1.2905,0.0,0.0,-1.0889,-1.0244,-0.9562,-0.8857,-0.8891,-0.918,-0.9766,-0.98,-1.0886,-1.2986,-1.264,-1.3741,-1.6013,-1.57,-1.6032,-1.6789,-1.6819,-1.687,-1.6912,-1.6902,-1.6902,-1.6912,-1.6872,0.0,0.0,0.0,0.0,0.0,-1.6578,-1.7026,-1.79,-1.9274,-2.088,-2.2264,-2.2042,-2.2506,-2.3108,-2.3108,-2.3133,-2.3283,-2.3866,-2.4627,-2.5523,-2.6646,-2.7575,-2.8588,-3.0018,-3.0746,-3.16,0.0,0.0,-3.4651,-3.534,-3.5489,-3.5504,-3.5504,-3.4936,-3.4771,0.0,0.0,0.0,0.0,0.0,0.0,-3.6787,0.0,-3.6428,-3.5701,-3.5616,-3.56,-3.56,-3.56,-3.56,-3.56,-3.4861,-3.3766,-3.2293,-3.2293,-3.1921,-3.119,-3.119,-3.119,-3.119,-3.119,-3.119,-3.119,-3.119,-3.119,-3.119,-3.119,-3.119,-3.119,-3.119,-3.1483,-3.193,0.0,0.0,0.0,0.0,0.0,0.0,0.0,0.0,0.0,0.0,0.0,0.0,0.0,0.0,0.0,0.0,0.0,0.0,0.0,0.0,0.0,0.0,0.0,-1.0737,-0.9562,-0.9973,-1.0355,0.0,0.0,-1.1859,-1.3009,-1.3527,-1.4276,-1.5229,-1.6043,-1.7034,-1.8142,-1.8493,-1.9174,-2.0041,0.0,-1.9792,-1.9987,0.0,0.0,0.0,0.0,0.0,-1.843,-1.7093,-1.7567,-1.8967,-2.0335,-2.1479,-2.2364,-2.2692,-2.2944,-2.3108,-2.3108,-2.3421,-2.3816,-2.3966,-2.4773,-2.5743,-2.6684,-2.7389,-2.8315,-2.9952,-3.0414,-3.0975,-3.2482,-3.3305,0.0,-3.4668,-3.5175,0.0,-3.5504,-3.5355,0.0,-3.5489,-3.5518,-3.5716,-3.6276,-3.6503,0.0,0.0,-3.622,-3.6078,-3.6462,-3.5943,-3.56,-3.56,-3.56,-3.56,-3.56,-3.4861,-3.3766,-3.2293,-3.2293,-3.1921,-3.119,-3.119,-3.119,-3.119,-3.119,-3.119,-3.119,-3.119,-3.119,-3.119,-3.119,-3.119,-3.119,-3.119,-3.1288,-3.1387,0.0,0.0,0.0,0.0,0.0,0.0,0.0,0.0,0.0,0.0,0.0,0.0,0.0,0.0,0.0,0.0,0.0,0.0,0.0,0.0,0.0,0.0,-1.1516,-1.1015,-1.0261,-1.095,-1.1323,0.0,0.0,0.0,0.0,-1.4538,-1.5322,-1.5954,-1.7134,-1.806,-1.8749,-1.9264,0.0,0.0,0.0,0.0,0.0,0.0,0.0,0.0,0.0,0.0,-1.9773,-1.9183,-1.9607,-2.0461,-2.0873,-2.214,-2.3373,-2.3287,-2.3381,-2.3484,-2.3484,-2.3753,-2.4004,-2.4004,-2.4632,-2.5441,-2.6148,-2.6543,-2.7354,-2.9324,-2.9721,-3.0303,-3.2169,-3.3051,-3.3709,-3.4399,0.0,0.0,-3.5504,-3.5504,-3.5504,0.0,-3.5504,0.0,-3.6086,-3.6117,-3.6153,0.0,-3.6114,-3.6142,-3.6267,-3.5868,-3.56,-3.56,-3.56,-3.5295,-3.4636,-3.4218,-3.3271,-3.1819,-3.1819,-3.1616,-3.119,-3.119,-3.119,-3.119,0.0,-3.119,-3.119,-3.119,-3.119,-3.119,-3.119,-3.119,-3.119,-3.119,-3.119,-3.119,0.0,0.0,0.0,0.0,0.0,0.0,0.0,0.0,0.0,0.0,0.0,0.0,0.0,0.0,0.0,0.0,0.0,0.0,0.0,0.0,0.0,0.0,-1.1637,-1.1285,-1.1251,-1.1937,-1.2293,0.0,0.0,0.0,0.0,0.0,0.0,0.0,0.0,0.0,0.0,0.0,0.0,0.0,0.0,0.0,0.0,0.0,0.0,0.0,0.0,-2.0942,-2.1037,-2.1815,-2.208,-2.2004,-2.1406,-2.2867,-2.4646,-2.389,-2.3867,-2.4104,-2.4104,-2.4155,-2.4205,-2.4205,-2.4632,-2.5159,-2.5598,-2.5711,-2.6325,-2.8415,-2.8907,-2.9673,-3.1826,-3.293,-3.3679,-3.4279,-3.4996,-3.5504,-3.5504,-3.5504,-3.5504,-3.5504,-3.5504,-3.5504,-3.5504,-3.5504,-3.5478,-3.546,-3.6034,-3.613,-3.5504,-3.5397,-3.5328,-3.5318,-3.5403,-3.4737,-3.3271,-3.3254,-3.256,-3.119,-3.119,-3.119,-3.119,-3.119,-3.119,-3.119,0.0,0.0,-3.119,-3.119,-3.119,-3.119,-3.119,-3.119,-3.119,-3.119,-3.119,-3.119,0.0,0.0,0.0,0.0,0.0,0.0,0.0,0.0,0.0,0.0,-1.7599,-1.6786,0.0,0.0,0.0,0.0,0.0,0.0,0.0,0.0,0.0,0.0,-1.4156,-1.372,-1.3616,-1.3424,-1.3698,0.0,0.0,0.0,0.0,0.0,0.0,0.0,0.0,0.0,0.0,0.0,0.0,0.0,0.0,0.0,0.0,0.0,0.0,0.0,-2.2659,-2.2659,-2.2689,-2.2854,-2.2738,-2.2691,-2.3254,-2.4071,-2.4755,-2.4613,-2.4616,-2.465,-2.465,-2.4996,-2.5322,-2.5322,-2.5783,-2.6235,-2.6323,-2.6348,-2.6621,-2.771,-2.8492,-2.9345,-3.0473,-3.2224,-3.3529,-3.3649,-3.4696,-3.5504,-3.5504,-3.5504,-3.5504,0.0,-3.5504,-3.5504,-3.5504,-3.5504,0.0,0.0,0.0,-3.4865,-3.4844,-3.429,-3.3925,-3.3869,-3.4393,-3.3964,-3.2513,-3.2496,-3.2073,-3.119,-3.119,-3.119,-3.119,-3.119,-3.119,-3.119,-3.119,0.0,-3.119,-3.119,-3.119,-3.119,-3.119,-3.119,-3.119,-3.119,-3.119,-3.119,0.0,0.0,0.0,0.0,0.0,0.0,0.0,-2.0467,-2.0302,-2.0155,-1.9464,-1.8667,-1.7897,-1.7286,-1.6954,0.0,0.0,0.0,0.0,0.0,0.0,0.0,0.0,-1.5419,-1.5344,-1.556,-1.577,-1.5993,0.0,0.0,0.0,0.0,0.0,0.0,0.0,0.0,0.0,0.0,0.0,0.0,0.0,0.0,0.0,0.0,0.0,0.0,0.0,-2.3296,-2.3509,-2.3208,-2.3226,-2.3464,-2.3867,-2.4569,-2.5222,-2.5222,-2.5222,-2.5222,-2.5222,-2.541,-2.5598,-2.5598,-2.6059,-2.6499,-2.6499,-2.6499,-2.6714,-2.755,-2.8395,-2.9286,-3.0133,-3.2045,-3.3499,-3.3499,-3.4637,-3.5504,-3.5504,-3.5504,-3.5504,-3.5504,-3.5504,-3.5504,-3.5504,-3.5175,-3.4696,-3.4023,0.0,-3.3633,-3.4062,-3.3783,-3.3564,-3.3491,-3.3521,-3.2966,-3.1846,-3.183,-3.1458,-3.074,-3.1055,-3.119,-3.119,-3.119,-3.119,-3.119,-3.119,0.0,-3.119,-3.119,-3.119,-3.119,-3.119,-3.119,-3.119,-3.119,-3.119,-3.119,0.0,0.0,0.0,0.0,0.0,0.0,0.0,-2.1118,-2.1198,-2.144,-2.1005,-2.0519,-2.0079,-1.9174,-1.8807,0.0,0.0,0.0,0.0,0.0,0.0,0.0,0.0,0.0,-1.6885,0.0,0.0,-1.778,-1.9069,0.0,0.0,0.0,0.0,0.0,0.0,0.0,0.0,0.0,0.0,0.0,0.0,0.0,0.0,0.0,0.0,0.0,0.0,-2.3856,-2.3929,-2.3446,-2.3509,-2.3816,-2.3816,-2.4632,-2.5598,-2.5598,-2.5686,-2.5774,-2.5774,-2.5774,-2.5774,-2.5774,-2.616,-2.6499,-2.6499,-2.6499,-2.6692,-2.7317,-2.8266,-2.9223,-2.9889,-3.1805,-3.3335,-3.3469,-3.4502,-3.534,-3.5489,-3.5504,-3.5504,-3.5504,-3.537,0.0,-3.5295,-3.4666,0.0,0.0,0.0,0.0,-3.3036,-3.3154,-3.3063,-3.286,-3.2394,-3.1772,-3.0981,-3.1095,-3.0858,-3.0293,-3.0898,-3.119,-3.119,-3.119,-3.119,-3.119,-3.119,0.0,0.0,-3.119,-3.119,-3.119,-3.119,-3.119,-3.1173,-3.1021,-3.0954,-3.0937,0.0,0.0,0.0,0.0,0.0,0.0,0.0,-2.1536,-2.1659,-2.1969,-2.1569,-2.1676,-2.2871,-2.1156,-1.9952,0.0,0.0,0.0,0.0,0.0,0.0,0.0,0.0,0.0,0.0,0.0,0.0,-2.0363,-2.1056,0.0,0.0,0.0,0.0,0.0,0.0,-2.3836,0.0,0.0,0.0,0.0,0.0,0.0,0.0,0.0,0.0,0.0,0.0,-2.505,-2.3991,-2.3941,-2.3602,-2.3183,-2.3183,-2.4305,-2.5598,-2.5598,-2.5996,-2.6411,-2.6411,-2.6411,-2.6411,-2.6411,-2.6449,-2.6499,-2.6499,-2.6499,-2.6521,-2.6589,-2.7887,-2.9034,-2.9097,-3.1014,-3.2796,-3.3395,-3.4098,-3.4786,-3.5415,-3.5504,-3.5504,-3.5504,0.0,0.0,-3.4593,-3.3978,-3.3305,0.0,0.0,0.0,-3.1672,-3.1747,-3.1477,-3.0803,-3.072,-3.0339,-2.9592,-3.0136,-3.0359,-3.0293,-3.0898,-3.119,-3.119,-3.119,-3.119,-3.119,-3.119,0.0,0.0,-3.119,-3.119,-3.119,-3.119,-3.119,-3.1123,-3.0446,-3.019,-3.0108,0.0,0.0,0.0,0.0,0.0,0.0,-2.2296,-2.2124,-2.227,-2.2981,-2.2878,-2.3184,-2.436,-2.3692,-2.2753,-2.1755,0.0,0.0,0.0,0.0,0.0,0.0,0.0,0.0,0.0,0.0,-2.1546,-2.2507,-2.3144,0.0,0.0,0.0,0.0,0.0,0.0,-2.6075,-2.6337,0.0,0.0,0.0,0.0,0.0,0.0,0.0,0.0,0.0,0.0,0.0,-2.4571,-2.4147,-2.3615,-2.3108,-2.3108,-2.3797,-2.4707,-2.5034,-2.5762,-2.6499,-2.6499,-2.6499,-2.6499,-2.6499,-2.6499,-2.6499,-2.6499,-2.6499,-2.6499,-2.6499,-2.7835,-2.9002,-2.9002,-3.091,-3.2736,-3.338,-3.4038,-3.4711,-3.5415,-3.5504,-3.5355,-3.4936,-3.4668,0.0,0.0,0.0,-3.2632,0.0,0.0,0.0,-3.0913,-3.092,-3.0804,-3.0521,-2.9765,-2.9193,-2.885,-2.9104,-2.9225,-2.9225,-2.9827,-3.0123,-3.0123,-3.0497,-3.0456,-3.0145,-3.0497,0.0,0.0,-3.0497,-3.0392,-3.0032,-3.0398,-3.026,-2.9839,-2.9533,-2.9431,-2.9416,0.0,0.0,0.0,0.0,0.0,-2.286,-2.286,-2.2603,-2.281,-2.394,-2.3852,-2.4144,-2.5306,-2.5297,-2.4799,-2.3848,-2.2468,0.0,0.0,0.0,0.0,0.0,0.0,0.0,0.0,0.0,-2.3617,-2.4261,-2.5097,-2.5523,0.0,0.0,-2.7249,-2.7083,0.0,0.0,0.0,0.0,0.0,0.0,0.0,0.0,0.0,0.0,0.0,0.0,0.0,0.0,0.0,0.0,0.0,-2.3108,-2.3108,-2.3496,-2.4104,-2.4625,-2.5473,-2.6273,-2.6449,-2.6499,-2.6499,-2.6499,-2.6499,-2.6499,-2.6499,-2.6499,-2.6499,-2.6499,-2.7637,-2.862,-2.862,-3.0182,-3.1746,-3.2685,-3.3382,-3.4144,-3.5068,-3.537,-3.5325,-3.4846,0.0,-3.4008,0.0,-3.2721,0.0,0.0,0.0,0.0,0.0,-3.0328,-3.0142,-2.9945,-2.8882,-2.8283,-2.8238,-2.8415,-2.8487,-2.8511,-2.9111,-2.9406,-2.9406,-2.9848,-2.9805,-2.9429,0.0,0.0,0.0,-2.9848,-2.9702,-2.9226,-2.95,-2.9259,-2.8721,-2.8338,-2.8291,-2.8385,0.0,0.0,0.0,0.0,0.0,0.0,-2.3189,-2.291,-2.3253,-2.4783,-2.4251,-2.4296,-2.583,-2.5521,-2.549,-2.6214,-2.4548,0.0,0.0,0.0,0.0,0.0,0.0,0.0,0.0,0.0,-2.4982,-2.5593,-2.6842,-2.7465,-2.7503,-2.8785,-2.9028,-2.8421,0.0,0.0,0.0,0.0,0.0,0.0,0.0,0.0,0.0,0.0,0.0,0.0,0.0,0.0,0.0,0.0,0.0,0.0,0.0,-2.3496,-2.4104,-2.4625,-2.5197,-2.5737,-2.6336,-2.6499,-2.6499,-2.6499,-2.6499,-2.6499,-2.6499,-2.6499,-2.6499,-2.6499,-2.7162,-2.7703,-2.7703,-2.8441,-2.9512,-3.0998,-3.1786,-3.2754,-3.4288,-3.507,-3.5504,0.0,0.0,-3.3499,-3.3499,-3.2273,0.0,0.0,0.0,0.0,0.0,-2.9924,-2.9322,-2.8622,-2.7959,-2.76,-2.7625,-2.8213,-2.8487,-2.8511,-2.9111,-2.9406,-2.9406,-2.9406,-2.9406,0.0,0.0,0.0,0.0,-2.9406,-2.934,-2.9149,-2.8618,-2.8342,-2.8056,-2.6791,-2.6665,-2.6928,0.0,0.0,0.0,0.0,0.0,0.0,0.0,-2.3265,-2.3508,-2.4826,-2.4771,-2.5077,-2.6337,-2.6783,-2.7276,-2.8079,-2.6466,0.0,0.0,0.0,0.0,0.0,0.0,0.0,0.0,0.0,-2.7548,-2.8202,-2.8604,-2.9062,-2.9552,-2.9874,-3.0168,-3.0446,-3.0593,0.0,0.0,0.0,0.0,0.0,0.0,0.0,0.0,0.0,0.0,0.0,0.0,0.0,0.0,0.0,0.0,0.0,0.0,0.0,0.0,-2.4092,-2.4644,-2.5109,-2.5285,-2.5598,-2.5875,-2.5875,-2.6197,-2.6499,-2.6499,-2.6499,-2.6499,-2.6499,-2.7129,-2.7703,-2.7703,-2.8395,-2.962,-3.1556,-3.2075,-3.2899,-3.4914,-3.4966,0.0,-3.4188,-3.2961,-3.2123,0.0,0.0,0.0,0.0,0.0,0.0,0.0,-2.9265,-2.8816,-2.8607,-2.7959,-2.76,-2.76,-2.7785,-2.787,-2.787,-2.7618,-2.773,-2.8183,-2.8124,0.0,0.0,0.0,0.0,0.0,-2.8109,-2.7771,-2.7263,-2.7045,-2.6623,-2.6096,-2.5696,-2.5654,-2.5737,0.0,0.0,0.0,0.0,0.0,0.0,0.0,-2.3599,-2.3869,-2.5187,-2.5157,-2.5505,-2.6784,-2.7453,-2.8111,-2.8925,-2.8218,0.0,0.0,0.0,0.0,0.0,0.0,0.0,0.0,-2.8459,-2.8986,-2.9406,-2.9629,-2.9966,-3.0415,-3.057,-3.1025,-3.1712,-3.1355,0.0,0.0,0.0,0.0,0.0,0.0,0.0,0.0,0.0,0.0,0.0,0.0,0.0,0.0,0.0,0.0,0.0,0.0,0.0,0.0,0.0,-2.4316,-2.4607,-2.5008,-2.5347,-2.5649,-2.5862,-2.6223,-2.6499,-2.6499,-2.6499,-2.6499,-2.6499,-2.6905,-2.7263,-2.7263,-2.7703,-2.8573,-3.0225,-3.0872,-3.1778,-3.3481,0.0,0.0,-3.32,0.0,0.0,0.0,0.0,0.0,0.0,0.0,0.0,0.0,-2.8951,-2.8368,-2.7859,-2.745,-2.7225,-2.7225,-2.6986,-2.6866,-2.6851,-2.6686,-2.6821,-2.7225,-2.743,0.0,0.0,0.0,0.0,0.0,-2.7074,-2.6704,-2.6004,-2.5747,-2.5345,-2.4855,-2.4672,-2.4716,-2.4855,0.0,0.0,0.0,0.0,0.0,0.0,0.0,-2.3945,-2.4292,-2.5805,-2.5464,-2.5649,-2.7176,-2.769,-2.8215,-2.8961,0.0,0.0,0.0,0.0,0.0,0.0,0.0,0.0,0.0,-2.9203,-2.9534,-2.9621,-3.0118,-3.0389,-3.0459,-3.0972,-3.1633,-3.2344,-3.1565,0.0,0.0,0.0,0.0,0.0,0.0,0.0,0.0,0.0,0.0,0.0,0.0,0.0,0.0,0.0,0.0,0.0,0.0,0.0,0.0,0.0,0.0,0.0,0.0,-2.5536,-2.5686,-2.6285,-2.6461,-2.6499,-2.6499,-2.6499,0.0,-2.6499,-2.6499,-2.6499,-2.6549,-2.6524,-2.6807,-2.7676,-2.8752,-2.9822,0.0,-3.2023,0.0,0.0,-3.2243,0.0,0.0,0.0,0.0,0.0,0.0,0.0,0.0,-2.8846,-2.7889,-2.6632,-2.6497,-2.6467,-2.6512,-2.5914,-2.5615,-2.5615,-2.6183,-2.6482,-2.6542,-2.7121,0.0,0.0,0.0,0.0,0.0,-2.6213,-2.6008,-2.5287,-2.4731,-2.444,-2.4287,-2.3773,-2.3921,-2.4266,0.0,0.0,0.0,0.0,0.0,0.0,0.0,0.0,0.0,0.0,-2.5858,-2.6258,-2.7621,-2.8546,-2.9179,0.0,0.0,0.0,0.0,0.0,0.0,0.0,0.0,0.0,0.0,-3.0759,-3.1048,-3.1617,-3.1204,-3.1281,-3.1823,-3.1404,-3.1884,-3.3085,-3.1782,0.0,0.0,0.0,0.0,0.0,0.0,0.0,0.0,0.0,0.0,0.0,-2.76,-2.7484,0.0,0.0,0.0,0.0,0.0,0.0,0.0,0.0,-2.3841,-2.3547,-2.4662,0.0,-2.5134,-2.5661,-2.6172,-2.6499,0.0,-2.6499,-2.6499,-2.6499,-2.6499,-2.6625,-2.7052,-2.6788,-2.7062,-2.8807,-2.9302,-2.9822,-3.0831,-3.0834,0.0,-2.9876,-2.9809,-3.0014,0.0,0.0,0.0,0.0,0.0,0.0,0.0,-2.7709,-2.6916,-2.6602,-2.5615,-2.5307,-2.5839,-2.5689,-2.5615,-2.5615,-2.5232,-2.5337,-2.5824,-2.548,0.0,0.0,0.0,0.0,-2.5561,-2.5217,-2.4957,-2.4709,-2.4088,-2.3831,-2.3773,-2.3638,-2.3681,-2.3773,0.0,0.0,0.0,0.0,0.0,0.0,0.0,0.0,0.0,0.0,0.0,0.0,0.0,0.0,0.0,0.0,0.0,0.0,0.0,0.0,0.0,0.0,0.0,0.0,-3.1291,-3.1237,-3.1393,-3.1802,-3.1393,-3.1393,-3.1802,-3.1396,-3.1799,-3.2848,-3.2053,0.0,0.0,0.0,0.0,0.0,0.0,0.0,0.0,0.0,0.0,0.0,-2.76,-2.76,0.0,-2.76,-2.7331,-2.7008,0.0,0.0,0.0,0.0,-2.4184,-2.3634,-2.428,-2.46,-2.5008,-2.5799,-2.626,-2.6499,-2.6499,-2.6499,-2.6499,-2.6499,-2.6499,-2.6587,-2.6889,-2.67,-2.6936,-2.8289,-2.8488,-2.8826,0.0,0.0,-2.9228,-2.904,-2.9002,0.0,0.0,0.0,0.0,0.0,0.0,0.0,0.0,-2.7156,-2.6318,-2.5704,-2.4978,-2.4769,-2.5128,-2.4852,-2.4687,-2.4687,-2.4634,-2.4784,-2.5128,-2.5083,-2.5083,0.0,0.0,0.0,-2.4687,-2.4619,-2.4425,-2.4118,-2.3744,-2.3595,-2.3595,-2.3595,-2.3595,-2.3595,0.0,0.0,0.0,0.0,0.0,0.0,0.0,0.0,0.0,0.0,0.0,0.0,0.0,0.0,0.0,0.0,0.0,0.0,0.0,0.0,0.0,0.0,0.0,-3.0615,-3.1343,-3.1258,-3.1309,-3.1529,-3.1309,-3.1258,-3.136,-3.136,-3.1701,-3.2293,-3.2412,-3.2073,0.0,0.0,0.0,0.0,0.0,0.0,0.0,0.0,0.0,0.0,0.0,0.0,0.0,-2.76,-2.76,-2.76,-2.76,0.0,0.0,0.0,0.0,0.0,-2.4079,-2.4469,-2.5059,-2.6109,-2.6361,-2.6361,-2.6361,-2.6298,-2.6273,-2.6348,-2.6361,-2.6411,-2.6587,-2.6612,-2.6776,-2.7241,0.0,0.0,-2.8226,-2.825,-2.8318,-2.8578,-2.8538,0.0,0.0,0.0,0.0,0.0,0.0,0.0,0.0,-2.651,-2.5631,-2.4498,-2.4365,-2.435,-2.4455,-2.3872,-2.3595,-2.361,-2.4171,-2.4455,-2.447,-2.5046,-2.4978,0.0,0.0,0.0,-2.364,-2.4201,-2.4096,-2.3595,-2.3595,-2.3595,-2.3595,-2.3595,-2.3595,-2.3595,0.0,0.0,0.0,0.0,0.0,0.0,0.0,0.0,0.0,0.0,0.0,0.0,0.0,0.0,0.0,0.0,0.0,0.0,0.0,0.0,0.0,0.0,-3.1816,-3.1376,-3.2124,-3.1532,-3.1799,-3.3068,-3.1799,-3.1532,-3.2141,-3.2141,-3.2192,-3.2327,-3.2949,-3.2814,-3.2141,0.0,0.0,0.0,0.0,0.0,0.0,0.0,0.0,0.0,0.0,0.0,0.0,-2.76,-2.76,-2.76,-2.76,0.0,0.0,0.0,0.0,0.0,-2.4412,-2.4725,-2.4938,-2.5573,-2.5724,-2.5724,-2.5724,-2.5385,-2.5197,-2.5636,-2.5724,-2.6025,-2.7014,-2.719,-2.718,-2.7304,0.0,-2.681,0.0,0.0,-2.6837,-2.6884,0.0,0.0,0.0,0.0,0.0,0.0,0.0,0.0,0.0,-2.4383,-2.3989,-2.3838,-2.3287,-2.3237,-2.3759,-2.3655,-2.3595,-2.3595,-2.3699,-2.3759,-2.3759,-2.3864,-2.3849,0.0,0.0,-2.3789,-2.361,-2.3714,-2.3684,-2.3595,-2.3595,-2.3595,-2.3595,-2.3595,-2.3595,-2.3595,0.0,0.0,0.0,0.0,0.0,0.0,0.0,0.0,0.0,0.0,0.0,0.0,0.0,0.0,0.0,0.0,0.0,0.0,0.0,0.0,0.0,-3.2571,-3.2336,-3.2066,-3.1701,-3.136,-3.1529,-3.2205,-3.1529,-3.136,-3.1718,-3.2107,-3.2513,-3.2899,-3.3254,-3.322,-3.2916,-3.3326,0.0,0.0,0.0,0.0,0.0,0.0,0.0,0.0,0.0,0.0,0.0,0.0,-2.76,-2.76,-2.76,0.0,0.0,0.0,0.0,0.0,-2.3735,-2.4111,-2.4506,-2.5046,-2.5624,-2.6097,-2.6097,-2.5921,-2.5774,-2.6047,-2.6097,-2.626,-2.6776,-2.7115,-2.7281,-2.7281,0.0,-2.6927,-2.6876,-2.665,-2.6386,0.0,0.0,0.0,0.0,0.0,0.0,0.0,0.0,0.0,0.0,0.0,-2.3122,-2.3155,-2.2853,-2.2987,-2.3595,-2.3595,-2.3595,-2.3595,-2.3595,-2.3595,-2.3595,-2.3595,-2.3595,-2.3595,0.0,-2.3595,-2.3595,-2.3595,-2.3595,-2.3595,-2.3595,-2.3595,-2.3595,-2.3595,-2.3595,-2.3595,0.0,0.0,0.0,0.0,0.0,0.0,0.0,0.0,0.0,0.0,0.0,0.0,0.0,0.0,0.0,0.0,0.0,0.0,0.0,0.0,-3.3917,-3.2172,-3.2747,-3.2488,-3.1227,-3.119,-3.1275,-3.1464,-3.1275,-3.1376,-3.1732,-3.2273,-3.2949,-3.366,-3.366,-3.366,-3.3694,-3.4252,-3.459,0.0,0.0,0.0,0.0,0.0,0.0,0.0,0.0,0.0,0.0,0.0,0.0,0.0,0.0,0.0,0.0,-2.5398,-2.4323,-2.3133,-2.3271,-2.3665,-2.413,-2.4682,-2.536,-2.5984,-2.6235,-2.6097,-2.5996,-2.6235,-2.6298,-2.6336,-2.6461,-2.6839,0.0,-2.7291,-2.7168,-2.6927,-2.6373,-2.6298,0.0,0.0,0.0,0.0,0.0,0.0,0.0,0.0,0.0,0.0,0.0,0.0,-2.2226,-2.2235,-2.2244,-2.2543,-2.315,-2.3319,-2.3465,-2.3595,-2.3595,-2.3595,-2.3595,-2.3595,-2.3595,-2.3595,-2.3595,-2.3595,-2.3595,-2.3595,-2.3595,-2.3595,-2.3595,-2.3595,-2.3595,-2.3595,-2.3595,-2.3595,0.0,0.0,0.0,0.0,0.0,0.0,0.0,0.0,0.0,0.0,0.0,0.0,0.0,0.0,0.0,0.0,0.0,0.0,0.0,0.0,-3.3992,-3.2954,-3.3024,-3.2488,-3.1227,-3.119,-3.1549,-3.2226,-3.1549,-3.1901,-3.3254,-3.3305,-3.3711,-3.4421,-3.4421,-3.4421,-3.4421,-3.4472,-3.4895,-3.5464,0.0,0.0,0.0,0.0,0.0,0.0,0.0,0.0,0.0,0.0,0.0,0.0,0.0,0.0,-2.5398,-2.5398,-2.4323,-2.3221,-2.3791,-2.3966,-2.413,-2.4682,-2.4494,-2.4431,-2.5435,-2.4883,-2.4456,-2.5448,-2.5649,-2.5858,-2.6399,-2.6524,-2.6725,-2.7241,-2.6889,-2.6348,-2.5737,0.0,0.0,0.0,0.0,0.0,0.0,0.0,0.0,0.0,0.0,0.0,0.0,0.0,0.0,-2.0932,-2.0944,-2.1234,-2.1815,-2.2438,-2.3046,-2.3595,-2.3595,-2.3595,-2.3595,-2.3595,-2.3595,-2.3595,-2.3595,-2.3595,-2.3595,-2.3595,-2.3595,-2.3595,-2.3595,-2.3595,-2.3595,-2.3595,-2.3595,-2.3595,0.0,0.0,0.0,0.0,0.0,0.0,0.0,0.0,0.0,0.0,0.0,0.0,0.0,0.0,0.0,0.0,0.0,0.0,0.0,0.0,-3.428,-3.316,-3.3352,-3.2878,-3.1601,-3.1332,-3.1345,-3.1633,-3.1802,-3.2391,-3.3423,-3.388,-3.4489,-3.5177,-3.5177,-3.5177,-3.5177,-3.5177,-3.5346,-3.5566,-3.5295,0.0,0.0,0.0,0.0,0.0,0.0,0.0,0.0,0.0,-2.76,-2.76,-2.76,-2.6338,-2.4831,-2.4831,-2.3545,-2.2234,-2.2799,-2.2949,-2.3175,-2.4079,-2.3879,-2.381,-2.5272,-2.5285,-2.5209,-2.6009,-2.6172,-2.6235,0.0,0.0,-2.6021,-2.6201,-2.5787,-2.536,0.0,0.0,0.0,0.0,0.0,0.0,0.0,0.0,0.0,0.0,0.0,0.0,0.0,0.0,0.0,-2.0784,-2.0795,-2.1088,-2.1697,-2.1946,-2.2179,-2.2409,-2.2838,-2.3246,-2.3595,-2.3209,-2.3246,-2.3595,-2.3595,-2.3595,-2.3595,-2.3595,-2.3595,-2.3595,-2.3595,-2.3595,-2.3595,-2.3595,-2.3595,-2.3595,0.0,0.0,0.0,0.0,0.0,0.0,0.0,0.0,0.0,0.0,0.0,0.0,0.0,0.0,0.0,0.0,0.0,0.0,0.0,-3.3867,-3.4081,-3.2871,-3.3401,-3.309,-3.1842,-3.1411,-3.119,-3.119,-3.1718,-3.2581,-3.3744,-3.4032,-3.4675,-3.5583,-3.5346,-3.538,-3.5566,-3.5092,-3.516,-3.5583,-3.5346,-3.4269,0.0,0.0,0.0,0.0,0.0,0.0,0.0,0.0,-2.7285,-2.7215,-2.6817,-2.5678,-2.4403,-2.4012,-2.2877,-2.1832,-2.2209,-2.2406,-2.2732,-2.354,-2.3396,-2.3446,-2.4795,-2.5222,-2.5561,-2.6336,-2.6348,-2.6223,-2.6223,0.0,0.0,0.0,-2.5059,0.0,0.0,0.0,0.0,0.0,0.0,0.0,0.0,0.0,0.0,0.0,0.0,0.0,0.0,0.0,0.0,0.0,-2.0472,-2.067,-2.111,-2.1304,-2.1414,-2.1424,-2.188,-2.2521,-2.3312,-2.2875,-2.2934,-2.3334,-2.3508,-2.3486,-2.3312,-2.3312,-2.3312,-2.3319,-2.353,-2.3595,-2.3595,-2.3595,-2.3595,-2.3595,0.0,0.0,0.0,0.0,0.0,0.0,0.0,0.0,0.0,0.0,0.0,0.0,0.0,0.0,0.0,0.0,0.0,0.0,-3.2528,-3.333,-3.3241,-3.2047,-3.3082,-3.309,-3.1825,-3.1428,-3.1207,-3.1207,-3.1207,-3.2341,-3.4472,-3.3761,-3.418,-3.5549,-3.4827,-3.4912,-3.5481,-3.4011,-3.423,-3.5515,-3.4793,-3.4049,0.0,0.0,0.0,0.0,0.0,0.0,0.0,0.0,-2.6602,-2.6385,-2.5131,0.0,0.0,-2.2964,-2.245,-2.2297,-2.2297,-2.2681,-2.3095,-2.3108,-2.3108,-2.3258,-2.3866,-2.4418,-2.5134,-2.626,-2.6,-2.5586,-2.5586,-2.5126,0.0,-2.4775,0.0,0.0,0.0,0.0,0.0,0.0,0.0,0.0,0.0,0.0,0.0,0.0,0.0,0.0,0.0,0.0,0.0,0.0,-1.9798,-1.9798,-1.9798,-2.0446,-2.0795,-2.0795,-2.0795,-2.1465,-2.2694,-2.2672,-2.2672,-2.2717,-2.3334,-2.3246,-2.2694,-2.2694,-2.2694,-2.274,-2.3355,-2.3595,-2.3595,-2.3595,-2.3595,-2.3595,0.0,0.0,0.0,0.0,0.0,0.0,0.0,0.0,0.0,0.0,0.0,0.0,0.0,0.0,0.0,0.0,0.0,0.0,0.0,-3.1984,-3.2195,-3.2406,-3.2153,-3.2099,-3.2281,-3.2078,-3.1972,-3.1972,-3.2493,-3.3085,-3.3744,-3.4551,-3.4619,-3.4083,-3.437,-3.4336,-3.4011,-3.3592,-3.366,-3.4083,-3.437,-3.3766,0.0,0.0,0.0,0.0,0.0,0.0,0.0,0.0,0.0,0.0,-2.6287,0.0,-2.4251,-2.3012,-2.1957,-2.127,-2.1631,-2.1845,-2.2171,-2.2907,-2.3108,-2.3094,-2.3096,-2.3979,-2.4845,-2.492,-2.5317,-2.5182,-2.3815,-2.3936,0.0,0.0,0.0,0.0,0.0,0.0,0.0,0.0,0.0,0.0,0.0,0.0,0.0,0.0,0.0,0.0,0.0,0.0,0.0,0.0,-1.9798,-1.9798,-1.9798,-2.0003,-2.0105,-2.0105,-2.0105,-2.0769,-2.1969,-2.1547,-2.1595,-2.2016,-2.268,-2.2612,-2.2016,-2.2498,-2.2429,-2.2077,-2.2703,-2.2965,-2.2965,-2.2965,-2.2965,-2.3046,0.0,0.0,0.0,0.0,0.0,0.0,0.0,0.0,0.0,0.0,0.0,0.0,0.0,0.0,0.0,0.0,0.0,0.0,0.0,0.0,-3.1623,-3.21,-3.1909,-3.1982,-3.2421,-3.2627,-3.2865,-3.3173,-3.3017,-3.3254,-3.3846,-3.415,-3.3981,-3.3406,-3.3558,-3.3541,-3.3372,-3.278,-3.2865,-3.3406,-3.3558,-3.3089,-3.2283,0.0,0.0,0.0,0.0,0.0,0.0,0.0,0.0,0.0,-2.6135,-2.5239,-2.4265,-2.3004,-2.2035,-2.1421,-2.1732,-2.197,-2.2297,-2.2945,-2.2854,-2.2548,-2.2242,-2.2989,-2.3697,-2.3498,-2.3708,-2.3553,-2.24,-2.2452,0.0,0.0,0.0,0.0,0.0,0.0,0.0,0.0,0.0,0.0,0.0,0.0,0.0,0.0,0.0,0.0,0.0,0.0,0.0,0.0,-1.9597,-1.9497,-1.9497,-1.9271,-1.9171,-1.9171,-1.9397,-1.9886,-2.062,-2.0764,-2.1004,-2.1366,-2.1762,-2.1714,-2.139,-2.2044,-2.1913,-2.1414,-2.2053,-2.23,-2.23,-2.23,-2.23,-2.2346,0.0,0.0,0.0,0.0,0.0,0.0,0.0,0.0,0.0,0.0,0.0,0.0,0.0,0.0,0.0,0.0,0.0,0.0,0.0,0.0,-3.1433,-3.1507,-3.2214,-3.2598,-3.2564,-3.3173,-3.3829,-3.4489,-3.3089,-3.3089,-3.437,-3.3038,-3.2679,-3.3169,-3.2581,-3.2628,-3.3119,-3.1765,-3.1968,-3.3152,-3.2547,-3.2259,-3.2148,-3.167,0.0,0.0,0.0,0.0,0.0,0.0,0.0,0.0,-2.5179,-2.468,-2.4323,-2.2964,-2.2463,-2.2309,-2.2309,-2.2644,-2.3015,-2.2992,-2.2322,-2.1588,-2.1293,-2.1498,-2.1811,-2.1968,0.0,-2.1306,-2.1162,-2.0781,0.0,0.0,0.0,0.0,0.0,0.0,0.0,0.0,0.0,0.0,0.0,0.0,0.0,0.0,0.0,0.0,0.0,0.0,0.0,-1.9736,-1.9208,-1.8933,-1.8933,-1.8455,-1.8204,0.0,-1.8694,-1.8933,-1.897,-2.011,-2.068,-2.0729,-2.0695,-2.0746,-2.0845,-2.139,-2.1269,-2.0771,-2.139,-2.1615,-2.1615,-2.1615,-2.1615,-2.1639,0.0,0.0,0.0,0.0,0.0,0.0,0.0,0.0,0.0,0.0,0.0,0.0,0.0,0.0,0.0,0.0,0.0,0.0,0.0,0.0,-3.1678,-3.2307,-3.3006,-3.3774,-3.4651,-3.4385,-3.4336,-3.4489,-3.3592,-3.3339,-3.3626,-3.3322,-3.2628,-3.1681,-3.2107,-3.2073,-3.1647,-3.1326,-3.1376,-3.1715,-3.2141,-3.1955,-3.1495,-3.1952,-3.1275,0.0,0.0,0.0,0.0,0.0,0.0,0.0,-2.5759,-2.5279,-2.4847,-2.299,-2.238,-2.2309,-2.2309,-2.2368,-2.2409,-2.2213,-2.1005,-1.9846,-1.9789,-1.9058,-1.8824,-2.0254,-2.0732,-2.0571,-1.9415,-1.9401,0.0,0.0,0.0,0.0,0.0,0.0,0.0,0.0,0.0,0.0,0.0,0.0,0.0,0.0,0.0,0.0,0.0,0.0,0.0,-1.9171,-1.8644,-1.8356,-1.8356,-1.8267,-1.8204,0.0,-1.8329,-1.8356,-1.8405,-1.9092,-1.9664,-2.0173,-2.0052,-2.0295,-2.0795,-2.093,-2.0622,-2.008,-2.0733,-2.1004,-2.1004,-2.1004,-2.1004,-2.1077,0.0,0.0,0.0,0.0,0.0,0.0,0.0,0.0,0.0,0.0,0.0,0.0,0.0,0.0,0.0,0.0,0.0,0.0,0.0,0.0,-3.2426,-3.3417,-3.388,-3.432,-3.4757,-3.4584,0.0,-3.3964,-3.322,-3.2865,-3.2865,-3.2865,-3.2459,-3.1752,-3.2141,-3.209,-3.1701,-3.1343,-3.119,-3.1224,-3.1633,-3.1529,-3.1241,-3.1633,-3.1156,-3.023,-2.9607,0.0,0.0,0.0,0.0,0.0,0.0,0.0,-2.5081,-2.3459,-2.2852,-2.2619,-2.2355,-2.2204,-2.1868,-2.0905,-1.9977,-1.9147,-1.8522,-1.7892,-1.7606,-1.8319,-1.8665,-1.8606,-1.7838,0.0,0.0,0.0,0.0,0.0,0.0,0.0,0.0,0.0,0.0,0.0,0.0,0.0,0.0,0.0,0.0,0.0,0.0,-1.8781,-1.8607,-1.8607,-1.8103,-1.7815,-1.7815,-1.7539,-1.74,-1.7378,-1.7677,-1.7815,-1.7827,-1.8356,-1.8811,-1.9158,-1.9332,-1.9623,-1.996,-2.0218,-2.0131,-1.9824,-2.0169,-2.0321,-2.0321,-2.0321,-2.0321,-2.0371,0.0,0.0,0.0,0.0,0.0,0.0,0.0,0.0,0.0,0.0,0.0,0.0,0.0,0.0,0.0,0.0,0.0,0.0,0.0,-3.2357,-3.3282,-3.4352,-3.4476,0.0,0.0,0.0,0.0,-3.322,-3.2615,-3.2293,-3.2293,-3.2175,-3.2175,-3.2293,-3.2175,-3.2107,-3.2073,-3.1464,-3.119,-3.119,-3.119,-3.119,-3.119,-3.119,-3.0878,-3.0393,-2.9761,-2.9157,-2.8559,-2.7944,0.0,0.0,0.0,0.0,-2.4995,-2.3748,-2.3196,-2.2854,-2.2326,-2.1956,-2.1339,-1.9684,-1.9282,-1.8942,-1.7602,-1.7275,-1.7148,-1.6677,-1.659,-1.659,-1.659,0.0,0.0,0.0,0.0,0.0,0.0,0.0,0.0,0.0,0.0,0.0,0.0,0.0,0.0,0.0,0.0,0.0,-1.8049,-1.8069,-1.8066,-1.8066,-1.7526,-1.7237,-1.7237,-1.676,-1.65,-1.65,-1.6999,-1.7237,-1.725,-1.7702,-1.7965,-1.8091,-1.8619,-1.8857,-1.8895,-1.9346,-1.9522,-1.9535,-1.9635,-1.966,-1.9673,-1.9773,-1.9798,-1.9798,0.0,0.0,0.0,0.0,0.0,0.0,0.0,0.0,0.0,0.0,-3.322,-3.3366,-3.2674,-3.2491,0.0,0.0,0.0,0.0,-3.2381,0.0,0.0,-3.437,0.0,0.0,0.0,0.0,0.0,-3.2446,-3.2344,-3.2293,-3.2293,-3.165,-3.1701,-3.2276,-3.1613,-3.1343,-3.1326,-3.1241,-3.119,-3.119,-3.119,-3.119,-3.119,-3.119,-3.1151,-3.0995,-3.0393,-2.9783,-2.918,-2.8567,-2.7661,0.0,0.0,0.0,-2.4357,-2.2963,-2.2535,-2.2367,-2.1774,-2.1353,-2.0786,-1.9475,-1.9199,-1.8859,-1.7184,-1.6785,-1.6689,0.0,-1.6183,-1.6183,0.0,0.0,0.0,0.0,0.0,0.0,0.0,0.0,0.0,0.0,0.0,0.0,0.0,0.0,0.0,0.0,0.0,0.0,-1.7436,-1.7472,-1.7511,-1.7511,-1.6936,-1.6613,-1.6613,-1.6538,-1.65,-1.65,-1.6575,-1.6613,-1.6613,-1.6688,-1.7011,-1.7549,-1.8078,-1.8317,-1.8317,-1.8392,-1.8417,-1.8468,-1.892,-1.9108,-1.9158,-1.9635,-1.9798,-1.9798,0.0,0.0,0.0,0.0,0.0,0.0,0.0,0.0,0.0,0.0,0.0,-3.2986,-3.2638,-3.1794,0.0,0.0,0.0,0.0,-3.1861,-3.2265,0.0,0.0,0.0,0.0,0.0,0.0,-3.2002,-3.1684,-3.0855,-3.1312,-3.2899,-3.2175,-3.2429,-3.3529,-3.3186,-3.2814,-3.2374,-3.1546,-3.119,-3.119,-3.119,-3.119,-3.119,-3.119,-3.0937,-3.0487,-2.9904,-2.9051,-2.8136,-2.7524,-2.674,-2.5926,-2.5215,0.0,0.0,0.0,-2.2205,-2.2173,-2.1066,-2.0665,-2.0217,-1.8747,-1.8405,-1.8102,-1.6681,-1.6357,-1.623,-1.5791,-1.5693,-1.5693,0.0,0.0,0.0,0.0,0.0,0.0,0.0,0.0,0.0,0.0,0.0,0.0,0.0,0.0,0.0,0.0,0.0,-1.6358,-1.6358,-1.67,-1.6898,-1.6898,-1.6647,-1.65,-1.65,-1.65,-1.65,-1.65,-1.65,-1.65,-1.65,-1.65,-1.6638,-1.6936,-1.7501,-1.7739,-1.7765,-1.8078,-1.8204,-1.8254,-1.8795,-1.882,-1.8607,-1.9146,-1.9146,-1.8907,0.0,0.0,0.0,0.0,0.0,0.0,0.0,0.0,0.0,0.0,0.0,0.0,-3.2601,0.0,0.0,0.0,0.0,0.0,-3.1054,0.0,0.0,0.0,0.0,0.0,0.0,0.0,-3.092,-3.092,-2.982,-3.0683,-3.3389,-3.3017,-3.3563,-3.4776,-3.4573,-3.3981,-3.3051,-3.1935,-3.1481,-3.1464,-3.1275,-3.119,-3.119,-3.119,-3.0852,-3.0304,-2.9662,-2.8719,-2.766,-2.6891,-2.6157,-2.5439,-2.4799,-2.4454,0.0,0.0,0.0,-2.1705,-2.044,-2.0225,-1.9973,-1.8401,-1.8068,-1.7786,-1.6487,0.0,-1.5968,0.0,-1.541,0.0,0.0,0.0,0.0,0.0,0.0,0.0,0.0,0.0,0.0,0.0,0.0,0.0,0.0,0.0,0.0,0.0,0.0,-1.5129,-1.5129,-1.5876,-1.6259,-1.6259,-1.6423,-1.65,-1.65,-1.65,-1.65,-1.65,-1.65,-1.65,-1.65,-1.65,-1.65,-1.6525,-1.6974,-1.7162,-1.7187,-1.7601,-1.7777,-1.7827,-1.8368,-1.8355,-1.8066,-1.8594,-1.8531,-1.8204,0.0,0.0,0.0,0.0,0.0,0.0,0.0,0.0,0.0,0.0,0.0,0.0,-3.2601,0.0,0.0,0.0,0.0,0.0,0.0,0.0,0.0,0.0,0.0,0.0,0.0,-3.0387,-3.0176,-3.0176,-3.0072,-3.1207,-3.3423,-3.4083,-3.4793,-3.5498,-3.481,-3.3715,-3.2344,-3.2276,-3.2242,-3.2192,-3.1481,-3.119,-3.119,-3.119,-3.1173,-3.1055,-3.0306,-2.9641,-2.8903,-2.7665,-2.6446,-2.5312,-2.4762,-2.4149,-2.3532,0.0,0.0,0.0,-2.0003,-2.0235,-2.0349,-1.8982,-1.8834,-1.857,-1.6866,0.0,-1.5968,-1.5498,-1.541,0.0,0.0,0.0,0.0,0.0,0.0,0.0,0.0,0.0,0.0,0.0,0.0,0.0,0.0,0.0,0.0,0.0,0.0,-1.3886,-1.3886,-1.5016,-1.5654,-1.5654,-1.6194,-1.65,-1.65,-1.65,-1.65,-1.65,-1.65,-1.65,-1.65,-1.65,-1.65,-1.65,-1.6525,-1.6538,-1.6538,-1.6575,-1.6588,-1.6638,-1.7237,-1.7473,-1.7511,-1.8041,-1.8229,-1.8204,0.0,0.0,0.0,0.0,0.0,0.0,0.0,0.0,0.0,0.0,0.0,0.0,0.0,-3.2913,-3.2362,-3.1794,-3.0797,0.0,0.0,0.0,0.0,0.0,0.0,0.0,0.0,-3.008,-2.9634,-3.0108,-2.9108,-2.9768,-3.2002,-3.273,-3.3241,-3.3508,-3.4201,-3.3931,-3.2933,-3.2005,-3.1599,-3.1582,-3.1309,-3.119,-3.119,-3.119,-3.0903,-3.0463,-3.0192,-2.9448,-2.8425,-2.7582,-2.6477,-2.5358,-2.4791,-2.4141,-2.3384,-2.2354,-2.1452,-2.0646,-1.9978,-1.971,-1.9456,-1.885,-1.8147,-1.7429,-1.6662,-1.6052,-1.5596,-1.5439,-1.541,0.0,0.0,0.0,0.0,0.0,0.0,0.0,0.0,0.0,0.0,0.0,0.0,0.0,0.0,0.0,0.0,0.0,0.0,0.0,-1.3792,-1.4572,-1.5208,-1.5588,-1.582,-1.5908,-1.5908,-1.6315,-1.6315,-1.593,-1.6303,-1.65,-1.65,-1.65,-1.65,-1.65,-1.65,-1.65,-1.65,-1.65,-1.65,-1.655,-1.7149,-1.7149,-1.6898,-1.7463,-1.7438,-1.7102,0.0,0.0,0.0,0.0,0.0,0.0,0.0,0.0,0.0,-3.3752,0.0,0.0,0.0,0.0,-3.2894,-3.2619,-3.1384,-3.0595,-3.0595,0.0,0.0,0.0,0.0,0.0,0.0,-2.9842,-2.9247,-2.9736,-2.8704,-2.911,-3.0852,-3.1599,-3.2056,-3.2327,-3.2797,-3.3034,-3.2966,-3.1985,-3.1582,-3.1565,-3.1292,-3.119,-3.119,-3.119,-3.0903,-3.0446,-3.0192,-2.9563,0.0,0.0,0.0,-2.5639,-2.4858,-2.4141,-2.3384,-2.2354,-2.1748,-2.1248,-2.0371,-1.9876,-1.9535,-1.9169,-1.8242,-1.7337,-1.6959,-1.6312,-1.569,-1.5439,-1.541,0.0,0.0,0.0,0.0,0.0,0.0,0.0,0.0,0.0,0.0,0.0,0.0,0.0,0.0,0.0,0.0,0.0,0.0,0.0,-1.3505,-1.4084,-1.4675,-1.5276,-1.5298,-1.5298,-1.5298,-1.57,-1.5688,-1.5298,-1.5908,-1.6194,-1.6194,-1.6402,-1.65,-1.65,-1.65,-1.65,-1.65,-1.65,-1.65,-1.6538,-1.6936,-1.6861,-1.6538,-1.6948,-1.6848,-1.65,0.0,0.0,0.0,0.0,0.0,0.0,0.0,0.0,-3.2868,-3.3683,0.0,0.0,0.0,0.0,0.0,-3.2693,-3.1898,-3.1433,-3.1433,-3.1415,0.0,0.0,0.0,0.0,-3.0734,-2.962,-2.9027,-2.9027,-2.9027,-2.9416,-3.0125,-3.0852,-3.1582,-3.2175,-3.0734,-3.0886,-3.2192,-3.2226,-3.2242,-3.2209,-3.1478,-3.119,-3.119,-3.119,-3.119,-3.1106,-3.0395,-3.0123,0.0,-2.7993,0.0,0.0,-2.4954,-2.4141,-2.3486,-2.2875,-2.2694,-2.2443,0.0,0.0,0.0,-1.9978,0.0,0.0,-1.7763,0.0,-1.6273,-1.5565,-1.5391,0.0,0.0,0.0,0.0,0.0,0.0,0.0,0.0,0.0,0.0,0.0,0.0,0.0,0.0,0.0,0.0,0.0,0.0,-1.2915,-1.2905,-1.3457,-1.4073,-1.4652,-1.4686,-1.4686,-1.4675,-1.4686,-1.4698,-1.4698,-1.532,-1.561,-1.5654,-1.6238,-1.65,-1.65,-1.65,-1.65,-1.65,-1.65,-1.65,-1.65,-1.65,-1.65,-1.65,-1.65,-1.65,-1.65,0.0,0.0,0.0,0.0,0.0,-3.3319,-3.3057,-3.2741,-3.2732,0.0,0.0,0.0,-3.3817,-3.3807,-3.3715,-3.3495,-3.2742,-3.2284,-3.2284,-3.1715,-3.1579,-3.1975,-3.1538,-3.1351,-3.1478,-3.0387,-2.9803,-2.9803,-2.9803,-2.9905,-3.0125,-3.0852,-3.1021,-3.0683,-3.0294,-3.0023,-2.9958,-3.048,-3.1021,-3.1478,-3.1275,-3.119,0.0,0.0,0.0,0.0,0.0,-3.0903,-3.0679,0.0,-2.8356,-2.7439,-2.5279,-2.4141,-2.3486,-2.2875,-2.2694,-2.2535,-2.1677,0.0,0.0,0.0,0.0,0.0,0.0,0.0,-1.588,-1.5787,0.0,0.0,0.0,0.0,0.0,0.0,0.0,0.0,0.0,0.0,0.0,0.0,0.0,0.0,0.0,0.0,0.0,0.0,-1.3398,-1.3203,-1.2925,-1.3457,-1.3886,-1.405,-1.4468,-1.4491,-1.405,-1.4468,-1.4698,-1.4698,-1.532,-1.582,-1.6259,-1.6423,-1.65,-1.65,-1.65,-1.65,-1.65,-1.65,-1.65,-1.65,-1.65,-1.65,-1.65,-1.65,-1.65,-1.65,0.0,0.0,0.0,0.0,-3.2662,-3.2836,-3.2284,-3.2366,-3.2599,0.0,0.0,0.0,-3.3294,-3.3713,-3.3887,-3.3587,-3.3273,-3.3096,-3.3096,-3.2501,-3.2168,-3.2207,-3.1762,-3.1516,-3.1547,-3.0615,-3.0108,-3.0108,-3.0108,-2.9939,-2.9651,-3.0074,-3.004,-2.96,-2.8975,-2.8789,-2.901,-2.911,-2.977,-3.0768,-3.1072,0.0,0.0,-3.119,-3.119,0.0,0.0,0.0,-3.1055,-3.0102,-2.9014,0.0,0.0,-2.4335,-2.3903,-2.3253,-2.3076,-2.2942,-2.2285,-2.1429,-2.0651,0.0,0.0,0.0,-1.817,-1.7409,0.0,0.0,0.0,0.0,0.0,0.0,0.0,0.0,0.0,0.0,0.0,0.0,0.0,0.0,0.0,0.0,0.0,0.0,0.0,-1.4043,-1.3711,-1.332,-1.2925,-1.3238,-1.342,-1.342,-1.3766,-1.3789,-1.342,-1.3766,-1.3954,-1.3954,-1.4549,-1.5163,-1.5766,-1.6008,-1.6259,-1.65,-1.65,-1.6358,-1.6139,-1.6402,-1.65,-1.65,-1.65,-1.65,-1.65,-1.65,-1.65,-1.65,0.0,0.0,-3.2865,-3.1546,-3.2209,-3.2684,-3.1976,-3.2144,-3.2437,0.0,-3.2644,-3.2625,-3.2625,-3.3504,-3.3833,-3.3178,-3.3447,-3.3666,-3.3666,-3.3317,-3.2903,-3.2451,-3.2022,-3.1621,-3.121,-3.0565,-3.0207,-3.0207,-3.0142,-2.977,-2.9128,-2.9044,-2.8959,-2.8807,-2.7418,-2.7554,-2.8705,-2.806,-2.8584,-2.992,-3.0734,-3.1123,0.0,0.0,-3.114,-3.1072,-3.1072,-3.1021,-3.0858,-3.0265,-2.886,0.0,0.0,0.0,0.0,-2.3861,-2.3638,-2.3486,-2.2957,-2.2323,-2.1673,0.0,0.0,0.0,-1.8818,-1.8297,-1.7696,0.0,0.0,0.0,0.0,0.0,0.0,0.0,0.0,0.0,0.0,0.0,0.0,0.0,0.0,0.0,-1.5381,-1.4689,-1.4387,-1.4756,-1.3994,-1.334,-1.2993,-1.2925,-1.2905,-1.2905,-1.2905,-1.2905,-1.2905,-1.2905,-1.292,-1.3017,-1.3552,-1.412,-1.4732,-1.5253,-1.5798,-1.6293,-1.6293,-1.603,-1.5632,-1.6107,-1.6337,-1.6402,-1.6466,-1.65,-1.65,-1.65,-1.65,-1.65,0.0,-3.2327,-3.2429,-3.2141,-3.2272,-3.2366,-3.223,-3.1764,-3.2027,-3.3578,-3.3546,-3.3421,-3.3472,-3.3097,-3.2776,-3.265,-3.2713,-3.2761,-3.2761,-3.2681,-3.2434,-3.1968,-3.1861,-3.1621,-3.121,-3.1055,-3.0987,-3.0987,-3.0395,-3.004,-2.9871,-2.9281,-2.8653,-2.801,-2.7722,-2.7435,-2.7182,-2.7604,0.0,-2.8365,-2.977,-3.0666,-3.119,-3.119,-3.0835,-3.0311,-3.0311,-2.9922,-2.9323,-2.8738,-2.7595,-2.6376,0.0,0.0,0.0,-2.4271,-2.3927,-2.3573,-2.3465,-2.2972,0.0,0.0,0.0,0.0,-1.9251,-1.8481,-1.7676,0.0,-1.5914,0.0,0.0,0.0,0.0,0.0,0.0,0.0,0.0,0.0,0.0,0.0,0.0,0.0,-1.5371,-1.5264,-1.5059,-1.4833,-1.3994,-1.3477,-1.3389,-1.3091,-1.2905,-1.2905,-1.2905,-1.2905,-1.2905,-1.2905,-1.3152,-1.3624,-1.3745,-1.412,-1.4698,-1.4812,-1.4949,-1.5039,-1.5039,-1.5265,-1.5565,-1.5197,-1.5332,-1.582,-1.6315,-1.65,-1.65,-1.65,-1.65,-1.65,-3.1684,-3.2056,-3.2192,-3.1819,-3.2056,-3.2293,-3.2293,-3.1989,-3.2221,-3.3587,-3.3606,-3.3227,-3.2537,-3.2632,-3.2599,-3.2196,-3.2349,-3.2501,-3.2501,-3.2282,-3.2057,-3.1825,-3.1621,-3.1411,-3.121,-3.119,-3.119,-3.119,-3.0835,-3.0649,-3.0615,-2.9517,-2.8812,-2.845,-2.7617,-2.7077,-2.6831,-2.7112,-2.7452,-2.7908,-2.9076,0.0,-3.0615,-3.0226,-3.0091,-3.0057,-2.9685,-2.9314,-2.892,-2.8288,-2.7689,0.0,0.0,-2.559,-2.4833,0.0,-2.4012,-2.3595,-2.3595,0.0,0.0,-2.2372,0.0,0.0,0.0,-1.9433,-1.8485,-1.8232,-1.693,-1.5787,0.0,0.0,0.0,0.0,0.0,0.0,0.0,0.0,0.0,0.0,0.0,0.0,-1.5732,-1.5732,-1.5498,-1.4862,-1.4394,-1.3965,-1.3525,-1.3311,-1.3096,-1.2915,-1.2905,-1.2905,-1.2905,-1.2905,-1.3065,-1.3348,-1.3348,-1.3671,-1.426,-1.426,-1.4422,-1.4698,-1.4698,-1.4698,-1.4698,-1.4698,-1.4698,-1.479,-1.571,-1.6051,-1.6095,-1.6402,-1.6315,-1.6051,-3.119,-3.1684,-3.1904,-3.1292,-3.1701,-3.2141,-3.2276,-3.2175,-3.2361,-3.3085,-3.344,-3.3102,-3.1765,-3.2481,-3.2835,-3.2161,-3.2318,-3.2458,-3.2458,-3.1966,-3.1678,-3.1678,-3.137,-3.119,-3.119,-3.119,-3.119,-3.119,-3.1055,-3.092,-3.0753,-2.9568,-2.899,-2.887,-2.7557,-2.7101,-2.7271,-2.6814,0.0,-2.7883,0.0,-2.9028,-2.982,-2.923,-2.9262,-2.9548,-2.8805,-2.8553,-2.8481,-2.7987,-2.7819,-2.7663,-2.6614,-2.5882,0.0,0.0,0.0,0.0,0.0,0.0,0.0,0.0,0.0,-2.1341,0.0,0.0,0.0,-1.9806,0.0,0.0,0.0,0.0,0.0,0.0,0.0,0.0,0.0,0.0,0.0,0.0,0.0,0.0,0.0,-1.5968,-1.5674,-1.4961,-1.4834,-1.4443,-1.3672,-1.3555,-1.3311,-1.2915,-1.2905,-1.2905,-1.2905,-1.2905,-1.2905,-1.2905,-1.2905,-1.3152,-1.3637,-1.3637,-1.3897,-1.434,-1.434,-1.4143,-1.3815,-1.4201,-1.4131,-1.3933,-1.5129,-1.5521,-1.5499,-1.6095,-1.5942,-1.5432,-3.119,-3.1258,-3.1292,-3.1207,-3.1258,-3.1565,-3.2209,-3.1752,-3.1579,-3.2327,-3.3563,-3.4066,-3.3237,-3.3262,-3.332,-3.3236,-3.2669,0.0,-3.2321,-3.1667,-3.1271,-3.1271,-3.123,-3.119,-3.119,-3.119,-3.119,-3.119,-3.0548,-2.9888,-2.9247,-2.9077,-2.8635,-2.7954,-2.7952,-2.8258,-2.8661,0.0,-2.6958,0.0,-2.6927,-2.7567,0.0,-2.9027,-2.8602,-2.7959,-2.7232,-2.6962,-2.6945,0.0,-2.686,-2.6843,0.0,-2.5987,-2.5201,-2.5121,0.0,0.0,0.0,0.0,0.0,0.0,-2.2988,0.0,0.0,0.0,-2.1126,-1.9523,0.0,0.0,0.0,0.0,0.0,0.0,0.0,0.0,0.0,0.0,0.0,0.0,0.0,0.0,0.0,0.0,-1.5449,-1.5352,-1.5,-1.457,-1.4065,-1.3685,-1.3311,-1.2915,-1.2905,-1.2905,-1.2905,-1.2905,-1.2905,-1.2905,-1.2905,-1.2954,-1.2992,-1.2992,-1.3041,-1.3113,-1.3113,-1.3372,-1.3755,-1.3286,-1.3372,-1.3933,-1.5129,-1.5276,-1.488,-1.5477,-1.532,-1.4789,-3.119,-3.119,-3.119,-3.119,-3.119,-3.1444,-3.2192,-3.2767,-3.3241,-3.3546,-3.3728,-3.3744,-3.344,-3.3017,-3.2933,-3.3372,-3.3119,-3.2767,0.0,0.0,-3.165,-3.1207,-3.119,-3.1004,-3.0581,-3.097,-3.0987,-3.0565,-3.0683,-3.0362,-2.9634,-2.9213,-2.8676,-2.8072,-2.7607,-2.7659,-2.8019,0.0,-2.6855,0.0,0.0,0.0,0.0,-2.723,-2.7121,-2.6678,-2.6043,-2.6034,-2.6262,0.0,-2.6034,0.0,0.0,0.0,0.0,0.0,0.0,0.0,0.0,0.0,0.0,0.0,0.0,0.0,-2.2845,0.0,-2.1189,0.0,0.0,0.0,0.0,0.0,0.0,0.0,0.0,0.0,0.0,0.0,0.0,0.0,0.0,0.0,0.0,0.0,0.0,0.0,0.0,-1.4853,-1.4143,-1.3938,-1.3564,-1.2925,-1.2905,-1.2905,-1.2905,-1.2905,-1.2905,-1.2905,-1.2905,-1.2905,-1.2905,-1.2905,-1.2905,-1.2905,-1.2905,-1.3041,-1.3262,-1.2992,-1.3065,-1.3348,-1.4226,-1.4411,-1.426,-1.4846,-1.4698,-1.4167,-3.0699,-3.0975,-3.119,-3.119,-3.119,-3.1444,-3.2192,-3.3372,-3.4269,-3.4472,-3.4218,-3.3994,-3.3994,-3.3525,-3.3423,-3.3964,-3.3829,-3.3474,0.0,0.0,-3.2158,-3.1816,-3.141,-3.1038,-3.0717,-3.1021,-3.0937,-3.0395,-3.0937,-3.0717,-2.9786,-2.9319,-2.8671,-2.7932,-2.7348,-2.729,-2.7654,0.0,-2.6954,-2.6836,-2.6791,-2.6057,-2.5102,-2.57,-2.586,-2.5726,-2.5335,-2.5449,-2.5726,-2.5335,-2.5449,0.0,-2.5316,0.0,0.0,0.0,0.0,0.0,-2.3664,0.0,0.0,0.0,0.0,0.0,0.0,0.0,0.0,0.0,0.0,0.0,0.0,0.0,0.0,0.0,0.0,0.0,0.0,0.0,0.0,0.0,0.0,0.0,0.0,0.0,0.0,0.0,0.0,0.0,-1.4153,-1.4104,-1.3724,-1.2935,-1.2905,-1.2905,-1.2905,-1.2905,-1.2905,-1.2905,-1.2905,-1.2905,-1.2905,-1.2905,-1.2905,-1.2905,-1.2905,-1.2905,-1.2905,-1.2905,-1.2905,-1.2954,-1.3372,-1.3552,-1.3624,-1.4236,-1.4084,-1.3552,-2.9451,-3.0393,-3.119,-3.119,-3.119,-3.1444,-3.2192,-3.2949,-3.3694,-3.4404,-3.5115,0.0,0.0,0.0,0.0,0.0,0.0,-3.4438,-3.4421,0.0,-3.2615,-3.3305,-3.1952,-3.1512,0.0,-3.1565,-3.119,-3.1157,-3.119,-3.0465,-2.9025,-2.921,-2.8524,-2.7158,-2.7379,-2.7825,-2.8297,-2.7109,-2.7324,-2.8247,-2.6401,-2.5242,-2.4664,0.0,-2.5237,-2.5221,-2.5221,0.0,0.0,-2.5221,-2.5221,0.0,0.0,0.0,0.0,0.0,0.0,0.0,0.0,0.0,0.0,-2.3295,0.0,0.0,0.0,0.0,-2.2473,0.0,0.0,0.0,0.0,0.0,0.0,0.0,0.0,0.0,0.0,0.0,0.0,0.0,0.0,0.0,0.0,0.0,0.0,0.0,0.0,0.0,-1.4153,-1.4104,-1.3724,-1.2935,-1.2905,-1.2905,-1.2905,-1.2905,-1.2905,-1.2905,-1.2905,-1.2905,-1.2905,-1.2905,-1.2905,-1.2905,-1.2905,-1.2905,-1.2905,-1.2905,-1.2905,-1.2905,-1.2929,-1.2929,-1.2992,-1.3624,-1.3443,-1.2929,-2.9406,-2.9717,-3.0016,-3.0016,-3.0016,-3.0396,-3.1523,-3.3093,-3.4032,0.0,-3.3998,0.0,0.0,-3.3711,-3.3812,0.0,0.0,-3.4489,-3.4489,-3.4037,0.0,-3.3406,-3.2933,-3.2324,0.0,-3.1819,-3.1444,-3.048,-3.0954,-3.0491,-2.9118,-2.8751,-2.7879,-2.6641,-2.6723,-2.6941,0.0,0.0,0.0,0.0,0.0,-2.5457,-2.5174,0.0,0.0,-2.4617,-2.4266,-2.4369,0.0,-2.4266,-2.4369,-2.4612,-2.4246,-2.4511,-2.4717,-2.359,-2.3219,0.0,0.0,0.0,-2.135,-2.2688,0.0,0.0,0.0,0.0,0.0,0.0,0.0,0.0,0.0,0.0,0.0,0.0,0.0,0.0,0.0,0.0,0.0,0.0,0.0,0.0,0.0,0.0,0.0,0.0,-1.541,0.0,0.0,-1.427,-1.3851,-1.3311,-1.3052,-1.2905,-1.2905,-1.2905,-1.2905,-1.2905,-1.2905,-1.2725,-1.2461,-1.2754,-1.2725,-1.2437,-1.2778,-1.2905,-1.2905,-1.2905,-1.2905,-1.2905,-1.2905,-1.2905,-1.2929,-1.3128,-1.3079,-1.2905,-2.8764,-2.8764,-2.8904,-2.9339,-2.9406,-2.9781,-3.0902,-3.2205,0.0,0.0,-3.2949,0.0,-3.3074,0.0,-3.2988,0.0,-3.3996,-3.4147,-3.4169,-3.4147,0.0,-3.418,-3.3672,0.0,-3.1683,-3.2073,-3.1483,-2.9838,-3.0543,-3.0177,-2.8865,-2.7989,-2.7025,-2.6059,-2.6106,-2.6175,-2.6303,-2.721,-2.7345,0.0,0.0,-2.5315,0.0,0.0,-2.3815,-2.4074,0.0,-2.3815,-2.4053,-2.3724,-2.3685,-2.3769,-2.3649,-2.3753,-2.3783,-2.2959,-2.2571,-2.2328,-2.1824,-2.1216,0.0,-2.2054,-2.1695,0.0,-2.2164,0.0,0.0,0.0,0.0,0.0,0.0,0.0,0.0,0.0,0.0,0.0,0.0,-1.9812,0.0,0.0,0.0,0.0,0.0,0.0,-1.541,-1.541,0.0,0.0,0.0,0.0,-1.3919,-1.3516,-1.3096,-1.2905,-1.2905,-1.2905,-1.2905,-1.2905,-1.2905,-1.2646,-1.2223,-1.2686,-1.2582,-1.2021,-1.2627,-1.2817,-1.2656,-1.2837,-1.2905,-1.2905,-1.2905,-1.2905,-1.2905,-1.2905,-1.2905,-1.2905,-2.76,-2.76,-2.7968,-2.9111,-2.9371,0.0,0.0,0.0,-3.0772,0.0,-3.201,-3.2385,-3.2352,-3.2871,-3.299,-3.2446,-3.2981,-3.3376,-3.3485,-3.3432,0.0,0.0,-3.4098,-3.3064,-3.2473,-3.2328,-3.134,-2.9454,-2.9973,-2.9593,-2.8279,-2.7102,-2.6156,-2.5453,-2.5591,0.0,-2.5749,-2.7046,-2.757,-2.7435,-2.6153,-2.4852,-2.3655,-2.3655,-2.3625,-2.3595,-2.3595,-2.3595,-2.3595,-2.3595,-2.3227,-2.2838,-2.337,-2.2712,-2.1859,-2.2433,-2.1695,-2.0823,-2.144,-2.1141,-2.0808,-2.1485,0.0,0.0,0.0,0.0,-2.1605,0.0,0.0,0.0,0.0,0.0,0.0,0.0,0.0,0.0,0.0,0.0,0.0,0.0,0.0,0.0,0.0,-1.5853,-1.5429,-1.5381,-1.54,0.0,0.0,0.0,-1.3929,-1.3555,-1.3105,-1.2905,-1.2905,-1.2905,-1.2905,-1.2905,-1.2905,-1.2646,-1.2223,-1.2686,-1.2436,-1.1685,-1.2533,-1.2646,-1.2272,-1.2715,-1.2905,-1.2905,-1.2905,-1.2905,-1.2905,-1.2905,-1.2905,-1.2905,-2.76,-2.76,-2.771,0.0,-2.889,-2.9445,0.0,0.0,0.0,0.0,-3.0567,-3.081,-3.0248,-3.0318,-3.0589,-3.0978,-3.1165,0.0,0.0,0.0,0.0,-3.2606,-3.2745,-3.2488,-3.1772,-3.1718,-3.1189,-3.0128,0.0,-2.922,-2.8428,-2.7611,-2.6888,-2.6292,0.0,-2.6333,-2.6393,-2.724,-2.7315,-2.6836,-2.6482,-2.554,0.0,0.0,-2.4022,-2.3595,-2.3595,-2.3595,-2.3595,-2.3595,-2.349,-2.331,-2.3032,-2.2718,-2.2283,-2.1455,-2.0957,-2.0613,-2.0288,-2.0079,-2.0109,-2.0797,-2.0587,-2.0333,0.0,0.0,0.0,0.0,0.0,0.0,0.0,0.0,0.0,0.0,0.0,0.0,0.0,0.0,0.0,-1.9527,0.0,0.0,0.0,-1.6143,-1.5875,-1.5027,-1.5234,0.0,0.0,0.0,0.0,-1.3948,-1.3262,-1.2905,-1.2905,-1.2905,-1.2905,-1.2905,-1.2905,-1.2646,-1.2223,-1.2686,-1.2578,-1.209,-1.2637,-1.2837,-1.2725,-1.2856,-1.2905,-1.2905,-1.2905,-1.2905,-1.2905,-1.2905,-1.2905,-1.2905,-2.76,-2.7839,0.0,-2.7645,0.0,0.0,-2.8223,-2.9098,0.0,-2.8732,-2.921,0.0,-2.9044,-2.9248,-2.9476,-2.9603,-2.9896,0.0,-3.0695,0.0,0.0,-3.1598,-3.1967,-3.1694,-3.0703,-3.0927,0.0,-2.9175,0.0,-2.8709,-2.81,-2.7413,-2.6942,-2.6587,0.0,-2.6587,-2.6617,-2.7001,-2.6791,-2.6138,-2.5839,0.0,0.0,-2.4156,-2.3939,-2.3595,-2.3595,-2.3595,-2.355,-2.3295,-2.2996,-2.2712,-2.2353,-2.1864,-2.131,-2.0842,-2.0498,-2.0183,-1.9813,-1.9708,-1.9798,-2.0168,-1.9974,-1.9887,-2.0557,-2.0423,-2.0243,0.0,0.0,0.0,0.0,0.0,0.0,0.0,0.0,0.0,0.0,0.0,0.0,0.0,-1.9071,0.0,0.0,0.0,0.0,0.0,0.0,0.0,0.0,0.0,0.0,-1.4104,-1.332,-1.2905,-1.2905,-1.2905,-1.2905,-1.2905,-1.2905,-1.2646,-1.2213,-1.2457,-1.2246,-1.1658,-1.2132,-1.2328,-1.2347,-1.251,-1.2705,-1.2905,-1.2905,-1.2905,-1.2905,-1.2905,-1.2905,-1.2905,-2.7735,-2.8188,0.0,0.0,0.0,0.0,0.0,-2.76,0.0,-2.76,0.0,-2.8367,-2.8367,-2.885,-2.895,-2.8415,0.0,-2.9271,-2.9314,-2.9871,-3.0473,-3.1046,-3.1166,-3.0709,-2.9617,-3.0045,-2.9458,0.0,-2.8207,-2.8116,-2.7585,-2.7001,-2.6677,0.0,0.0,0.0,0.0,-2.6632,-2.6258,-2.5674,-2.4993,-2.4321,-2.3729,-2.3729,-2.3684,-2.3595,-2.3595,-2.3595,-2.3505,-2.2897,-2.2313,-2.1799,-2.162,-2.0767,-1.9929,-2.0423,-2.0154,-1.9708,-1.9708,-1.9708,-1.9708,-1.9708,-1.9708,-1.9839,-2.0438,-2.0554,-2.0554,-2.0554,-2.1036,-2.1096,0.0,0.0,0.0,0.0,0.0,0.0,0.0,0.0,0.0,0.0,0.0,0.0,0.0,0.0,0.0,0.0,0.0,0.0,0.0,0.0,0.0,-1.4026,-1.3291,0.0,-1.2905,0.0,-1.2905,-1.2905,-1.2905,-1.2646,-1.2203,-1.2203,-1.1755,-1.1016,-1.1418,-1.1606,-1.1636,-1.2018,-1.249,-1.2905,-1.2905,-1.2905,-1.2905,-1.2905,-1.2905,-1.2905,-2.8412,0.0,0.0,0.0,0.0,-2.7735,-2.7615,-2.76,-2.76,-2.76,-2.7685,-2.776,-2.776,-2.7845,-2.787,-2.776,-2.7866,0.0,0.0,0.0,0.0,-2.8293,-2.8839,-2.9277,-2.9584,-2.9146,-2.9048,0.0,-2.8241,-2.771,-2.76,-2.748,-2.7136,0.0,0.0,0.0,-2.739,-2.6811,0.0,-2.6363,-2.5704,-2.5008,-2.4425,-2.4425,-2.4066,-2.3595,-2.3595,-2.3595,-2.3505,-2.2897,-2.2628,-2.2343,-2.1231,-2.0703,-2.0453,-1.9989,-1.9798,-1.9708,-1.9708,-1.9708,-1.9708,-1.9708,-1.9708,-1.9738,-1.9857,-1.9887,-1.9887,-1.9887,-1.9977,-2.0139,-2.0483,0.0,0.0,0.0,0.0,0.0,0.0,0.0,0.0,0.0,0.0,0.0,0.0,0.0,0.0,0.0,0.0,0.0,0.0,0.0,0.0,0.0,-1.3135,0.0,0.0,0.0,-1.2905,-1.2905,-1.2905,-1.2646,-1.2203,-1.2203,-1.1943,-1.1467,-1.1567,-1.1606,-1.1636,-1.2018,-1.249,-1.2905,-1.2905,-1.2905,-1.2905,-1.2905,-1.2905,-1.2905,-2.9101,0.0,0.0,0.0,0.0,0.0,0.0,-2.76,0.0,-2.76,-2.76,-2.76,-2.76,-2.76,-2.76,-2.76,-2.76,-2.76,-2.76,-2.76,-2.76,-2.76,-2.7914,0.0,-2.8558,-2.8259,-2.8244,-2.8558,-2.7914,-2.76,-2.76,-2.76,0.0,-2.7136,0.0,-2.76,0.0,0.0,0.0,-2.6527,-2.5869,-2.5187,-2.4605,-2.4605,-2.4171,-2.3595,-2.3595,-2.3385,-2.3047,-2.2403,-2.2194,-2.1954,-2.0602,-2.0183,-2.0124,-1.9779,-1.9708,-1.9708,-1.9708,-1.9708,-1.9708,-1.9708,-1.9708,-1.9708,-1.9708,-1.9708,-1.9621,-1.935,-1.9281,-1.9397,-1.9801,-2.0653,0.0,0.0,0.0,0.0,0.0,0.0,0.0,0.0,0.0,0.0,0.0,0.0,0.0,0.0,0.0,0.0,0.0,0.0,0.0,0.0,0.0,0.0,0.0,0.0,0.0,-1.2905,-1.2905,-1.2773,-1.2549,-1.209,-1.179,-1.1577,-1.1115,-1.1046,-1.1301,-1.1931,-1.249,-1.2905,-1.2905,-1.2905,-1.2905,-1.2905,-1.2905,-1.2905,0.0,-2.9606,0.0,0.0,-2.8382,0.0,-2.7675,-2.76,-2.76,-2.76,-2.76,-2.76,-2.76,-2.76,-2.76,-2.76,-2.76,-2.76,-2.76,-2.76,-2.76,-2.76,-2.76,-2.766,-2.7809,-2.7675,-2.766,0.0,-2.766,-2.76,-2.76,-2.76,0.0,0.0,0.0,0.0,0.0,0.0,-2.6677,-2.6746,-2.5929,-2.5277,-2.4799,-2.4649,-2.4171,-2.3595,-2.3595,-2.3281,-2.2778,-2.1964,-2.1605,-2.1276,-2.0082,-1.9708,-1.9708,-1.9708,-1.9708,-1.9708,-1.9708,-1.9708,-1.9708,-1.9708,-1.9708,-1.9708,-1.9708,-1.9603,-1.9406,-1.8987,-1.8817,-1.8811,-1.9043,-2.0004,0.0,0.0,0.0,0.0,0.0,0.0,0.0,0.0,0.0,0.0,0.0,0.0,0.0,0.0,0.0,0.0,-1.4678,-1.4404,0.0,0.0,0.0,-1.3042,-1.3042,0.0,-1.2905,0.0,-1.2905,-1.2856,-1.2725,-1.2044,-1.1672,-1.1567,-1.0772,-1.0654,-1.1113,-1.1882,-1.249,-1.2905,-1.2905,-1.2905,-1.2905,-1.2905,-1.2905,-1.2905,0.0,0.0,0.0,0.0,0.0,0.0,-2.76,-2.76,-2.76,-2.76,-2.76,-2.76,-2.76,-2.76,-2.76,-2.76,-2.76,-2.76,-2.76,-2.76,-2.76,-2.76,-2.76,-2.7884,-2.8487,-2.7914,-2.7899,0.0,0.0,-2.76,-2.76,-2.76,0.0,0.0,0.0,0.0,0.0,-2.6896,-2.6956,-2.739,-2.6108,-2.557,-2.545,-2.4829,-2.4171,-2.3595,-2.3595,-2.3565,-2.3325,-2.2099,-2.1306,-2.0677,-1.9929,-1.9708,-1.9708,-1.9708,-1.9708,-1.9708,-1.9708,-1.9708,-1.9708,-1.9708,-1.9708,-1.9708,-1.9708,-1.9332,-1.8968,-1.8912,-1.8516,-1.8365,-1.8996,-1.8337,-1.8024,0.0,0.0,0.0,0.0,0.0,-1.8456,-1.9008,0.0,0.0,0.0,0.0,0.0,0.0,0.0,0.0,-1.4211,-1.4531,-1.4346,-1.3535,0.0,-1.3447,-1.3447,-1.3066,0.0,-1.2905,-1.2905,-1.2676,-1.2262,-1.2184,-1.1943,-1.1577,-1.1055,-1.1103,-1.1577,-1.2031,-1.249,-1.2905,-1.2905,-1.2905,-1.2905,-1.2905,-1.2905,-1.2905,0.0,0.0,0.0,0.0,0.0,0.0,0.0,-2.76,-2.76,-2.76,-2.76,-2.76,-2.76,-2.76,-2.76,-2.76,-2.76,-2.76,-2.76,-2.76,-2.76,-2.76,-2.76,-2.772,-2.8004,-2.7735,-2.7735,0.0,0.0,-2.76,-2.76,-2.76,0.0,0.0,0.0,-2.7345,-2.7585,-2.7315,-2.7345,-2.751,-2.6572,-2.5959,-2.5493,-2.4461,-2.3866,-2.3551,-2.3201,-2.3075,-2.2987,-2.2478,-2.1844,-2.1111,-2.0052,-1.9708,-1.9708,-1.9708,-1.9708,-1.9708,-1.9708,-1.946,-1.9225,-1.9225,-1.8987,-1.8727,-1.8727,-1.8574,-1.8341,-1.8007,-1.7767,-1.7591,-1.7552,-1.7986,-1.819,0.0,0.0,0.0,0.0,0.0,0.0,-1.8945,0.0,-1.792,0.0,0.0,0.0,0.0,0.0,0.0,0.0,0.0,0.0,-1.387,0.0,-1.3252,-1.3506,-1.3096,-1.2905,-1.2905,-1.2905,-1.2793,-1.2607,-1.207,-1.1604,-1.1193,-1.1281,-1.1553,-1.1973,-1.2135,-1.249,-1.2905,-1.2905,-1.2905,-1.2905,-1.2905,-1.2905,-1.2905,-3.0073,0.0,-2.9397,0.0,-2.8064,-2.76,-2.76,-2.76,-2.76,-2.76,-2.76,-2.76,-2.76,-2.76,-2.76,-2.76,-2.76,-2.76,-2.76,-2.76,-2.76,-2.76,-2.76,0.0,-2.76,-2.76,-2.76,-2.76,-2.76,-2.76,-2.76,0.0,0.0,0.0,-2.76,-2.76,-2.76,-2.76,-2.7458,-2.7221,-2.6554,-2.5781,-2.4878,-2.3779,-2.325,-2.298,-2.2552,-2.2406,-2.2388,-2.2212,-2.1825,-2.1246,-2.0114,-1.9512,-1.9225,-1.9225,-1.9225,-1.9225,-1.9225,-1.8949,-1.865,-1.865,-1.838,-1.8106,-1.8106,-1.7987,-1.7706,-1.7167,-1.7055,-1.6951,-1.6573,-1.7507,-1.7988,-1.695,0.0,0.0,0.0,0.0,0.0,0.0,-1.7949,-1.7514,-1.6927,0.0,0.0,0.0,0.0,0.0,0.0,0.0,0.0,0.0,0.0,0.0,0.0,-1.3096,-1.2905,-1.2905,-1.2905,-1.2905,-1.2886,-1.2259,-1.1731,-1.1297,-1.178,-1.2061,-1.2213,-1.234,-1.2607,-1.2905,-1.2905,-1.2905,-1.2881,-1.2666,-1.2584,-1.2584,-3.0627,-2.9998,-2.9397,-2.8712,-2.8064,-2.76,-2.76,-2.76,-2.76,-2.76,-2.76,-2.76,-2.76,-2.76,-2.76,-2.76,-2.76,-2.76,-2.76,-2.76,-2.76,0.0,0.0,-2.76,-2.76,-2.76,-2.76,-2.76,0.0,0.0,-2.76,0.0,-2.76,-2.76,-2.76,-2.76,-2.76,-2.76,-2.7178,-2.6453,-2.579,-2.4762,-2.3559,-2.2859,-2.2225,-2.172,-2.1697,-2.172,-2.1623,-2.1011,-2.0818,-2.0687,-2.0098,-1.9078,-1.8125,-1.8125,-1.8125,-1.8125,-1.8125,-1.8125,-1.8125,-1.8125,-1.8106,-1.8106,-1.8106,-1.7686,-1.7146,-1.6616,-1.6522,-1.6522,-1.65,-1.6522,-1.671,-1.731,0.0,0.0,0.0,0.0,0.0,0.0,-1.5902,-1.5416,-1.5153,0.0,0.0,0.0,0.0,0.0,0.0,0.0,0.0,-1.3545,-1.3506,0.0,-1.3506,-1.3096,-1.2905,-1.2905,-1.2905,-1.2905,-1.2905,-1.2895,-1.2627,-1.2213,-1.2676,-1.2617,-1.2242,-1.2695,-1.2895,-1.2905,-1.2905,-1.2905,-1.2798,-1.208,-1.1814,-1.1814,-2.9415,-2.9041,-2.8697,-2.8049,-2.775,-2.76,-2.76,-2.76,-2.76,-2.76,-2.76,-2.76,-2.76,-2.76,-2.76,0.0,-2.76,-2.76,0.0,-2.76,-2.76,-2.76,-2.76,-2.76,-2.76,-2.76,-2.76,-2.76,0.0,0.0,0.0,-2.71,-2.7126,-2.7575,-2.706,-2.6852,-2.6852,-2.6852,-2.6416,-2.5672,-2.5029,-2.4507,-2.3993,-2.249,-2.2079,-2.2217,-2.1383,-2.1342,-2.1669,-2.1489,-2.0893,-2.0211,-2.0017,-1.9363,-1.8735,-1.9133,-1.8707,-1.8169,-1.8542,-1.8119,-1.7544,-1.7544,-1.7271,-1.7013,-1.7013,-1.6879,-1.671,-1.6531,-1.65,-1.65,-1.65,-1.65,-1.655,-1.676,-1.6635,0.0,0.0,0.0,0.0,0.0,-1.626,-1.6031,0.0,-1.4998,0.0,0.0,0.0,0.0,0.0,0.0,0.0,0.0,-1.3379,0.0,-1.3506,-1.3096,-1.2905,-1.2905,-1.2905,-1.2725,-1.2418,-1.2237,-1.2167,-1.2233,-1.2695,-1.2827,-1.2686,-1.2846,-1.2905,-1.2856,-1.2344,-1.2153,-1.208,-1.1366,-1.1116,-1.1116,-2.922,-2.8966,-2.8757,-2.8094,-2.7764,-2.76,-2.76,-2.76,-2.76,-2.76,-2.76,-2.76,-2.76,-2.76,0.0,-2.76,-2.76,-2.76,-2.76,-2.76,-2.76,-2.76,-2.76,-2.76,-2.76,0.0,0.0,-2.76,-2.7331,-2.7203,-2.7178,-2.6443,-2.6336,-2.6759,-2.6283,-2.6095,-2.6095,-2.6095,-2.5646,-2.4952,-2.453,-2.4067,-2.3483,-2.2306,-2.1865,-2.178,-2.1029,-2.0867,-2.0988,-2.0988,-2.0494,-1.9915,-1.9915,-1.9454,-1.8928,-1.8897,-1.8395,-1.7857,-1.7969,-1.7505,-1.6993,-1.6993,-1.6752,-1.65,-1.65,-1.65,-1.65,-1.65,-1.65,-1.65,-1.65,-1.65,-1.6423,-1.6194,-1.6173,-1.6086,-1.5854,0.0,0.0,0.0,0.0,0.0,0.0,-1.4683,0.0,0.0,0.0,0.0,0.0,0.0,0.0,-1.3636,-1.3154,0.0,-1.3271,-1.2742,-1.2476,-1.2476,-1.223,-1.2091,-1.204,-1.1887,-1.2048,-1.249,-1.2764,-1.2905,-1.2881,-1.2608,-1.2476,-1.2427,-1.1699,-1.1416,-1.1341,-1.0661,-1.0415,-1.0415,-2.9759,-2.9478,0.0,0.0,-2.7891,0.0,-2.7458,-2.7458,-2.7458,-2.7458,-2.7458,-2.7458,-2.7458,-2.7458,-2.7458,-2.7458,0.0,0.0,0.0,-2.76,-2.76,-2.76,-2.7534,-2.7549,-2.76,-2.7534,-2.7509,-2.7509,-2.68,-2.6431,-2.6404,-2.5673,-2.5342,-2.5398,-2.5342,-2.5315,-2.5315,-2.5315,-2.4908,-2.4205,-2.4205,-2.3486,-2.2359,-2.2293,-2.1656,-2.0742,-2.0704,-2.0314,-1.9798,-1.9798,-1.9798,-1.9798,-1.9798,-1.9472,-1.8857,-1.7852,-1.7498,-1.7297,-1.6751,-1.655,-1.65,-1.65,-1.65,-1.65,-1.65,-1.65,-1.65,-1.65,-1.65,-1.65,-1.65,-1.6466,-1.625,-1.5724,-1.5625,-1.5367,-1.4811,0.0,0.0,0.0,0.0,0.0,0.0,-1.3714,-1.3656,0.0,0.0,0.0,0.0,0.0,-1.3695,-1.2925,-1.2856,-1.2822,-1.2822,-1.2113,-1.174,-1.1715,-1.104,-1.1116,-1.1789,-1.1765,-1.2138,-1.2822,-1.2822,-1.2798,-1.2691,-1.2005,-1.174,-1.1665,-1.099,-1.0737,-1.0644,-0.9987,-0.9736,-0.9736,0.0,0.0,-2.779,-2.7123,-2.641,-2.5919,-2.5919,-2.5919,-2.5919,-2.5919,-2.5919,-2.5919,-2.5919,-2.5919,-2.5919,-2.5919,-2.6941,-2.76,-2.76,-2.76,-2.76,-2.76,-2.706,-2.7008,-2.76,-2.7034,-2.6747,-2.6747,-2.6027,-2.5646,-2.5646,-2.4894,-2.4879,-2.537,-2.4823,-2.4567,-2.4567,-2.4567,-2.4118,-2.3395,-2.3395,-2.3199,-2.2869,-2.2472,-2.1895,-2.127,-2.0842,-2.0314,-1.9798,-1.9798,-1.9798,-1.9798,-1.9798,-1.971,-1.956,-1.9309,-1.8355,-1.7473,-1.7727,-1.7152,-1.65,-1.65,-1.65,-1.65,-1.65,-1.65,-1.65,-1.65,-1.65,-1.65,-1.65,-1.6117,-1.5886,-1.6112,-1.5706,-1.5307,-1.5175,-1.5177,0.0,0.0,-1.4053,-1.407,-1.3682,-1.3564,-1.3656,0.0,0.0,0.0,0.0,-1.3545,-1.3418,-1.2925,-1.2344,-1.2055,-1.2055,-1.1366,-1.104,-1.104,-1.0364,-1.0661,-1.1789,-1.1266,-1.1416,-1.2055,-1.2055,-1.1774,-1.1275,-1.1124,-1.104,-1.0965,-1.0287,-1.0038,-0.9961,-0.929,-0.9035,-0.9035,-2.731,-2.7053,-2.6791,-2.6113,-2.5673,-2.5398,-2.5398,-2.5398,-2.5398,-2.5398,-2.5398,-2.5398,-2.5398,-2.5398,-2.5398,-2.5398,-2.6135,-2.6587,-2.6587,-2.6587,-2.6587,-2.6587,-2.6215,-2.6188,-2.6587,-2.6188,-2.6014,-2.6014,-2.5259,-2.4908,-2.4879,-2.4105,-2.3972,-2.4323,-2.393,-2.3738,-2.3738,-2.3738,-2.3514,-2.3108,-2.3108,-2.3108,-2.307,-2.2782,-2.2184,-2.1443,-2.1182,-2.0514,-1.9798,-1.9798,-1.9798,-1.9798,-1.9798,-1.9798,-1.9798,-1.9798,-1.9007,-1.8091,-1.789,-1.7375,-1.6848,-1.6563,-1.65,-1.65,-1.65,-1.6281,-1.6095,-1.6095,-1.6095,-1.6008,-1.5722,-1.5813,-1.5799,-1.5488,-1.5136,-1.4784,-1.451,-1.4249,0.0,-1.3433,-1.3487,-1.3545,-1.3516,-1.334,-1.3389,-1.3792,0.0,0.0,-1.3223,-1.2918,-1.2629,-1.2403,-1.1996,-1.1665,-1.1341,-1.0686,-1.0192,-0.9891,-0.951,-1.0038,-1.1316,-1.0644,-1.0889,-1.1789,-1.1491,-1.1141,-1.0788,-1.0466,-1.0338,-1.0287,-0.9614,-0.9335,-0.9309,-0.8929,-0.8804,-0.8804,-2.5633,-2.5853,-2.6017,-2.5341,-2.5119,-2.5063,-2.5063,-2.5063,-2.5063,-2.5063,-2.5063,-2.5063,-2.5063,-2.5063,-2.5063,-2.5063,-2.5063,-2.5147,-2.537,-2.5398,-2.5398,-2.5398,-2.5287,-2.5287,-2.5398,-2.5287,-2.5231,-2.5231,-2.4481,-2.4118,-2.4089,-2.3424,-2.3108,-2.3108,-2.3108,-2.3108,-2.3108,-2.3108,-2.3108,-2.3108,-2.3108,-2.3108,-2.3108,-2.3108,-2.2418,-2.1493,-2.1493,-2.0765,-1.9798,-1.9798,-1.9798,-1.9798,-1.9798,-1.9798,-1.9798,-1.9798,-1.9497,-1.8882,-1.7802,-1.741,-1.7137,-1.6635,-1.6423,-1.6358,-1.6358,-1.5898,-1.5454,-1.5454,-1.5454,-1.5298,-1.4789,-1.5417,-1.5687,-1.4669,-1.4493,-1.4272,-1.3655,0.0,-1.3052,-1.2925,-1.2905,-1.3018,-1.3379,-1.3096,-1.3003,-1.3217,-1.3027,-1.2856,0.0,-1.2138,-1.1765,-1.1665,-1.1566,-1.1191,-1.0491,-0.9935,-0.9361,-0.8804,-0.8804,-0.9439,-1.0644,-1.0064,-1.0415,-1.1466,-1.0889,-1.0585,-1.044,-0.9891,-0.964,-0.9588,-0.9035,-0.8804,-0.8804,-0.8804,-0.8804,-0.8804,-2.5564,-2.5383,-2.5191,-2.4587,-2.3901,-2.3442,-2.3442,-2.3442,-2.3442,-2.3442,-2.3442,-2.3442,-2.3442,-2.3442,-2.3442,-2.3442,-2.3442,-2.4018,-2.5315,-2.5398,-2.5398,-2.5398,-2.4794,-2.4766,-2.5398,-2.4794,-2.4452,-2.4452,-2.3679,-2.3275,-2.3275,-2.3168,-2.3108,-2.3108,-2.3108,-2.3108,-2.3108,-2.3108,-2.3108,-2.3108,-2.3108,-2.3108,-2.3108,-2.3108,-2.2418,-2.1493,-2.1493,-2.0765,-1.9798,-1.9798,-1.9798,-1.9798,-1.9798,-1.9798,-1.9798,-1.9798,-1.9748,-1.9447,-1.8367,-1.7375,-1.6613,-1.6525,-1.6129,-1.5754,-1.5754,-1.5276,-1.4835,-1.4835,-1.4835,-1.4812,-1.4732,-1.4688,-1.4761,-1.4955,-1.4847,-1.4562,-1.4092,0.0,-1.3656,-1.2993,-1.2905,-1.2925,-1.2993,-1.2944,-1.2661,-1.2113,-1.2588,-1.2642,-1.1996,-1.1864,-1.1541,-1.0965,-1.0415,-0.9788,-0.9106,-0.9008,-0.891,-0.8804,-0.8804,-0.9211,-0.9961,-0.984,-0.9909,-1.009,-0.9987,-0.964,-0.9113,-0.9008,-0.8956,-0.8936,-0.8831,-0.8804,-0.8804,-0.8804,-0.8804,-0.8804,-2.4232,-2.4109,-2.3974,-2.37,-2.3335,-2.3108,-2.3108,-2.3108,-2.3108,-2.3108,-2.3108,-2.3108,-2.3108,-2.3108,-2.3108,-2.3108,-2.3108,-2.3382,-2.4121,-2.415,-2.415,-2.415,-2.3855,-2.3813,-2.415,-2.3826,-2.3649,-2.3649,-2.3275,-2.3108,-2.3108,-2.3108,-2.3108,-2.3108,-2.3108,-2.3108,-2.3108,-2.3108,-2.3108,-2.3108,-2.3108,-2.3108,-2.3108,-2.3108,-2.2606,-2.1933,-2.1933,-2.1217,-2.0289,-2.0289,-2.0289,-2.0239,-1.9899,-2.0012,-2.0147,-1.9431,-1.8995,-1.8605,-1.7922,-1.7068,-1.6263,-1.566,-1.5577,-1.5521,-1.5186,-1.4641,-1.4213,-1.4213,-1.4213,-1.4183,-1.4056,-1.446,-1.4826,-1.4928,-1.4852,0.0,0.0,-1.3909,-1.3574,-1.2983,-1.2905,-1.2905,-1.2905,-1.2535,-1.2163,-1.1839,-1.1783,-1.1609,-1.1291,-1.0914,-1.0593,-1.0261,-0.9614,-0.9106,-0.8804,-0.8804,-0.8804,-0.8804,-0.8804,-0.9159,-0.9788,-0.9439,-0.9465,-0.9788,-0.9413,-0.9087,-0.8804,-0.8804,-0.8804,-0.8804,-0.8804,-0.8804,-0.8804,-0.8804,-0.8804,-0.8804,-2.3108,-2.3108,-2.3108,-2.3108,-2.3108,-2.3108,-2.3108,-2.3108,-2.3108,-2.3108,-2.3108,-2.3108,-2.3108,-2.3108,-2.3108,-2.3108,-2.3108,-2.3108,-2.3108,-2.3108,-2.3108,-2.3108,-2.3108,-2.3108,-2.3108,-2.3108,-2.3108,-2.3108,-2.3108,-2.3108,-2.3108,-2.3108,-2.3108,-2.3108,-2.3108,-2.3108,-2.3108,-2.3108,-2.3108,-2.3108,-2.3108,-2.3108,-2.3108,-2.3108,-2.2757,-2.2309,-2.2309,-2.1681,-2.0867,-2.0729,-2.0691,-2.0591,-1.9987,-1.9995,-2.0032,-1.9006,-1.8166,-1.7511,-1.724,-1.6643,-1.5869,-1.5037,-1.5006,-1.5073,-1.4606,-1.4027,-1.3631,-1.37,-1.3672,-1.3607,-1.3622,-1.4308,-1.4836,-1.4663,0.0,0.0,0.0,-1.3685,-1.335,-1.2954,-1.2905,-1.2822,-1.2666,-1.2129,-1.1665,-1.1366,-1.099,-1.0737,-1.0593,-1.009,-0.9744,-0.9562,-0.9061,-0.8804,-0.8804,-0.8804,-0.8804,-0.8804,-0.8804,-0.9061,-0.9562,-0.9035,-0.9087,-0.9536,-0.9035,-0.8804,-0.8804,-0.8804,-0.8804,-0.8804,-0.8804,-0.8804,-0.8804,-0.8804,-0.8804,-0.8804,-2.3108,-2.3108,-2.3108,-2.3108,-2.3108,-2.3108,-2.3108,-2.3108,-2.3108,-2.3108,-2.3108,-2.3108,-2.3108,-2.3108,-2.3108,-2.3108,-2.3108,-2.3108,-2.3108,-2.3108,-2.3108,-2.3108,-2.3108,-2.3108,-2.3108,-2.3108,-2.3108,-2.3108,-2.3108,-2.3108,-2.3108,-2.3108,-2.3108,-2.3108,-2.3108,-2.3108,-2.3108,-2.3108,-2.3108,-2.3108,-2.3108,-2.3108,-2.3108,-2.3108,-2.2757,-2.2309,-2.2309,-2.1933,-2.1383,-2.0867,-2.0691,-2.0591,-1.9987,-1.937,-1.8815,-1.8727,-1.7709,-1.6633,-1.6798,-1.6118,-1.5343,-1.5285,-1.4575,-1.3933,-1.3886,-1.3396,-1.3062,-1.3455,-1.3219,-1.3199,-1.3909,-1.4111,-1.4167,-1.4153,0.0,0.0,-1.3672,-1.3525,-1.335,-1.2954,-1.2905,-1.2642,-1.1947,-1.1839,-1.1291,-1.0038,-1.0491,-1.0542,-0.9917,-0.9814,-0.951,-0.8883,-0.8831,-0.8804,-0.8804,-0.8804,-0.8804,-0.8804,-0.8804,-0.8831,-0.8883,-0.8831,-0.8831,-0.8883,-0.8831,-0.8804,-0.8804,-0.8804,-0.8804,-0.8804,-0.8804,-0.8804,-0.8804,-0.8804,-0.8804,-0.8804,-2.3108,-2.3471,-2.3647,-2.3183,-2.3484,-2.3634,-2.317,-2.3108,-2.3108,-2.3108,-2.3108,-2.3108,-2.3108,-2.3108,-2.3108,-2.3108,-2.3108,-2.3108,-2.3108,-2.3108,-2.3108,-2.3108,-2.3108,-2.3108,-2.3108,-2.3108,-2.3108,-2.3108,-2.3108,-2.3108,-2.3108,-2.3108,-2.3108,-2.3108,-2.3108,-2.3108,-2.3108,-2.3108,-2.3108,-2.3108,-2.3108,-2.3108,-2.3108,-2.3108,-2.297,-2.2794,-2.2794,-2.2443,-2.192,-2.1395,-2.0878,-2.0357,-1.9403,-1.886,-1.84,-1.7584,-1.6613,-1.5823,-1.5897,-1.5568,-1.5016,-1.4345,-1.4004,-1.3708,-1.3334,-1.3055,-1.2998,-1.3418,-1.3174,-1.3135,-1.3948,-1.3899,-1.3802,-1.4065,0.0,-1.4143,-1.3584,-1.3506,-1.335,-1.2954,-1.2905,-1.2618,-1.1864,-1.1416,-1.0788,-0.9865,-0.9666,-0.9439,-0.9185,-0.9185,-0.9061,-0.8811,-0.8804,-0.8804,-0.8804,-0.8804,-0.8804,-0.8804,-0.8804,-0.8804,-0.8804,-0.8804,-0.8804,-0.8804,-0.8804,-0.8804,-0.8804,-0.8804,-0.8804,-0.8804,-0.8804,-0.8804,-0.8804,-0.8804,-0.8804,-0.8804,-2.3145,-2.3509,-2.3697,-2.3195,-2.3521,-2.3684,-2.3183,-2.3108,-2.3108,-2.3108,-2.3108,-2.3108,-2.3108,-2.3108,-2.3108,-2.3108,-2.3108,-2.3108,-2.3108,-2.3108,-2.3108,-2.3108,-2.3108,-2.3108,-2.3108,-2.3108,-2.3108,-2.3108,-2.3108,-2.3108,-2.3108,-2.3108,-2.3108,-2.3108,-2.3108,-2.3108,-2.3108,-2.3108,-2.3108,-2.3108,-2.3108,-2.2944,-2.272,-2.272,-2.2567,-2.2341,-2.2628,-2.2292,-2.1715,-2.128,-2.0704,-1.9971,-1.874,-1.8118,-1.7639,-1.6491,-1.5806,-1.541,-1.541,-1.5219,-1.483,-1.409,-1.3896,-1.3779,-1.3372,-1.3271,-1.3398,-1.3818,-1.3467,-1.3379,-1.4328,-1.3948,-1.3617,-1.4036,-1.3997,-1.3763,-1.3369,-1.3311,-1.3203,-1.2935,-1.2691,-1.227,-1.1566,-1.0889,-1.0218,-0.9536,-0.9061,-0.8804,-0.8804,-0.8804,-0.8804,-0.8804,-0.8804,-0.8804,-0.8804,-0.8804,-0.8804,-0.8804,-0.8804,-0.8804,-0.8804,-0.8804,-0.8804,-0.8804,-0.8804,-0.8804,-0.8804,-0.8804,-0.8804,-0.8804,-0.8804,-0.8804,-0.8804,-0.8804,-0.8804,-0.8804,-2.3221,-2.3108,-2.3108,-2.3108,-2.3108,-2.3108,-2.3108,-2.3108,-2.3108,-2.3108,-2.3108,-2.3108,-2.3108,-2.3108,-2.3108,-2.3108,-2.3108,-2.3108,-2.3108,-2.3108,-2.3108,-2.3108,-2.3108,-2.3108,-2.3108,-2.3108,-2.3108,-2.3108,-2.3108,-2.3108,-2.3108,-2.3108,-2.3108,-2.3108,-2.3108,-2.3108,-2.3108,-2.3108,-2.3108,-2.3108,-2.3078,-2.2598,-2.1908,-2.1877,-2.1365,-2.0719,-2.1585,-2.1333,-2.0561,-2.0458,-2.0067,-1.9449,-1.8036,-1.7101,-1.635,-1.5613,-1.542,-1.542,-1.542,-1.5107,-1.4785,-1.4813,-1.4463,-1.4104,-1.4104,-1.4104,-1.4231,-1.4697,-1.4102,-1.3896,-1.5166,-1.4365,-1.3617,-1.4026,-1.3753,-1.3359,-1.2964,-1.2905,-1.2905,-1.2881,-1.2236,-1.1541,-1.0864,-1.0185,-0.951,-0.8857,-0.8804,-0.8804,-0.8804,-0.8804,-0.8804,-0.8804,-0.8804,-0.8804,-0.8804,-0.8804,-0.8804,-0.8804,-0.8804,-0.8804,-0.8804,-0.8804,-0.8804,-0.8804,-0.8804,-0.8804,-0.8804,-0.8804,-0.8804,-0.8804,-0.8804,-0.8804,-0.8804,-0.8804,-0.8804,-0.8804,-2.3778,-2.374,-2.3615,-2.317,-2.3446,-2.3602,-2.3158,-2.3108,-2.3108,-2.3108,-2.3108,-2.3108,-2.3108,-2.3108,-2.3108,-2.3108,-2.3108,-2.3108,-2.3108,-2.3108,-2.3283,-2.3715,-2.3321,-2.3108,-2.3108,-2.3496,-2.374,-2.374,-2.374,-2.374,-2.3728,-2.3296,-2.3108,-2.3108,-2.3108,-2.3108,-2.3108,-2.3108,-2.3108,-2.3047,-2.2476,-2.2094,-2.1815,-2.1239,-2.0814,-2.0623,-2.0878,-2.0814,-2.0522,-2.0086,-1.947,-1.8658,-1.7059,-1.6386,-1.6188,-1.5959,-1.5899,-1.5899,-1.5899,-1.5547,-1.5156,-1.4863,-1.4463,-1.4104,-1.4104,-1.4104,-1.4231,-1.4697,-1.4336,-1.4036,-1.4416,-1.3965,-1.3447,-1.3281,-1.3154,-1.3052,-1.2925,-1.2905,-1.2715,-1.2187,-1.1922,-1.1366,-1.0218,-0.9917,-0.951,-0.8857,-0.8804,-0.8804,-0.8804,-0.8804,-0.8804,-0.8804,-0.8804,-0.8804,-0.8804,-0.8804,-0.8804,-0.8804,-0.8804,-0.8804,-0.8804,-0.8804,-0.8804,-0.8804,-0.8804,-0.8804,-0.8804,-0.8804,-0.8804,-0.8804,-0.8804,-0.8804,-0.8804,-0.8804,-0.8804,-0.8804,-2.374,-2.3653,-2.3521,-2.3158,-2.3396,-2.3509,-2.3158,-2.3108,-2.3108,-2.3108,-2.3108,-2.3108,-2.3108,-2.3308,-2.3358,-2.312,-2.3108,-2.3195,-2.3434,-2.3446,-2.3697,-2.4305,-2.396,-2.3772,-2.3772,-2.4111,-2.433,-2.433,-2.4104,-2.4004,-2.3991,-2.3371,-2.3108,-2.3108,-2.3108,-2.3108,-2.3108,-2.3108,-2.2914,-2.2567,-2.2094,-2.1491,-2.0814,-2.0301,-1.9879,-1.9628,-1.9944,-1.9846,-1.9553,-1.9348,-1.8627,-1.7692,-1.6878,-1.6496,-1.6328,-1.6328,-1.6232,-1.6095,-1.6095,-1.5772,-1.5352,-1.5098,-1.4834,-1.4611,-1.4611,-1.4611,-1.4689,-1.498,-1.4697,-1.4367,-1.4367,-1.3906,-1.3418,-1.3174,-1.2988,-1.2905,-1.2905,-1.2642,-1.2295,-1.1839,-1.1341,-1.0686,-0.9891,-0.9562,-0.9237,-0.8831,-0.8804,-0.8804,-0.8804,-0.8804,-0.8804,-0.8804,-0.8804,-0.8804,-0.8804,-0.8804,-0.8804,-0.8804,-0.8804,-0.8804,-0.8804,-0.8804,-0.8804,-0.8804,-0.8804,-0.8804,-0.8804,-0.8804,-0.8804,-0.8804,-0.8804,-0.8804,-0.8804,-0.8804,-0.8804,-0.8804,-2.3534,-2.3283,-2.3258,-2.3258,-2.3258,-2.3258,-2.3258,-2.3208,-2.3183,-2.3183,-2.3183,-2.3183,-2.3183,-2.3697,-2.3853,-2.3296,-2.3258,-2.3484,-2.4042,-2.4067,-2.4318,-2.4838,-2.4863,-2.4888,-2.4938,-2.4888,-2.4863,-2.4863,-2.4393,-2.4117,-2.4054,-2.3446,-2.3158,-2.3108,-2.3108,-2.3108,-2.3108,-2.3005,-2.2567,-2.1877,-2.1721,-2.0719,-1.9299,-1.9199,-1.8687,-1.811,-1.8888,-1.8654,-1.8041,-1.8428,-1.7752,-1.6833,-1.7256,-1.7109,-1.6755,-1.6716,-1.6445,-1.6144,-1.6105,-1.5772,-1.541,-1.541,-1.541,-1.541,-1.541,-1.541,-1.541,-1.541,-1.5107,-1.4814,-1.4746,-1.4092,-1.3545,-1.3467,-1.3135,-1.2881,-1.2798,-1.2212,-1.1765,-1.1641,-1.0542,-0.9788,-0.971,-0.9159,-0.8804,-0.8804,-0.8804,-0.8804,-0.8804,-0.8804,-0.8804,-0.8804,-0.8804,-0.8804,-0.8804,-0.8804,-0.8804,-0.8804,-0.8804,-0.8804,-0.8804,-0.8804,-0.8804,-0.8804,-0.8804,-0.8804,-0.8804,-0.8804,-0.8804,-0.8804,-0.8804,-0.8804,-0.8804,-0.8804,-0.8804,-0.8804,-2.5109,-2.4732,-2.4424,-2.4424,-2.4424,-2.4424,-2.4424,-2.4061,-2.3803,-2.3803,-2.3803,-2.3803,-2.3803,-2.4305,-2.4562,-2.4437,-2.4424,-2.4474,-2.4632,-2.4644,-2.4883,-2.541,-2.5423,-2.5636,-2.6135,-2.5661,-2.5423,-2.5423,-2.531,-2.5046,-2.46,-2.4067,-2.3534,-2.3108,-2.3108,-2.3108,-2.3078,-2.2445,-2.2063,-2.1784,-2.0398,-1.9628,-1.9243,-1.8519,-1.8168,-1.8008,-1.8202,-1.8168,-1.7998,-1.8093,-1.7744,-1.7256,-1.7353,-1.7314,-1.7178,-1.6804,-1.6638,-1.6514,-1.6193,-1.5772,-1.541,-1.541,-1.541,-1.541,-1.541,-1.541,-1.541,-1.541,-1.5342,-1.5068,-1.4367,-1.4094,-1.3753,-1.3125,-1.2964,-1.2691,-1.2129,-1.1888,-1.1408,-1.0364,-0.9987,-0.9588,-0.9061,-0.8883,-0.8804,-0.8804,-0.8804,-0.8804,-0.8804,-0.8804,-0.8804,-0.8804,-0.8804,-0.8804,-0.8804,-0.8804,-0.8804,-0.8804,-0.8804,-0.8804,-0.8804,-0.8804,-0.8804,-0.8804,-0.8804,-0.8804,-0.8804,-0.8804,-0.8804,-0.8804,-0.8804,-0.8804,-0.8804,-0.8804,-0.8804,-0.8804,-2.5272,-2.4976,-2.4788,-2.4788,-2.4788,-2.4788,-2.4788,-2.4569,-2.4393,-2.4393,-2.4393,-2.4393,-2.4393,-2.487,-2.5197,-2.5197,-2.4938,-2.4888,-2.5172,-2.5197,-2.5435,-2.6021,-2.6047,-2.6185,-2.6487,-2.6197,-2.6047,-2.6047,-2.5737,-2.5215,-2.4511,-2.4178,-2.3567,-2.2811,-2.2996,-2.2884,-2.2506,-2.2075,-2.1428,-2.059,-1.9661,-1.9044,-1.862,-1.8168,-1.8008,-1.8008,-1.8008,-1.8008,-1.8008,-1.8008,-1.7861,-1.7686,-1.7686,-1.7686,-1.7637,-1.7369,-1.7019,-1.6648,-1.6445,-1.5908,-1.541,-1.541,-1.541,-1.541,-1.541,-1.541,-1.541,-1.541,-1.541,-1.5215,-1.4561,-1.425,-1.3899,-1.3281,-1.2742,-1.2236,-1.1839,-1.1241,-1.0593,-0.9891,-0.951,-0.9185,-0.8831,-0.8804,-0.8804,-0.8804,-0.8804,-0.8804,-0.8804,-0.8804,-0.8804,-0.8804,-0.8804,-0.8804,-0.8804,-0.8804,-0.8804,-0.8804,-0.8804,-0.8804,-0.8804,-0.8804,-0.8804,-0.8804,-0.8804,-0.8804,-0.8804,-0.8804,-0.8804,-0.8804,-0.8804,-0.8804,-0.8804,-0.8804,-0.8804,-0.8804,-2.5184,-2.5096,-2.5096,-2.5096,-2.5096,-2.5096,-2.5096,-2.4988,-2.4958,-2.4958,-2.4958,-2.4958,-2.4958,-2.5423,-2.5737,-2.5737,-2.5347,-2.5285,-2.5711,-2.5737,-2.5996,-2.6474,-2.6499,-2.6499,-2.6499,-2.6499,-2.6499,-2.6499,-2.584,-2.5034,-2.4173,-2.3924,-2.3228,-2.2292,-2.2638,-2.2364,-2.1659,-2.1522,-2.0623,-1.9299,-1.9144,-1.8654,-1.8008,-1.8008,-1.8008,-1.8008,-1.8008,-1.8008,-1.8008,-1.8008,-1.8008,-1.8008,-1.8008,-1.8008,-1.7998,-1.793,-1.7402,-1.6775,-1.6629,-1.6084,-1.5508,-1.543,-1.541,-1.541,-1.541,-1.541,-1.541,-1.541,-1.5294,-1.5071,-1.4657,-1.4153,-1.3672,-1.3204,-1.2326,-1.1637,-1.1475,-1.0491,-0.9762,-0.964,-0.9133,-0.8804,-0.8804,-0.8804,-0.8804,-0.8804,-0.8804,-0.8804,-0.8804,-0.8804,-0.8804,-0.8804,-0.8804,-0.8804,-0.8804,-0.8804,-0.8804,-0.8804,-0.8804,-0.8804,-0.8804,-0.8804,-0.8804,-0.8804,-0.8804,-0.8804,-0.8804,-0.8804,-0.8804,-0.8804,-0.8804,-0.8804,-0.8804,-0.8804,-0.8804,-0.8804,-2.6285,-2.6273,-2.6273,-2.6273,-2.6273,-2.6273,-2.6273,-2.5812,-2.5485,-2.5485,-2.5485,-2.5485,-2.5485,-2.6034,-2.6373,-2.6373,-2.6311,-2.6298,-2.6373,-2.6373,-2.6411,-2.6499,-2.6499,-2.6499,-2.6499,-2.6499,-2.6499,-2.6499,-2.5556,-2.4777,-2.4197,-2.3294,-2.2343,-2.1374,-2.1438,-2.1199,-2.0719,-1.9977,-1.9529,-1.9243,-1.8496,-1.811,-1.8008,-1.8008,-1.8008,-1.8008,-1.8008,-1.8008,-1.8008,-1.8008,-1.8008,-1.8008,-1.8008,-1.8008,-1.7939,-1.7578,-1.7393,-1.7129,-1.6388,-1.6095,-1.5919,-1.5508,-1.541,-1.541,-1.541,-1.541,-1.541,-1.541,-1.4844,-1.4234,-1.3842,-1.3124,-1.2402,-1.1723,-1.1484,-1.1045,-1.018,-0.9909,-0.9588,-0.9008,-0.8857,-0.8804,-0.8804,-0.8804,-0.8804,-0.8804,-0.8804,-0.8804,-0.8804,-0.8804,-0.8804,-0.8804,-0.8804,-0.8804,-0.8804,-0.8804,-0.8804,-0.8804,-0.8804,-0.8804,-0.8804,-0.8804,-0.8804,-0.8804,-0.8804,-0.8804,-0.8804,-0.8804,-0.8804,-0.8804,-0.8804,-0.8804,-0.8804,-0.8804,-0.8804,-0.8804,-2.6499,-2.6499,-2.6499,-2.6499,-2.6499,-2.6499,-2.6499,-2.6273,-2.6109,-2.6109,-2.6109,-2.6109,-2.6109,-2.6336,-2.6499,-2.6499,-2.6499,-2.6499,-2.6499,-2.6499,-2.6499,-2.6499,-2.5943,-2.5652,-2.5652,-2.5099,-2.4838,-2.4838,-2.4921,-2.4292,-2.2972,-2.2802,-2.2163,-2.121,-2.1469,-2.1238,-2.0567,-2.0202,-1.9586,-1.8891,-1.8488,-1.8188,-1.8008,-1.8008,-1.8008,-1.8008,-1.8008,-1.8008,-1.8008,-1.8008,-1.8008,-1.8008,-1.8008,-1.8008,-1.7978,-1.7793,-1.7568,-1.7246,-1.6611,-1.6281,-1.5987,-1.5518,-1.541,-1.541,-1.541,-1.541,-1.5255,-1.4815,-1.4451,-1.401,-1.3369,-1.3162,-1.2826,-1.2043,-1.1748,-1.1269,-1.0242,-0.9724,-0.93,-0.8851,-0.8804,-0.8804,-0.8804,-0.8804,-0.8804,-0.8804,-0.8804,-0.8804,-0.8804,-0.8804,-0.8804,-0.8804,-0.8804,-0.8804,-0.8804,-0.8804,-0.8804,-0.8804,-0.8804,-0.8804,-0.8804,-0.8804,-0.8804,-0.8804,-0.8804,-0.8804,-0.8804,-0.8804,-0.8804,-0.8804,-0.8804,-0.8804,-0.8804,-0.8804,-0.8804,-0.8804]},{"header":{"parameterUnit":"m.s-1","parameterCategory":1,"la1":30.6,"la2":28.766,"lo1":-90.7593,"lo2":-88.6598,"dy":0.0162,"dx":0.0183,"nx":116,"ny":114,"refTime":"2024-05-17T12:00:00:Z","depth":0,"parameterNumber":3,"parameterNumberName":"V-component_of_WINDS"},"data":[0.0,0.0,0.0,0.0,0.0,0.0,0.0,0.0,0.0,0.0,0.0,0.0,0.0,0.0,0.0,0.0,0.0,0.0,0.0,0.0,0.0,0.0,0.0,0.0,0.0,0.0,0.0,0.0,0.0,0.0,0.0,0.0,0.0,0.0,0.0,0.0,0.0,0.0,0.0,0.0,0.0,0.0,0.0,0.0,0.0,0.0,0.0,0.0,0.0,0.0,0.0,0.0,0.0,0.0,0.0,0.0,0.0,0.0,0.0,0.0,0.0,0.0,0.0,0.0,0.0,0.0,0.0,0.0,0.0,0.0,0.0,0.0,0.0,0.0,0.0,0.0,0.0,0.0,0.0,0.0,0.0,0.0,0.0,0.0,0.0,0.0,0.0,0.0,0.0,0.0,0.0,0.0,0.0,0.0,0.0,0.0,0.0,0.0,0.0,0.0,0.0,0.0,0.0,0.0,0.0,0.0,0.0,0.0,0.0,0.0,0.0,0.0,0.0,0.0,0.0,0.0,0.0,0.0,0.0,0.0,0.0,0.0,0.0,0.0,0.0,0.0,0.0,0.0,0.0,0.0,0.0,0.0,0.0,0.0,0.0,0.0,0.0,0.0,0.0,0.0,0.0,0.0,0.0,0.0,0.0,0.0,0.0,0.0,0.0,0.0,0.0,0.0,0.0,0.0,0.0,0.0,0.0,0.0,0.0,0.0,0.0,0.0,0.0,0.0,0.0,0.0,0.0,0.0,0.0,0.0,0.0,0.0,0.0,0.0,0.0,0.0,0.0,0.0,0.0,0.0,0.0,0.0,0.0,0.0,0.0,0.0,0.0,0.0,0.0,0.0,0.0,0.0,0.0,0.0,0.0,0.0,0.0,0.0,0.0,0.0,0.0,0.0,0.0,0.0,0.0,0.0,0.0,0.0,0.0,0.0,0.0,0.0,0.0,0.0,0.0,0.0,0.0,0.0,0.0,0.0,0.0,0.0,0.0,0.0,0.0,0.0,0.0,0.0,0.0,0.0,0.0,0.0,0.0,0.0,0.0,0.0,0.0,0.0,0.0,0.0,0.0,0.0,0.0,0.0,0.0,0.0,0.0,0.0,0.0,0.0,0.0,0.0,0.0,0.0,0.0,0.0,0.0,0.0,0.0,0.0,0.0,0.0,0.0,0.0,0.0,0.0,0.0,0.0,0.0,0.0,0.0,0.0,0.0,0.0,0.0,0.0,0.0,0.0,0.0,0.0,0.0,0.0,0.0,0.0,0.0,0.0,0.0,0.0,0.0,0.0,0.0,0.0,0.0,0.0,0.0,0.0,0.0,0.0,0.0,0.0,0.0,0.0,0.0,0.0,0.0,0.0,0.0,0.0,0.0,0.0,0.0,0.0,0.0,0.0,0.0,0.0,0.0,0.0,0.0,0.0,0.0,0.0,0.0,0.0,0.0,0.0,0.0,0.0,0.0,0.0,0.0,0.0,0.0,0.0,0.0,0.0,0.0,0.0,0.0,0.0,0.0,0.0,0.0,0.0,0.0,0.0,0.0,0.0,0.0,0.0,0.0,0.0,0.0,0.0,0.0,0.0,0.0,0.0,0.0,0.0,0.0,0.0,0.0,0.0,0.0,0.0,0.0,0.0,0.0,0.0,0.0,0.0,0.0,0.0,0.0,0.0,0.0,0.0,0.0,0.0,0.0,0.0,0.0,0.0,0.0,0.0,0.0,0.0,0.0,0.0,0.0,0.0,0.0,0.0,0.0,0.0,0.0,0.0,0.0,0.0,0.0,0.0,0.0,0.0,0.0,0.0,0.0,0.0,0.0,0.0,0.0,0.0,0.0,0.0,0.0,0.0,0.0,0.0,0.0,0.0,0.0,0.0,0.0,0.0,0.0,0.0,0.0,0.0,0.0,0.0,0.0,0.0,0.0,0.0,0.0,0.0,0.0,0.0,0.0,0.0,0.0,0.0,0.0,0.0,0.0,0.0,0.0,0.0,0.0,0.0,0.0,0.0,0.0,0.0,0.0,0.0,0.0,0.0,0.0,0.0,0.0,0.0,0.0,0.0,0.0,0.0,0.0,0.0,0.0,0.0,0.0,0.0,0.0,0.0,0.0,0.0,0.0,0.0,0.0,0.0,0.0,0.0,0.0,0.0,0.0,0.0,0.0,0.0,0.0,0.0,0.0,0.0,0.0,0.0,0.0,0.0,0.0,0.0,0.0,0.0,0.0,0.0,0.0,0.0,0.0,0.0,0.0,0.0,0.0,0.0,0.0,0.0,0.0,0.0,0.0,0.0,0.0,0.0,0.0,0.0,0.0,0.0,0.0,0.0,0.0,0.0,0.0,0.0,0.0,0.0,0.0,0.0,0.0,0.0,0.0,0.0,0.0,0.0,0.0,0.0,0.0,0.0,0.0,0.0,0.0,0.0,0.0,0.0,0.0,0.0,0.0,0.0,0.0,0.0,0.0,0.0,0.0,0.0,0.0,0.0,0.0,0.0,0.0,0.0,0.0,0.0,0.0,0.0,0.0,0.0,0.0,0.0,0.0,0.0,0.0,0.0,0.0,0.0,0.0,0.0,0.0,0.0,0.0,0.0,0.0,0.0,0.0,0.0,0.0,0.0,0.0,0.0,0.0,0.0,0.0,0.0,0.0,0.0,0.0,0.0,0.0,0.0,0.0,0.0,0.0,0.0,0.0,0.0,0.0,0.0,0.0,0.0,0.0,0.0,0.0,0.0,0.0,0.0,0.0,0.0,0.0,0.0,0.0,0.0,0.0,0.0,0.0,0.0,0.0,0.0,0.0,0.0,0.0,0.0,0.0,0.0,0.0,0.0,0.0,0.0,0.0,0.0,0.0,0.0,0.0,0.0,0.0,0.0,0.0,0.0,0.0,0.0,0.0,0.0,0.0,0.0,0.0,0.0,0.0,0.0,0.0,0.0,0.0,0.0,0.0,0.0,0.0,0.0,0.0,0.0,0.0,0.0,0.0,0.0,0.0,0.0,0.0,0.0,0.0,0.0,0.0,0.0,0.0,0.0,0.0,0.0,0.0,0.0,0.0,0.0,0.0,0.0,0.0,0.0,0.0,0.0,0.0,0.0,0.0,0.0,0.0,0.0,0.0,0.0,0.0,0.0,0.0,0.0,0.0,0.0,0.0,0.0,0.0,0.0,0.0,0.0,0.0,0.0,0.0,0.0,0.0,0.0,0.0,0.0,0.0,0.0,0.0,0.0,0.0,0.0,0.0,0.0,0.0,0.0,0.0,0.0,0.0,0.0,0.0,0.0,0.0,0.0,0.0,0.0,0.0,0.0,0.0,0.0,0.0,0.0,0.0,0.0,0.0,0.0,0.0,0.0,0.0,0.0,0.0,0.0,0.0,0.0,0.0,0.0,0.0,0.0,0.0,0.0,0.0,0.0,0.0,0.0,0.0,0.0,0.0,0.0,0.0,0.0,0.0,0.0,0.0,0.0,0.0,0.0,0.0,0.0,0.0,0.0,0.0,0.0,0.0,0.0,0.0,0.0,0.0,0.0,0.0,0.0,0.0,0.0,0.0,0.0,0.0,0.0,0.0,0.0,0.0,0.0,0.0,0.0,0.0,0.0,0.0,0.0,0.0,0.0,0.0,0.0,0.0,0.0,0.0,0.0,0.0,0.0,0.0,0.0,0.0,0.0,0.0,0.0,0.0,0.0,0.0,0.0,0.0,0.0,0.0,0.0,0.0,0.0,0.0,0.0,0.0,0.0,0.0,0.0,0.0,0.0,0.0,0.0,0.0,0.0,0.0,0.0,0.0,0.0,0.0,0.0,0.0,0.0,0.0,0.0,0.0,0.0,0.0,0.0,0.0,0.0,0.0,0.0,0.0,0.0,0.0,0.0,0.0,0.0,0.0,0.0,0.0,0.0,0.0,0.0,0.0,0.0,0.0,0.0,0.0,0.0,0.0,0.0,0.0,0.0,0.0,0.0,0.0,0.0,0.0,0.0,0.0,0.0,0.0,0.0,0.0,0.0,0.0,0.0,0.0,0.0,0.0,0.0,0.0,0.0,0.0,0.0,0.0,0.0,0.0,0.0,0.0,0.0,0.0,0.0,0.0,0.0,0.0,0.0,0.0,0.0,0.0,0.0,0.0,0.0,0.0,0.0,0.0,0.0,0.0,0.0,0.0,0.0,0.0,0.0,0.0,0.0,0.0,0.0,0.0,0.0,0.0,0.0,0.0,0.0,0.0,0.0,0.0,0.0,0.0,0.0,0.0,0.0,0.0,0.0,0.0,0.0,0.0,0.0,0.0,0.0,0.0,0.0,0.0,0.0,0.0,0.0,0.0,0.0,0.0,0.0,0.0,0.0,0.0,0.0,0.0,0.0,0.0,0.0,0.0,0.0,0.0,0.0,0.0,0.0,0.0,0.0,0.0,0.0,0.0,0.0,0.0,0.0,0.0,0.0,0.0,0.0,0.0,0.0,0.0,0.0,0.0,0.0,0.0,0.0,0.0,0.0,0.0,0.0,0.0,0.0,0.0,0.0,0.0,0.0,0.0,0.0,0.0,0.0,0.0,0.0,0.0,0.0,0.0,0.0,0.0,0.0,0.0,0.0,0.0,0.0,0.0,0.0,0.0,0.0,0.0,0.0,0.0,0.0,0.0,0.0,0.0,0.0,0.0,0.0,0.0,0.0,0.0,0.0,0.0,0.0,0.0,0.0,0.0,0.0,0.0,0.0,0.0,0.0,0.0,0.0,0.0,0.0,0.0,0.0,0.0,0.0,0.0,0.0,0.0,0.0,0.0,0.0,0.0,0.0,0.0,0.0,0.0,0.0,0.0,0.0,0.0,0.0,0.0,0.0,0.0,0.0,0.0,0.0,0.0,0.0,0.0,0.0,0.0,0.0,0.0,0.0,0.0,0.0,0.0,0.0,0.0,0.0,0.0,0.0,0.0,0.0,0.0,0.0,0.0,0.0,0.0,0.0,0.0,0.0,0.0,0.0,0.0,0.0,0.0,0.0,0.0,0.0,0.0,0.0,0.0,0.0,0.0,0.0,0.0,0.0,0.0,0.0,0.0,0.0,0.0,0.0,0.0,0.0,0.0,0.0,0.0,0.0,0.0,0.0,0.0,0.0,0.0,0.0,0.0,0.0,0.0,0.0,0.0,0.0,0.0,0.0,0.0,0.0,0.0,0.0,0.0,0.0,0.0,0.0,0.0,0.0,0.0,0.0,0.0,0.0,0.0,0.0,0.0,0.0,0.0,0.0,0.0,0.0,0.0,0.0,0.0,0.0,0.0,0.0,0.0,0.0,0.0,0.0,0.0,0.0,0.0,0.0,0.0,0.0,0.0,0.0,0.0,0.0,0.0,0.0,0.0,0.0,0.0,0.0,0.0,0.0,0.0,0.0,0.0,0.0,0.0,0.0,0.0,0.0,0.0,0.0,0.0,0.0,0.0,0.0,0.0,0.0,0.0,0.0,0.0,0.0,0.0,0.0,0.0,0.0,0.0,0.0,0.0,0.0,0.0,0.0,0.0,0.0,0.0,0.0,0.0,0.0,0.0,0.0,0.0,0.0,0.0,0.0,0.0,0.0,0.0,0.0,0.0,0.0,0.0,0.0,0.0,0.0,0.0,0.0,0.0,0.0,0.0,0.0,0.0,0.0,0.0,0.0,0.0,0.0,0.0,0.0,0.0,0.0,0.0,0.0,0.0,0.0,0.0,0.0,0.0,0.0,0.0,0.0,0.0,0.0,0.0,0.0,0.0,0.0,0.0,0.0,0.0,0.0,0.0,0.0,0.0,0.0,0.0,0.0,0.0,0.0,0.0,0.0,0.0,0.0,0.0,0.0,0.0,0.0,0.0,0.0,0.0,0.0,0.0,0.0,0.0,0.0,0.0,0.0,0.0,0.0,0.0,0.0,0.0,0.0,0.0,0.0,0.0,0.0,0.0,0.0,0.0,0.0,0.0,0.0,0.0,0.0,0.0,0.0,0.0,0.0,0.0,0.0,0.0,0.0,0.0,0.0,0.0,0.0,0.0,0.0,0.0,0.0,0.0,0.0,0.0,0.0,0.0,0.0,0.0,0.0,0.0,0.0,0.0,0.0,0.0,0.0,0.0,0.0,0.0,0.0,0.708,0.0,0.0,0.0,0.0,0.0,0.0,0.0,0.0,0.0,0.0,0.0,0.0,0.0,0.0,0.0,0.0,0.0,0.0,0.0,0.0,0.0,0.0,0.0,0.0,1.4941,1.5567,1.5567,1.531,1.5118,1.5118,0.0,0.0,0.0,0.0,0.0,1.3409,1.3409,1.3409,1.3409,1.3045,1.2993,1.3181,1.2512,1.1289,0.9692,0.0,0.0,0.0,0.0,0.0,0.0,0.0,0.0,0.0,0.0,0.0,0.0,0.0,0.0,0.0,0.0,0.0,0.0,0.0,0.0,0.0,0.0,0.0,0.0,0.0,0.0,0.0,0.0,0.0,0.0,0.0,0.0,0.0,0.0,0.0,0.0,0.0,0.0,0.0,0.0,0.0,0.0,0.0,0.0,0.0,0.0,0.0,0.0,0.0,0.0,0.0,0.0,0.0,0.0,0.0,0.0,0.0,0.0,0.0,0.0,0.0,0.0,0.0,0.0,0.0,0.0,0.0,0.0,0.0,0.0,0.0,0.7022,0.0,0.0,0.0,0.0,0.0,0.0,0.0,0.0,0.0,0.0,0.0,0.0,0.0,0.0,0.0,0.0,0.0,0.0,0.0,0.0,0.0,1.414,1.4236,1.5583,1.65,1.65,1.6051,1.5754,1.5754,1.5287,0.0,0.0,0.0,1.4812,1.4698,1.4698,1.4698,1.4698,1.4698,1.4698,1.4686,1.4123,1.3032,1.1474,1.124,0.0,0.0,0.0,0.0,0.0,0.0,0.0,0.0,0.0,0.0,0.0,0.0,0.0,0.0,0.0,0.0,0.0,0.0,0.0,0.0,0.0,0.0,0.0,0.0,0.0,0.0,0.0,0.0,0.0,0.0,0.0,0.0,0.0,0.0,0.0,0.0,0.0,0.0,0.0,0.0,0.0,0.0,0.0,0.0,0.0,0.0,0.0,0.0,0.0,0.0,0.0,0.0,0.0,0.0,0.0,0.0,0.0,0.0,0.0,0.0,0.0,0.0,0.0,1.0749,1.0893,1.0893,1.0765,1.0727,1.0624,0.9062,0.8291,0.806,0.0,0.0,0.0,0.0,0.0,0.0,0.0,0.0,0.0,0.0,0.0,0.0,0.0,0.0,0.0,0.0,0.0,0.0,0.0,0.0,1.4269,1.4744,1.5815,1.65,1.65,1.6423,1.638,1.638,1.6315,0.0,0.0,1.5477,1.5231,1.4698,1.4698,1.4698,1.4698,1.4698,1.4698,1.4698,1.4606,1.4434,1.4134,1.2968,1.214,1.1587,0.0,0.0,0.0,0.0,0.0,0.0,0.0,0.0,0.0,0.0,0.0,0.0,0.0,0.0,0.0,0.0,0.0,0.0,0.0,0.0,0.0,0.0,0.0,0.0,0.0,0.0,0.0,0.0,0.0,0.0,0.0,0.0,0.0,0.0,0.0,0.0,0.0,0.0,0.0,0.0,0.0,1.2274,1.2525,0.0,0.0,0.0,0.0,0.0,0.0,0.0,0.0,0.0,0.0,0.0,0.0,0.0,0.9865,1.0115,1.1286,1.187,1.187,1.3037,1.3584,1.3565,1.303,1.2803,1.2744,1.1349,0.0,0.9428,0.9306,0.0,0.0,0.0,0.0,0.0,0.0,0.0,0.0,0.0,0.0,0.0,0.0,0.0,0.0,0.0,0.0,0.0,0.0,0.0,0.0,0.0,1.6238,1.6996,1.7375,1.7415,1.7415,1.7415,1.7415,1.7154,1.6574,1.6553,1.6287,1.5722,1.6015,1.6154,1.6154,1.5864,1.57,1.57,1.57,1.57,1.57,1.5105,1.43,1.3365,1.2964,0.0,0.0,0.0,0.0,0.0,0.0,0.0,0.0,0.0,0.0,0.0,0.0,0.0,0.0,0.0,0.0,0.0,0.0,0.0,0.0,0.0,0.0,0.0,0.0,0.0,0.0,0.0,0.0,0.0,0.0,0.0,0.0,0.0,0.0,0.0,0.0,0.0,0.0,0.0,1.2141,1.2576,1.2536,1.2683,1.2663,0.0,0.0,0.0,0.0,0.0,0.0,0.0,0.0,0.0,1.1642,1.1792,1.1964,1.2125,1.2854,1.3207,1.3249,1.3811,1.4088,1.4082,1.3821,1.3614,1.3413,1.2994,1.228,1.1337,1.0172,0.9266,0.8642,0.0,0.0,0.0,0.0,0.7091,0.653,0.0,0.0,0.0,0.0,0.0,0.0,0.0,0.0,0.0,0.0,0.0,0.0,1.5811,1.6595,1.7367,1.8051,1.8106,1.8106,0.0,0.0,1.7927,1.7524,1.7504,1.7333,1.6909,1.7312,1.7504,1.7504,1.7097,1.6909,1.6909,1.6909,1.6909,1.6888,1.6774,1.6039,1.4903,1.4401,1.3833,0.0,0.0,0.0,0.0,0.0,0.0,0.0,0.0,0.0,0.0,0.0,0.0,0.0,0.0,0.0,0.0,0.0,0.0,0.0,0.0,0.0,0.0,0.0,0.0,0.0,0.0,0.0,0.0,0.0,0.0,0.0,0.0,0.0,0.0,0.0,0.0,0.0,0.0,1.2576,1.2824,1.2559,1.2792,1.2898,0.0,0.0,0.0,0.0,0.0,0.0,1.2904,1.3086,1.324,1.332,1.3493,1.364,1.372,1.3975,1.4088,1.4088,1.4008,1.3975,1.3968,1.3814,1.3627,1.3427,1.3647,1.336,1.2563,1.1152,1.0247,0.9691,0.959,0.9374,0.9083,0.8944,0.8382,0.7668,0.0,0.0,0.0,0.0,0.0,0.0,0.0,0.0,0.0,0.0,0.0,1.5548,1.6206,0.0,1.7367,1.8051,1.8106,1.8106,0.0,0.0,1.8086,1.8066,1.8066,1.8046,1.8027,1.8046,1.8066,1.8066,1.8027,1.8027,1.8027,1.8027,1.8027,1.8007,1.7483,1.6617,1.5543,1.5509,1.5163,1.4606,0.0,0.0,0.0,0.0,0.0,0.0,0.0,0.0,0.0,0.0,0.0,0.0,0.0,0.0,0.0,0.0,0.0,0.0,0.0,0.0,0.0,0.0,0.0,0.0,0.0,0.0,0.0,0.0,0.0,0.0,0.0,0.0,0.0,0.0,0.0,0.0,0.0,0.0,0.0,1.3166,1.338,0.0,0.0,0.0,0.0,1.316,1.318,1.3186,1.3186,1.32,1.334,1.3573,1.3593,1.374,1.4062,1.4082,1.4088,1.4082,1.376,1.3626,1.3606,1.3112,1.2844,1.2831,1.2844,1.2663,1.2371,1.2829,1.2125,1.0708,1.0734,1.0066,0.9103,0.9093,0.8949,0.8719,0.0,0.0,0.0,0.0,0.0,1.265,1.3123,1.4166,1.4891,1.4891,1.565,1.6364,0.0,1.76,1.8397,1.9074,1.9132,1.9132,1.9132,0.0,1.8987,1.8631,1.8612,1.8612,1.8612,1.8283,1.8283,1.8612,1.8283,1.8106,1.8106,1.8106,1.8106,1.8086,1.7907,1.7592,1.7156,1.6471,1.582,1.5276,1.5276,1.4915,0.0,0.0,0.0,0.0,0.0,0.0,0.0,0.0,0.0,0.0,0.0,0.0,0.0,0.0,0.0,0.0,0.0,0.0,0.0,0.0,0.0,0.0,0.0,0.0,0.0,0.0,0.0,0.0,0.0,0.0,0.0,0.0,0.0,0.0,0.0,0.0,0.0,1.5273,1.4937,0.0,1.4262,1.3627,1.3213,1.3213,1.3347,1.3447,1.3447,1.3848,1.4102,1.4166,1.4166,1.4255,1.4362,1.4182,1.4088,1.4088,1.3981,1.3928,1.3921,1.3707,1.34,1.306,1.324,1.2933,1.2331,1.2739,1.2475,1.1768,1.1768,1.1526,1.1144,1.1144,1.0705,1.0106,0.0,0.0,0.0,0.0,1.1845,1.2733,1.3231,1.4456,1.5389,1.5492,1.6338,1.7136,1.7645,1.8567,1.9418,2.0076,2.0139,2.0085,1.9909,0.0,1.9681,1.9188,1.9169,1.9169,1.9169,1.8817,1.8817,1.9169,1.8817,1.8631,1.8631,1.8631,1.8631,1.8631,1.8458,1.838,1.8322,1.7435,1.6693,1.6167,1.6167,1.5708,1.4971,0.0,0.0,0.0,0.0,0.0,0.0,0.0,0.0,0.0,0.0,0.0,0.0,0.0,0.0,0.0,0.0,0.0,0.0,0.0,0.0,0.0,0.0,0.0,0.0,0.0,0.0,0.0,0.0,0.0,0.0,0.0,0.0,0.0,0.0,0.0,1.6838,1.6588,1.5921,1.5328,1.4997,1.4069,1.3507,1.3507,1.3733,1.39,1.39,1.4402,1.4669,1.4669,1.4669,1.4623,1.4522,1.4329,1.4182,1.4088,1.3981,1.3941,1.3935,1.3834,1.3581,1.3213,1.33,1.2999,1.2496,1.2596,1.2516,1.2305,1.2305,1.2305,1.2305,1.2305,1.1885,1.1316,0.0,0.0,0.0,1.0408,1.2016,1.3297,1.331,1.4722,1.5927,1.6291,1.696,1.7818,1.8816,1.9565,2.027,2.0927,2.0975,2.0781,2.0348,2.0331,2.0158,1.9747,1.9729,1.9729,1.9729,1.9729,1.9729,1.9729,1.9729,1.9729,1.9729,1.9729,1.9729,1.9711,1.9188,1.8949,1.8912,1.838,1.7847,1.7353,1.7333,1.6672,1.5722,0.0,0.0,0.0,0.0,0.0,0.0,0.0,0.0,0.0,0.0,0.0,0.0,0.0,0.0,0.0,0.0,0.0,0.0,0.0,0.0,0.0,0.0,0.0,0.0,0.0,0.0,0.0,0.0,0.0,0.0,0.0,0.0,0.0,1.7281,1.7016,1.7024,1.7024,1.6299,1.5699,1.5423,1.4683,1.4208,1.4208,1.4441,1.4566,1.4566,1.4854,1.5022,1.5022,1.5022,1.4836,1.4536,1.4522,1.4376,1.4082,1.3753,1.362,1.3606,1.3367,1.3233,1.3206,1.2945,1.2804,1.2764,1.2438,1.2311,1.2305,1.2305,1.2305,1.2305,1.2305,1.2305,1.2305,0.0,0.0,1.0483,1.0727,1.217,1.3377,1.3627,1.4876,1.6107,1.698,1.7706,1.8527,1.9583,1.984,2.0224,2.0943,2.0511,2.0369,2.0781,0.0,2.0764,2.0664,2.0632,2.0632,2.0632,2.0632,2.0632,2.0632,2.0632,2.0632,2.0632,2.0632,2.0632,2.0615,2.0143,1.9919,1.9899,1.9449,1.8949,1.8438,1.8046,1.799,1.8133,0.0,0.0,0.0,0.0,0.0,0.0,0.0,0.0,0.0,0.0,0.0,0.0,0.0,0.0,0.0,0.0,0.0,0.0,0.0,0.0,0.0,0.0,0.0,0.0,0.0,0.0,0.0,0.0,0.0,0.0,0.0,0.0,2.011,1.9202,1.939,1.9578,1.9578,1.8717,1.8066,1.7994,1.7041,1.6404,1.6404,1.5968,1.5641,1.5641,1.5432,1.5277,1.5277,1.5277,1.5137,1.4888,1.4629,1.4376,1.4088,1.4008,1.3968,1.3961,1.3881,1.3728,1.348,1.3393,1.3146,1.2777,1.2697,1.2536,1.2305,1.2305,1.2305,1.2305,1.2305,1.2305,1.2271,0.0,1.0273,1.0759,1.124,1.2521,1.3677,1.4143,1.5125,1.624,1.744,1.7953,1.8649,1.9874,1.997,2.0105,2.0543,2.0494,2.0549,2.0774,0.0,2.0991,2.0991,2.0991,2.0991,2.0991,2.0991,2.0991,2.0991,2.0991,2.0991,2.0991,2.0991,2.0991,2.0991,2.0699,2.0583,2.0566,2.033,1.9949,1.9456,1.9148,1.905,1.9107,1.9107,1.9517,2.0065,1.9666,1.9534,1.9508,1.9436,0.0,0.0,0.0,0.0,0.0,0.0,0.0,0.0,0.0,0.0,0.0,0.0,0.0,0.0,0.0,0.0,0.0,0.0,0.0,0.0,0.0,0.0,0.0,0.0,2.04,2.082,2.0752,2.0801,2.0781,2.0625,1.9638,1.8997,1.8997,1.8166,1.7499,1.731,1.7363,1.7054,1.6355,1.6321,1.613,1.5578,1.5464,1.5257,1.5015,1.4669,1.4376,1.4088,1.4088,1.4088,1.4088,1.4088,1.3988,0.0,1.366,1.338,1.2971,1.2837,1.261,0.0,0.0,0.0,0.0,0.0,1.2305,1.2278,0.0,1.054,1.1211,1.1871,1.3061,1.4109,1.4707,1.5407,1.6353,1.7716,0.0,1.8476,1.9837,1.993,1.99,1.9985,2.0653,2.0958,0.0,0.0,2.115,2.115,2.115,2.115,2.115,2.115,2.115,2.115,2.115,2.115,2.115,2.115,2.115,2.115,2.1086,2.1055,2.1055,2.1007,2.0764,2.0382,2.0331,1.9882,1.9285,1.9355,1.9817,2.0393,2.0384,2.039,2.0488,2.108,0.0,0.0,0.0,0.0,0.0,0.0,0.0,0.0,0.0,0.0,0.0,0.0,0.0,0.0,0.0,0.0,0.0,0.0,0.0,0.0,0.0,0.0,0.0,0.0,2.1124,2.1504,2.1836,2.1592,2.1191,2.0742,1.9841,1.9237,1.9237,1.8769,1.827,1.7858,1.8742,1.8635,1.7138,0.0,0.0,0.0,0.0,1.5433,1.5015,1.4669,1.4376,1.4088,1.4088,1.4088,1.4088,1.4088,1.4088,1.4075,1.3733,1.344,1.3186,1.2911,1.261,1.2305,1.2305,1.2305,1.2305,1.2305,1.2278,1.2258,0.0,1.1176,1.1886,1.2443,1.3688,1.4648,1.4781,1.5598,1.6616,1.7743,1.815,1.8741,1.9879,1.9473,1.9338,1.9951,2.0149,2.0715,0.0,0.0,2.2049,2.2049,2.2049,2.2049,2.2049,2.2049,2.2049,2.2049,2.2049,2.2049,2.2049,2.2049,2.2049,2.2034,2.1643,2.1476,2.146,2.1134,2.0943,2.0829,2.0449,2.0342,2.045,2.0986,2.1626,2.2184,2.2206,2.22,2.2218,2.2337,2.2304,2.2278,2.2958,0.0,0.0,0.0,0.0,0.0,0.0,0.0,0.0,0.0,0.0,0.0,0.0,0.0,0.0,0.0,0.0,0.0,0.0,0.0,0.0,2.2348,2.2341,2.2178,2.1924,2.2109,2.1982,2.1201,2.0904,2.0774,2.0774,2.0995,2.1123,2.1005,2.0632,2.0245,1.9896,1.9437,1.8588,1.7365,1.7027,1.6261,1.5008,1.4669,1.4376,1.4088,0.0,0.0,1.4088,1.4088,1.4088,1.4075,1.3733,1.344,1.3186,1.2911,1.261,1.2305,1.2305,1.2305,1.2305,1.2305,1.2151,1.202,1.1335,1.1959,1.2498,1.3108,1.4094,1.4916,1.5245,1.5729,1.6492,1.7729,1.772,1.8069,1.9306,1.8792,1.8504,1.8882,1.9562,0.0,0.0,2.2296,2.2296,2.2296,2.2296,2.236,2.2487,2.25,2.2581,2.2747,2.2747,2.2747,2.2747,2.2747,2.2747,2.2721,2.2324,2.2158,2.213,2.1792,2.1524,2.1308,2.144,2.1459,2.1427,2.162,2.2293,2.3155,2.315,2.3143,2.3201,2.3545,2.3616,2.3717,2.4388,2.4591,2.4417,0.0,0.0,0.0,0.0,0.0,0.0,0.0,0.0,0.0,0.0,0.0,0.0,0.0,0.0,2.3629,0.0,0.0,2.3771,2.4261,2.3781,2.3356,2.3356,2.2881,2.2275,2.1641,2.1327,2.119,2.119,2.1631,2.1797,2.1582,2.1764,2.1469,2.0393,2.0175,1.9538,1.8283,1.778,1.7252,1.6698,1.6162,1.5834,1.5677,1.5144,1.4816,1.4667,1.4103,1.3868,1.3854,1.3666,1.344,1.3173,1.2712,1.2438,1.2305,1.2305,1.2211,1.2084,1.2084,1.1897,1.169,1.2275,1.2753,1.3131,1.3746,1.44,1.5073,1.5709,1.5961,1.6519,1.7732,1.7551,1.7778,1.8985,1.8577,1.829,0.0,0.0,0.0,0.0,2.2296,2.2296,2.2296,2.2349,2.249,2.2695,2.2772,2.2935,2.32,2.32,2.32,2.32,2.32,2.3165,2.3093,2.2822,2.2756,2.2819,2.2606,2.2377,2.2196,2.2729,2.2818,2.2597,2.2296,2.2753,2.3586,2.3706,2.3702,2.3699,2.4365,2.4549,2.466,2.5462,2.5669,2.5557,2.5044,2.4879,0.0,0.0,0.0,0.0,0.0,0.0,0.0,0.0,2.4745,2.5074,2.4915,2.5286,2.5565,2.5387,2.5486,2.575,2.6189,2.534,2.4752,2.5072,2.3871,2.2829,2.2482,2.1793,2.1288,2.12,2.1631,2.1738,2.1346,2.2272,2.2141,2.0461,2.0735,2.0339,1.9056,1.8472,1.8187,1.8265,1.7623,1.7302,1.7293,1.6437,1.5769,1.5258,1.4416,1.394,1.3784,1.3729,1.3459,1.2999,1.2505,1.2305,1.2305,1.2305,1.2124,1.1906,1.1906,1.1683,1.1435,0.0,1.3472,1.3894,1.4344,1.4777,1.5227,1.5726,1.6557,1.7315,1.7823,1.8608,1.931,1.9829,1.9799,2.0048,0.0,0.0,0.0,2.2245,2.2296,2.2296,2.2296,2.2541,2.2656,2.2708,2.2996,2.3153,2.32,2.32,2.32,2.32,2.32,2.3045,2.2759,2.2721,2.2938,2.3316,2.3289,2.3632,2.4145,2.3866,2.405,2.4455,2.4074,2.3718,2.3509,2.4091,2.4012,2.3699,2.4365,2.4604,2.4804,2.6087,2.6485,2.6435,2.6303,2.6289,2.613,2.5384,2.4687,2.4303,2.4764,2.4492,2.4318,0.0,2.5862,2.6427,2.6862,2.7388,2.7901,2.8325,2.7666,2.7238,2.7758,2.6955,2.6251,2.6295,2.5293,2.4534,2.4482,2.2894,2.166,2.1229,2.1631,2.1865,2.1816,2.1943,2.1941,2.1709,2.1758,2.1165,1.9929,1.9552,1.8902,1.7861,1.7499,1.7302,1.7302,1.7172,1.6467,1.5305,1.5394,1.5087,1.4457,1.4249,1.3459,1.2398,1.2331,1.2305,1.2305,1.2305,1.2124,1.1906,1.1906,1.1683,1.1435,0.0,1.3173,1.3702,1.4374,1.483,1.5385,1.6204,1.6905,1.7634,1.8369,1.9053,1.9605,1.9963,2.0002,2.0318,0.0,0.0,0.0,2.2245,2.2296,2.2296,2.2296,2.2563,2.2797,2.2984,2.3323,2.3577,2.3785,2.3785,2.3785,2.3785,2.3577,2.3653,2.3903,2.3545,2.376,2.4327,2.4124,2.422,2.4509,2.4774,2.5045,2.5297,2.556,2.5358,2.4914,2.4877,2.4532,0.0,0.0,2.4532,2.4709,2.5247,2.5704,2.6105,2.645,2.6566,2.6473,2.613,2.5639,2.5225,2.5116,2.5286,2.5493,2.5573,2.6084,2.6738,2.7582,2.7946,2.8373,2.9264,2.9057,2.8848,0.0,2.8148,2.7441,2.7441,2.6203,2.4975,2.4144,2.3031,2.2181,2.1642,2.1553,2.1504,2.1504,2.1748,2.1777,2.1523,2.1504,2.125,2.0731,2.0356,2.0052,1.9766,1.9396,1.9234,1.9225,1.832,1.7505,1.6783,1.5986,1.5487,1.5174,1.5062,1.4409,1.3392,1.3206,1.3091,1.3091,1.3091,1.2942,1.2635,1.2112,1.1683,1.1435,0.0,1.2773,1.3314,1.4326,1.4737,1.5277,1.6308,1.7045,1.7831,1.88,1.9504,2.0105,2.0587,2.0627,2.0876,2.1448,2.1512,2.1735,0.0,2.2296,2.2335,2.2415,2.2691,2.2996,2.3335,2.3671,2.4075,2.453,2.453,2.4591,2.4683,2.4561,2.4633,2.4835,2.4498,2.4649,2.5158,2.4904,2.4931,2.5151,2.5693,2.5913,2.5964,2.6488,2.6487,2.6138,2.5615,2.4973,0.0,0.0,2.4368,2.435,2.4545,2.5053,2.5734,2.6393,2.6746,2.6862,2.6813,2.6441,2.6067,2.5986,2.6167,2.6319,2.6205,2.6468,2.6952,2.7708,2.8122,2.8586,2.9402,2.9691,2.9792,2.9792,2.9106,2.8557,2.8557,2.7119,2.5751,2.485,2.3623,2.2709,2.2401,2.1569,2.1045,2.1045,2.1338,2.1387,2.1064,2.1045,2.1045,2.1045,2.0732,2.0723,2.1045,2.0772,2.0605,2.0595,1.9343,1.8467,1.7841,1.6499,1.5783,1.5618,1.5811,1.5332,1.4452,1.4198,1.4099,1.4099,1.4099,1.3989,1.3738,1.3068,1.2284,1.1577,0.0,0.0,1.2941,1.4264,1.4517,1.4813,1.5683,1.6892,1.8021,1.8892,2.0139,2.1273,2.2141,2.2229,2.2245,2.2262,2.2262,2.2279,2.2296,2.2296,2.2412,2.2669,2.3009,2.3346,2.3682,2.4006,2.4575,2.5356,2.5356,2.5567,2.5961,2.6323,2.5973,2.5013,2.5319,2.5509,2.5591,2.5575,2.5981,2.664,2.6657,2.6657,2.6657,2.6691,2.6691,2.6624,2.6139,0.0,0.0,0.0,2.4069,2.3744,2.4395,2.5053,2.5734,2.6393,2.7061,2.757,2.7575,2.7037,2.6775,2.791,2.7044,2.623,2.738,2.7451,2.7268,2.7341,2.816,2.8875,2.8913,2.9415,2.9792,2.9792,2.9753,2.9753,2.9753,2.8305,2.7411,2.7897,2.5172,2.3311,0.0,2.1727,2.0625,2.0625,2.0635,2.0635,2.0625,2.0625,2.0625,2.0625,2.0615,2.0615,2.0625,2.0615,2.0605,2.0595,2.0079,1.9155,1.7869,1.6981,1.6218,1.5638,1.6281,1.6053,1.518,1.5171,1.5163,1.5163,1.5163,1.5155,1.5147,1.5111,1.3727,1.1893,0.0,0.0,0.0,1.4906,1.5461,1.589,1.6438,1.7448,1.8439,1.917,2.0507,0.0,0.0,0.0,0.0,0.0,2.2296,2.2296,2.2296,2.2296,2.2426,2.2682,2.3021,2.3357,2.3692,2.4537,2.5136,2.5393,2.5933,2.6266,2.6385,2.6044,2.6223,2.6833,2.6463,2.6888,2.7859,2.7859,2.8281,2.8907,2.8416,2.8518,2.8839,2.7824,2.7418,2.735,0.0,0.0,0.0,2.5449,2.5105,2.4643,2.4518,2.4921,2.5612,2.6378,2.7076,2.76,2.76,2.7328,2.7147,2.7536,2.7445,2.7251,2.7082,2.7307,2.7515,2.7347,2.7582,2.8059,2.8762,2.9089,2.934,2.9729,2.9792,2.9792,2.9792,2.8971,2.8191,2.7768,2.6403,0.0,0.0,0.0,0.0,2.0625,2.0605,2.0605,2.0605,2.0605,2.0605,2.0605,2.0605,2.0605,2.0605,2.0605,2.0605,2.0595,1.9844,1.8976,1.7964,1.7668,1.7405,1.7204,1.742,1.7001,1.6149,1.6149,1.6149,1.6149,1.6149,1.6149,1.6149,1.6149,1.5257,1.3993,0.0,0.0,0.0,0.0,0.0,0.0,0.0,0.0,0.0,0.0,0.0,0.0,0.0,0.0,0.0,0.0,0.0,2.2296,2.2296,0.0,2.2563,2.2873,2.32,2.3533,2.3876,2.4606,2.5246,2.5833,2.6355,2.675,2.7067,2.7005,2.7257,2.7797,2.7721,2.8185,2.8993,2.8993,2.9281,2.9668,2.9196,2.9281,2.96,2.8619,2.823,0.0,0.0,0.0,0.0,2.6249,2.5652,2.5153,2.4848,2.5256,2.6016,2.6988,2.7429,2.76,2.76,2.751,2.7453,2.77,2.7769,2.7732,2.7643,2.7737,2.7755,2.7486,2.7595,2.7911,2.8498,2.8762,2.9076,2.9691,2.9792,2.9792,2.9792,2.9289,2.8774,2.8372,2.7452,2.6329,0.0,0.0,0.0,2.0928,2.0801,2.0732,2.0615,2.0605,2.0605,2.0605,2.0605,2.0605,2.0605,2.0449,2.0176,1.9873,1.9316,1.8691,1.8008,1.8008,1.8008,1.8008,1.8008,1.7647,1.7104,1.7104,1.7104,1.7104,1.7104,1.7104,1.7104,1.7104,1.6507,1.5561,0.0,0.0,0.0,0.0,0.0,0.0,0.0,0.0,0.0,0.0,0.0,0.0,0.0,0.0,0.0,0.0,0.0,0.0,2.2296,0.0,0.0,2.3153,2.3488,2.3816,2.417,2.4262,2.5051,2.6562,2.6654,2.7115,2.7929,2.8985,2.8891,2.7876,2.8991,2.9299,2.9007,2.9058,2.9073,2.9072,2.9055,2.9055,2.9072,2.9004,0.0,0.0,0.0,0.0,0.0,2.6789,2.5784,2.5329,2.5461,2.6016,2.6829,2.8086,2.8042,2.76,2.76,2.763,2.7809,2.8442,2.802,2.7793,2.9016,2.8679,2.8033,2.7749,2.8112,2.839,0.0,0.0,2.9076,2.9654,2.9779,2.9792,2.9792,2.9315,2.9176,0.0,0.0,0.0,0.0,0.0,0.0,2.1669,0.0,2.1085,2.0664,2.0615,2.0605,2.0605,2.0605,2.0605,2.0605,2.0127,1.9446,1.8598,1.8598,1.8383,1.8008,1.8008,1.8008,1.8008,1.8008,1.8008,1.8008,1.8008,1.8008,1.8008,1.8008,1.8008,1.8008,1.8008,1.7451,1.6533,0.0,0.0,0.0,0.0,0.0,0.0,0.0,0.0,0.0,0.0,0.0,0.0,0.0,0.0,0.0,0.0,0.0,0.0,0.0,0.0,0.0,0.0,0.0,2.3224,2.3816,2.4998,2.5792,0.0,0.0,2.7939,2.7897,2.7889,2.8018,2.8268,2.8869,2.9136,2.9175,2.9739,3.0025,3.0065,0.0,2.9621,2.9984,0.0,0.0,0.0,0.0,0.0,2.7713,2.81,2.7575,2.6775,2.6863,2.6763,2.6771,2.7589,2.771,2.76,2.76,2.7974,2.8382,2.8562,2.9134,2.9613,2.9377,2.95,2.9321,2.7992,2.7808,2.7829,2.7559,2.7946,0.0,2.9026,2.9515,0.0,2.9792,2.9666,0.0,2.9779,2.9409,2.8858,2.8024,2.7695,0.0,0.0,2.3298,2.2055,2.1104,2.0752,2.0605,2.0605,2.0605,2.0605,2.0605,2.0127,1.9446,1.8598,1.8598,1.8383,1.8008,1.8008,1.8008,1.8008,1.8008,1.8008,1.8008,1.8008,1.8008,1.8008,1.8008,1.8008,1.8008,1.8008,1.7837,1.7623,0.0,0.0,0.0,0.0,0.0,0.0,0.0,0.0,0.0,0.0,0.0,0.0,0.0,0.0,0.0,0.0,0.0,0.0,0.0,0.0,0.0,0.0,2.2848,2.3093,2.3459,2.5034,2.5809,0.0,0.0,0.0,0.0,2.7486,2.7571,2.7843,2.8167,2.8349,2.8461,2.9174,0.0,0.0,0.0,0.0,0.0,0.0,0.0,0.0,0.0,0.0,2.8238,2.8642,2.833,2.7841,2.8144,2.8084,2.804,2.8693,2.849,2.8049,2.8049,2.8308,2.8607,2.8607,2.9355,3.0052,2.9882,3.0133,2.9983,2.8566,2.8266,2.8073,2.7414,2.7733,2.8285,2.88,0.0,0.0,2.9792,2.9792,2.9792,0.0,2.9792,0.0,2.8897,2.8858,2.8182,0.0,2.4417,2.2804,2.2007,2.1075,2.0605,2.0605,2.0605,2.0429,2.0048,1.9756,1.9209,1.8325,1.8325,1.8208,1.8008,1.8008,1.8008,1.8008,0.0,1.8008,1.8008,1.8008,1.8008,1.8008,1.8008,1.8008,1.8008,1.8008,1.8008,1.8008,0.0,0.0,0.0,0.0,0.0,0.0,0.0,0.0,0.0,0.0,0.0,0.0,0.0,0.0,0.0,0.0,0.0,0.0,0.0,0.0,0.0,0.0,2.2962,2.3202,2.3327,2.4817,2.5557,0.0,0.0,0.0,0.0,0.0,0.0,0.0,0.0,0.0,0.0,0.0,0.0,0.0,0.0,0.0,0.0,0.0,0.0,0.0,0.0,2.9157,2.9088,2.8559,2.8453,2.8611,2.9061,2.94,2.9699,3.0236,2.9605,2.8727,2.8727,2.8786,2.8846,2.8846,2.9355,2.9983,3.0507,3.0642,3.035,2.9361,2.9097,2.8655,2.7544,2.7754,2.826,2.87,2.9365,2.9792,2.9792,2.9792,2.9792,2.9792,2.9792,2.9792,2.9792,2.9792,2.9181,2.7642,2.529,2.3688,2.3111,2.1745,2.0914,2.07,2.0594,2.0106,1.9209,1.9199,1.8799,1.8008,1.8008,1.8008,1.8008,1.8008,1.8008,1.8008,0.0,0.0,1.8008,1.8008,1.8008,1.8008,1.8008,1.8008,1.8008,1.8008,1.8008,1.8008,0.0,0.0,0.0,0.0,0.0,0.0,0.0,0.0,0.0,0.0,1.8545,1.931,0.0,0.0,0.0,0.0,0.0,0.0,0.0,0.0,0.0,0.0,2.2545,2.3177,2.4005,2.538,2.5831,0.0,0.0,0.0,0.0,0.0,0.0,0.0,0.0,0.0,0.0,0.0,0.0,0.0,0.0,0.0,0.0,0.0,0.0,0.0,2.7919,2.7919,2.7894,2.7785,2.8458,2.924,2.8845,2.9136,2.9633,2.9726,2.9597,2.9442,2.9442,2.9789,3.0178,3.0178,3.0658,3.1197,3.1301,3.1331,3.11,3.024,2.9504,2.8712,2.7802,2.7889,2.8134,2.8235,2.9114,2.9792,2.9792,2.9792,2.9792,0.0,2.9792,2.9792,2.9792,2.9792,0.0,0.0,0.0,2.5447,2.406,2.3348,2.2455,2.1318,2.0462,1.9609,1.8724,1.8715,1.8471,1.8008,1.8008,1.8008,1.8008,1.8008,1.8008,1.8008,1.8008,0.0,1.8008,1.8008,1.8008,1.8008,1.8008,1.8008,1.8008,1.8008,1.8008,1.8008,0.0,0.0,0.0,0.0,0.0,0.0,0.0,1.5353,1.5826,1.6726,1.7525,1.8344,1.915,1.9755,2.0295,0.0,0.0,0.0,0.0,0.0,0.0,0.0,0.0,2.3076,2.3571,2.4961,2.536,2.4686,0.0,0.0,0.0,0.0,0.0,0.0,0.0,0.0,0.0,0.0,0.0,0.0,0.0,0.0,0.0,0.0,0.0,0.0,0.0,2.7824,2.8079,2.772,2.8238,2.8976,2.8696,2.928,3.0058,3.0058,3.0058,3.0058,3.0058,3.0283,3.0507,3.0507,3.0987,3.1511,3.1511,3.1511,3.1278,3.0464,2.9597,2.8716,2.7855,2.7917,2.8109,2.8109,2.9063,2.9792,2.9792,2.9792,2.9792,2.9792,2.9792,2.9792,2.9792,2.9515,2.9114,2.8549,0.0,2.6395,2.5089,2.4042,2.2853,2.1439,2.1356,2.0699,1.9277,1.9267,1.9089,1.8654,1.8202,1.8008,1.8008,1.8008,1.8008,1.8008,1.8008,0.0,1.8008,1.8008,1.8008,1.8008,1.8008,1.8008,1.8008,1.8008,1.8008,1.8008,0.0,0.0,0.0,0.0,0.0,0.0,0.0,1.4514,1.4912,1.601,1.6671,1.7447,1.8561,1.9385,2.0036,0.0,0.0,0.0,0.0,0.0,0.0,0.0,0.0,0.0,2.3293,0.0,0.0,2.4139,2.4683,0.0,0.0,0.0,0.0,0.0,0.0,0.0,0.0,0.0,0.0,0.0,0.0,0.0,0.0,0.0,0.0,0.0,0.0,2.8118,2.8517,2.8004,2.8079,2.8382,2.8382,2.9355,3.0507,3.0507,3.0612,3.0717,3.0717,3.0717,3.0717,3.0717,3.1107,3.1511,3.1511,3.1511,3.1322,3.0673,2.9721,2.878,2.8117,2.7954,2.7971,2.8084,2.895,2.9654,2.9779,2.9792,2.9792,2.9792,2.9679,0.0,2.9616,2.9089,0.0,0.0,0.0,0.0,2.5985,2.4477,2.3097,2.1905,2.2212,2.1633,2.0071,1.9857,1.9611,1.9299,1.8428,1.8008,1.8008,1.8008,1.8008,1.8008,1.8008,0.0,0.0,1.8008,1.8008,1.8008,1.8008,1.8008,1.7998,1.791,1.7871,1.7861,0.0,0.0,0.0,0.0,0.0,0.0,0.0,1.3886,1.4234,1.5276,1.6033,1.6859,1.7869,1.9091,1.9822,0.0,0.0,0.0,0.0,0.0,0.0,0.0,0.0,0.0,0.0,0.0,0.0,2.4268,2.3748,0.0,0.0,0.0,0.0,0.0,0.0,2.2918,0.0,0.0,0.0,0.0,0.0,0.0,0.0,0.0,0.0,0.0,0.0,2.8376,2.8592,2.8532,2.8128,2.769,2.769,2.8966,3.0507,3.0507,3.0913,3.1406,3.1406,3.1406,3.1406,3.1406,3.1451,3.1511,3.1511,3.1511,3.1467,3.1409,3.0103,2.8971,2.8907,2.8048,2.7519,2.8021,2.8612,2.9189,2.9716,2.9792,2.9792,2.9792,0.0,0.0,2.8963,2.8511,2.7946,0.0,0.0,0.0,2.6458,2.4971,2.3882,2.3317,2.2014,2.1096,2.0529,1.9758,1.9341,1.9299,1.8428,1.8008,1.8008,1.8008,1.8008,1.8008,1.8008,0.0,0.0,1.8008,1.8008,1.8008,1.8008,1.8008,1.7969,1.7578,1.7474,1.7383,0.0,0.0,0.0,0.0,0.0,0.0,1.255,1.2967,1.3748,1.5067,1.5504,1.6196,1.7577,1.818,1.9008,2.0287,0.0,0.0,0.0,0.0,0.0,0.0,0.0,0.0,0.0,0.0,2.3411,2.3769,2.3094,0.0,0.0,0.0,0.0,0.0,0.0,2.0556,2.0347,0.0,0.0,0.0,0.0,0.0,0.0,0.0,0.0,0.0,0.0,0.0,2.8018,2.8461,2.8143,2.76,2.76,2.8423,2.9445,2.9834,3.0702,3.1511,3.1511,3.1511,3.1511,3.1511,3.1511,3.1511,3.1511,3.1511,3.1511,3.1511,3.0178,2.9002,2.9002,2.8076,2.7469,2.8009,2.8561,2.9126,2.9716,2.9792,2.9666,2.9315,2.9026,0.0,0.0,0.0,2.7381,0.0,0.0,0.0,2.5996,2.5376,2.4557,2.3525,2.3098,2.24,2.1396,2.1049,2.0846,2.0846,1.9977,1.9562,1.9562,1.9011,1.9077,1.9529,1.9011,0.0,0.0,1.9011,1.8624,1.8314,1.7816,1.7471,1.7184,1.7051,1.6992,1.6941,0.0,0.0,0.0,0.0,0.0,1.1491,1.1491,1.2113,1.307,1.4385,1.494,1.5717,1.7109,1.7468,1.8267,1.9922,2.0319,0.0,0.0,0.0,0.0,0.0,0.0,0.0,0.0,0.0,2.2807,2.3378,2.2449,2.1992,0.0,0.0,2.021,2.004,0.0,0.0,0.0,0.0,0.0,0.0,0.0,0.0,0.0,0.0,0.0,0.0,0.0,0.0,0.0,0.0,0.0,2.76,2.76,2.8064,2.8727,2.9412,3.0357,3.1241,3.1451,3.1511,3.1511,3.1511,3.1511,3.1511,3.1511,3.1511,3.1511,3.1511,3.0359,2.938,2.938,2.8517,2.7902,2.8163,2.87,2.9162,2.9491,2.9679,2.9641,2.9239,0.0,2.8536,0.0,2.7457,0.0,0.0,0.0,0.0,0.0,2.5448,2.4847,2.366,2.3703,2.3263,2.2261,2.2002,2.1908,2.1877,2.1005,2.059,2.059,1.9944,2.0009,2.0558,0.0,0.0,0.0,1.9944,1.9243,1.8574,1.8211,1.7668,1.7045,1.7153,1.7041,1.6846,0.0,0.0,0.0,0.0,0.0,0.0,1.0813,1.1391,1.2137,1.3005,1.4321,1.5516,1.6416,1.7174,1.7807,1.827,1.9179,0.0,0.0,0.0,0.0,0.0,0.0,0.0,0.0,0.0,2.2692,2.3298,2.1785,2.1027,2.1009,2.0723,2.0279,1.9716,0.0,0.0,0.0,0.0,0.0,0.0,0.0,0.0,0.0,0.0,0.0,0.0,0.0,0.0,0.0,0.0,0.0,0.0,0.0,2.8064,2.8727,2.9412,3.0028,3.0672,3.1316,3.1511,3.1511,3.1511,3.1511,3.1511,3.1511,3.1511,3.1511,3.1511,3.0837,3.0299,3.0299,2.958,2.8876,2.853,2.9,2.9298,2.8962,2.9428,2.9792,0.0,0.0,2.8109,2.8109,2.714,0.0,0.0,0.0,0.0,0.0,2.5109,2.455,2.4017,2.3409,2.3108,2.3078,2.2292,2.1908,2.1877,2.1005,2.059,2.059,2.059,2.059,0.0,0.0,0.0,0.0,2.059,1.979,1.8659,1.9394,1.8893,1.783,1.8156,1.7817,1.7238,0.0,0.0,0.0,0.0,0.0,0.0,0.0,1.0695,1.1593,1.2924,1.3484,1.426,1.5591,1.6252,1.6756,1.7165,1.8147,0.0,0.0,0.0,0.0,0.0,0.0,0.0,0.0,0.0,2.0853,2.1445,2.0973,2.0873,2.1128,2.0151,1.9779,1.9819,1.9116,0.0,0.0,0.0,0.0,0.0,0.0,0.0,0.0,0.0,0.0,0.0,0.0,0.0,0.0,0.0,0.0,0.0,0.0,0.0,0.0,2.8712,2.937,2.9924,3.0133,3.0507,3.0836,3.0836,3.1152,3.1511,3.1511,3.1511,3.1511,3.1511,3.0866,3.0299,3.0299,2.9597,2.9044,2.9106,2.9263,2.9428,2.9492,2.934,0.0,2.8687,2.7657,2.7014,0.0,0.0,0.0,0.0,0.0,0.0,0.0,2.4556,2.418,2.4004,2.3409,2.3108,2.3108,2.2854,2.272,2.272,2.2067,2.1959,2.2267,2.1289,0.0,0.0,0.0,0.0,0.0,2.1278,2.0456,1.9762,1.9025,1.8298,1.7685,1.7784,1.7673,1.7483,0.0,0.0,0.0,0.0,0.0,0.0,0.0,0.9987,1.0878,1.2115,1.2749,1.3561,1.4809,1.5651,1.6271,1.6658,1.7462,0.0,0.0,0.0,0.0,0.0,0.0,0.0,0.0,2.0206,2.0202,2.059,2.0268,2.026,2.0467,1.9335,1.9012,1.9386,1.8424,0.0,0.0,0.0,0.0,0.0,0.0,0.0,0.0,0.0,0.0,0.0,0.0,0.0,0.0,0.0,0.0,0.0,0.0,0.0,0.0,0.0,2.8471,2.9325,2.9804,3.0208,3.0567,3.0821,3.1182,3.1511,3.1511,3.1511,3.1511,3.1511,3.1087,3.0748,3.0748,3.0299,2.9913,2.9767,3.0139,3.0354,3.0213,0.0,0.0,2.792,0.0,0.0,0.0,0.0,0.0,0.0,0.0,0.0,0.0,2.4293,2.3803,2.3376,2.2982,2.2794,2.2794,2.2594,2.2493,2.2481,2.2343,2.2456,2.2794,2.2114,0.0,0.0,0.0,0.0,0.0,2.1778,2.0957,2.0044,1.9446,1.8712,1.8058,1.834,1.8248,1.8058,0.0,0.0,0.0,0.0,0.0,0.0,0.0,0.9342,1.0,1.0788,1.2078,1.3245,1.4034,1.527,1.6208,1.6595,0.0,0.0,0.0,0.0,0.0,0.0,0.0,0.0,0.0,2.0164,2.0441,2.0453,1.9606,1.922,1.9218,1.8381,1.8217,1.8627,1.8178,0.0,0.0,0.0,0.0,0.0,0.0,0.0,0.0,0.0,0.0,0.0,0.0,0.0,0.0,0.0,0.0,0.0,0.0,0.0,0.0,0.0,0.0,0.0,0.0,3.0432,3.0612,3.1256,3.1466,3.1511,3.1511,3.1511,0.0,3.1511,3.1511,3.1511,3.157,3.154,3.1249,3.0535,3.1377,3.1771,0.0,3.0521,0.0,0.0,2.7417,0.0,0.0,0.0,0.0,0.0,0.0,0.0,0.0,2.4205,2.3401,2.2347,2.2234,2.2209,2.2246,2.1744,2.1493,2.1493,2.197,2.2221,2.2272,2.2706,0.0,0.0,0.0,0.0,0.0,2.1995,2.1202,1.9756,2.0387,1.9879,1.8847,1.9553,1.9371,1.8874,0.0,0.0,0.0,0.0,0.0,0.0,0.0,0.0,0.0,0.0,1.121,1.1898,1.3137,1.4702,1.5679,0.0,0.0,0.0,0.0,0.0,0.0,0.0,0.0,0.0,0.0,1.9034,1.8748,1.9091,1.8564,1.8472,1.8745,1.8223,1.8408,1.9102,1.835,0.0,0.0,0.0,0.0,0.0,0.0,0.0,0.0,0.0,0.0,0.0,2.3108,2.3215,0.0,0.0,0.0,0.0,0.0,0.0,0.0,0.0,2.7125,2.8124,2.9457,0.0,2.9953,3.0582,3.1122,3.1511,0.0,3.1511,3.1511,3.1511,3.1511,3.166,3.2168,3.1854,3.1545,3.1645,3.1907,3.1771,3.0764,3.0234,0.0,2.8725,2.8598,2.8296,0.0,0.0,0.0,0.0,0.0,0.0,0.0,2.3251,2.2585,2.2322,2.1493,2.1282,2.1681,2.1556,2.1493,2.1493,2.1219,2.1307,2.1669,2.138,0.0,0.0,0.0,0.0,2.1496,2.1207,2.0849,2.0414,2.0122,1.982,1.9553,1.9747,1.9695,1.9553,0.0,0.0,0.0,0.0,0.0,0.0,0.0,0.0,0.0,0.0,0.0,0.0,0.0,0.0,0.0,0.0,0.0,0.0,0.0,0.0,0.0,0.0,0.0,0.0,1.8988,1.8354,1.8125,1.8315,1.8125,1.8125,1.8315,1.8081,1.8359,1.8965,1.8506,0.0,0.0,0.0,0.0,0.0,0.0,0.0,0.0,0.0,0.0,0.0,2.3108,2.3108,0.0,2.3108,2.3395,2.3738,0.0,0.0,0.0,0.0,2.6977,2.8229,2.8936,2.9382,2.9804,3.0746,3.1227,3.1511,3.1511,3.1511,3.1511,3.1511,3.1511,3.1615,3.1974,3.175,3.1678,3.2187,3.2271,3.1944,0.0,0.0,3.0069,2.9103,2.9002,0.0,0.0,0.0,0.0,0.0,0.0,0.0,0.0,2.2786,2.2083,2.1568,2.1006,2.083,2.1131,2.0853,2.0715,2.0715,2.0717,2.0842,2.1131,2.1094,2.1094,0.0,0.0,0.0,2.0715,2.0704,2.0541,2.0238,1.9924,1.9798,1.9798,1.9798,1.9798,1.9798,0.0,0.0,0.0,0.0,0.0,0.0,0.0,0.0,0.0,0.0,0.0,0.0,0.0,0.0,0.0,0.0,0.0,0.0,0.0,0.0,0.0,0.0,0.0,1.7676,1.8096,1.8047,1.8076,1.8203,1.8076,1.8047,1.8105,1.8105,1.8256,1.8598,1.8666,1.8471,0.0,0.0,0.0,0.0,0.0,0.0,0.0,0.0,0.0,0.0,0.0,0.0,0.0,2.3108,2.3108,2.3108,2.3108,0.0,0.0,0.0,0.0,0.0,2.8697,2.916,2.9864,3.1047,3.1346,3.1346,3.1346,3.1271,3.1241,3.1331,3.1346,3.1406,3.1615,3.1645,3.1839,3.2392,0.0,0.0,3.1486,3.1306,3.0769,2.9529,2.9296,0.0,0.0,0.0,0.0,0.0,0.0,0.0,0.0,2.2792,2.1987,2.0877,2.0763,2.066,2.0566,2.0075,1.9798,1.9811,2.0327,2.0566,2.0578,2.1016,2.1006,0.0,0.0,0.0,1.9836,2.0352,2.0264,1.9798,1.9798,1.9798,1.9798,1.9798,1.9798,1.9798,0.0,0.0,0.0,0.0,0.0,0.0,0.0,0.0,0.0,0.0,0.0,0.0,0.0,0.0,0.0,0.0,0.0,0.0,0.0,0.0,0.0,0.0,1.8369,1.8115,1.85,1.8159,1.8359,1.9092,1.8359,1.8159,1.851,1.851,1.8539,1.8617,1.9023,1.8945,1.851,0.0,0.0,0.0,0.0,0.0,0.0,0.0,0.0,0.0,0.0,0.0,0.0,2.3108,2.3108,2.3108,2.3108,0.0,0.0,0.0,0.0,0.0,2.9157,2.9532,2.9786,3.0477,3.0657,3.0657,3.0657,3.0253,3.0028,3.0552,3.0657,3.1016,3.2123,3.2333,3.2392,3.2467,0.0,3.181,0.0,0.0,3.1352,3.1131,0.0,0.0,0.0,0.0,0.0,0.0,0.0,0.0,0.0,2.3701,2.2814,2.1511,2.1014,2.0513,1.9936,1.9849,1.9798,1.9798,1.9886,1.9936,1.9936,2.0024,2.0012,0.0,0.0,1.9962,1.9811,1.9899,1.9874,1.9798,1.9798,1.9798,1.9798,1.9798,1.9798,1.9798,0.0,0.0,0.0,0.0,0.0,0.0,0.0,0.0,0.0,0.0,0.0,0.0,0.0,0.0,0.0,0.0,0.0,0.0,0.0,0.0,0.0,1.7823,1.7603,1.7729,1.8256,1.8105,1.8203,1.8594,1.8203,1.8105,1.8266,1.849,1.8724,1.8994,1.9199,1.918,1.9004,1.9192,0.0,0.0,0.0,0.0,0.0,0.0,0.0,0.0,0.0,0.0,0.0,0.0,2.3108,2.3108,2.3108,0.0,0.0,0.0,0.0,0.0,2.8349,2.8798,2.9205,2.9849,3.0537,3.1032,3.1032,3.0823,3.0717,3.0972,3.1032,3.1227,3.1839,3.2243,3.2512,3.2512,0.0,3.2019,3.1959,3.169,3.1376,0.0,0.0,0.0,0.0,0.0,0.0,0.0,0.0,0.0,0.0,0.0,2.2476,2.1218,2.0941,2.0472,1.9798,1.9798,1.9798,1.9798,1.9798,1.9798,1.9798,1.9798,1.9798,1.9798,0.0,1.9798,1.9798,1.9798,1.9798,1.9798,1.9798,1.9798,1.9798,1.9798,1.9798,1.9798,0.0,0.0,0.0,0.0,0.0,0.0,0.0,0.0,0.0,0.0,0.0,0.0,0.0,0.0,0.0,0.0,0.0,0.0,0.0,0.0,1.6042,1.6703,1.6911,1.732,1.7983,1.8008,1.8057,1.812,1.8057,1.8115,1.832,1.8633,1.9023,1.9434,1.9434,1.9434,1.9453,1.9775,1.9971,0.0,0.0,0.0,0.0,0.0,0.0,0.0,0.0,0.0,0.0,0.0,0.0,0.0,0.0,0.0,0.0,2.5398,2.6428,2.763,2.7794,2.8203,2.8757,2.9415,3.0223,3.0898,3.1197,3.1032,3.0913,3.1197,3.1271,3.1316,3.1466,3.1914,0.0,3.2452,3.2377,3.2019,3.1361,3.1271,0.0,0.0,0.0,0.0,0.0,0.0,0.0,0.0,0.0,0.0,0.0,0.0,2.2519,2.1286,2.1248,2.093,2.0257,2.0093,1.9952,1.9798,1.9798,1.9798,1.9798,1.9798,1.9798,1.9798,1.9798,1.9798,1.9798,1.9798,1.9798,1.9798,1.9798,1.9798,1.9798,1.9798,1.9798,1.9798,0.0,0.0,0.0,0.0,0.0,0.0,0.0,0.0,0.0,0.0,0.0,0.0,0.0,0.0,0.0,0.0,0.0,0.0,0.0,0.0,1.5178,1.7063,1.7054,1.732,1.7983,1.8008,1.8169,1.8559,1.8169,1.8418,1.9199,1.9228,1.9463,1.9873,1.9873,1.9873,1.9873,1.9902,2.0146,2.0527,0.0,0.0,0.0,0.0,0.0,0.0,0.0,0.0,0.0,0.0,0.0,0.0,0.0,0.0,2.5398,2.5398,2.6428,2.7735,2.8353,2.8562,2.8757,2.9415,2.919,2.9116,3.0313,2.9654,2.9146,3.0328,3.0567,3.0748,3.1391,3.154,3.178,3.2392,3.1974,3.1331,3.0672,0.0,0.0,0.0,0.0,0.0,0.0,0.0,0.0,0.0,0.0,0.0,0.0,0.0,0.0,2.2595,2.2558,2.223,2.1578,2.1015,2.0434,1.9798,1.9798,1.9798,1.9798,1.9798,1.9798,1.9798,1.9798,1.9798,1.9798,1.9798,1.9798,1.9798,1.9798,1.9798,1.9798,1.9798,1.9798,1.9798,0.0,0.0,0.0,0.0,0.0,0.0,0.0,0.0,0.0,0.0,0.0,0.0,0.0,0.0,0.0,0.0,0.0,0.0,0.0,0.0,1.385,1.4981,1.573,1.6437,1.7113,1.7681,1.8052,1.8217,1.8315,1.8701,1.9297,1.9561,1.9912,2.0361,2.0361,2.0361,2.0361,2.0361,2.0458,2.0586,2.0429,0.0,0.0,0.0,0.0,0.0,0.0,0.0,0.0,0.0,2.3108,2.3108,2.3108,2.3872,2.4777,2.4777,2.5526,2.6497,2.7171,2.735,2.7619,2.8697,2.8457,2.8438,3.0118,3.0133,3.0043,3.0928,3.1122,3.1197,0.0,0.0,3.0943,3.1225,3.0731,3.0223,0.0,0.0,0.0,0.0,0.0,0.0,0.0,0.0,0.0,0.0,0.0,0.0,0.0,0.0,0.0,2.2731,2.2694,2.2369,2.1697,2.1472,2.1232,2.0988,2.0608,2.0207,1.9798,2.022,2.0207,1.9798,1.9798,1.9798,1.9798,1.9798,1.9798,1.9798,1.9798,1.9798,1.9798,1.9798,1.9798,1.9798,0.0,0.0,0.0,0.0,0.0,0.0,0.0,0.0,0.0,0.0,0.0,0.0,0.0,0.0,0.0,0.0,0.0,0.0,0.0,1.2368,1.2912,1.3531,1.4871,1.5916,1.6576,1.7501,1.8008,1.8008,1.8266,1.8763,1.9482,1.9648,2.0019,2.0595,2.0458,2.0478,2.0586,2.0312,2.0351,2.0595,2.0458,2.0287,0.0,0.0,0.0,0.0,0.0,0.0,0.0,0.0,2.2844,2.2836,2.2854,2.3581,2.4403,2.4434,2.5131,2.6019,2.6467,2.6761,2.7151,2.8053,2.7944,2.8004,2.9549,3.0058,3.0462,3.1316,3.1331,3.1182,3.1182,0.0,0.0,0.0,2.9864,0.0,0.0,0.0,0.0,0.0,0.0,0.0,0.0,0.0,0.0,0.0,0.0,0.0,0.0,0.0,0.0,0.0,2.2987,2.2756,2.2294,2.2109,2.203,2.1993,2.1595,2.0955,2.0131,2.0597,2.056,2.0105,1.9901,1.9927,2.0131,2.0131,2.0131,2.0093,1.9875,1.9798,1.9798,1.9798,1.9798,1.9798,0.0,0.0,0.0,0.0,0.0,0.0,0.0,0.0,0.0,0.0,0.0,0.0,0.0,0.0,0.0,0.0,0.0,0.0,1.1879,1.2131,1.2594,1.3274,1.4772,1.5916,1.6567,1.751,1.8018,1.8018,1.8018,1.8672,1.9902,1.9492,1.9783,2.0576,2.0107,2.0156,2.0537,1.9686,1.9813,2.0556,2.0088,1.9658,0.0,0.0,0.0,0.0,0.0,0.0,0.0,0.0,2.2322,2.2337,2.2381,0.0,0.0,2.4465,2.5487,2.6572,2.6572,2.7091,2.7585,2.76,2.76,2.7779,2.8442,2.9101,2.9953,3.1227,3.0986,3.0492,3.0492,3.0011,0.0,2.9592,0.0,0.0,0.0,0.0,0.0,0.0,0.0,0.0,0.0,0.0,0.0,0.0,0.0,0.0,0.0,0.0,0.0,0.0,2.3595,2.3595,2.3595,2.3009,2.2694,2.2694,2.2694,2.2035,2.0795,2.082,2.082,2.0771,2.0105,2.0207,2.0795,2.0795,2.0795,2.0746,2.008,1.9798,1.9798,1.9798,1.9798,1.9798,0.0,0.0,0.0,0.0,0.0,0.0,0.0,0.0,0.0,0.0,0.0,0.0,0.0,0.0,0.0,0.0,0.0,0.0,0.0,1.1602,1.1877,1.2318,1.4022,1.5182,1.5614,1.7462,1.8412,1.8412,1.876,1.9102,1.9482,1.9999,2.0038,1.9678,1.9844,1.9824,1.9686,1.9394,1.9434,1.9678,1.9844,1.9446,0.0,0.0,0.0,0.0,0.0,0.0,0.0,0.0,0.0,0.0,2.2452,0.0,2.4251,2.3417,2.412,2.5292,2.5779,2.6033,2.6422,2.736,2.76,2.7891,2.8971,2.9414,2.994,3.1189,3.0918,3.0346,2.9872,2.9297,0.0,0.0,0.0,0.0,0.0,0.0,0.0,0.0,0.0,0.0,0.0,0.0,0.0,0.0,0.0,0.0,0.0,0.0,0.0,0.0,2.3595,2.3595,2.3595,2.3421,2.3334,2.3334,2.3334,2.2665,2.1448,2.1927,2.188,2.14,2.0782,2.0856,2.14,2.0979,2.1053,2.1366,2.0758,2.0497,2.0497,2.0497,2.0497,2.0434,0.0,0.0,0.0,0.0,0.0,0.0,0.0,0.0,0.0,0.0,0.0,0.0,0.0,0.0,0.0,0.0,0.0,0.0,0.0,0.0,1.151,1.1683,1.3751,1.5426,1.6519,1.8086,1.8975,1.9104,1.9062,1.9199,1.9541,1.9717,1.9619,1.9287,1.9375,1.9365,1.9268,1.8926,1.8975,1.9287,1.9375,1.9056,1.8733,0.0,0.0,0.0,0.0,0.0,0.0,0.0,0.0,0.0,2.242,2.328,2.4265,2.3562,2.4312,2.5472,2.5899,2.6183,2.6572,2.7405,2.7785,2.8284,2.9583,3.0095,3.0536,3.1253,3.0897,3.0351,2.9929,2.9326,0.0,0.0,0.0,0.0,0.0,0.0,0.0,0.0,0.0,0.0,0.0,0.0,0.0,0.0,0.0,0.0,0.0,0.0,0.0,0.0,2.3355,2.3236,2.3236,2.2966,2.2847,2.2847,2.3116,2.2826,2.2112,2.2511,2.2475,2.2077,2.1714,2.1762,2.2053,2.1428,2.1534,2.203,2.139,2.1161,2.1161,2.1161,2.1161,2.1113,0.0,0.0,0.0,0.0,0.0,0.0,0.0,0.0,0.0,0.0,0.0,0.0,0.0,0.0,0.0,0.0,0.0,0.0,0.0,0.0,1.1402,1.1429,1.3882,1.6297,1.8518,1.9104,1.9531,1.9912,1.9056,1.9056,1.9844,1.9026,1.8867,1.915,1.8763,1.8838,1.9121,1.834,1.8457,1.9141,1.8744,1.8578,1.8654,1.9455,0.0,0.0,0.0,0.0,0.0,0.0,0.0,0.0,2.2473,2.342,2.4483,2.4519,2.5502,2.6587,2.6587,2.7046,2.755,2.7645,2.8189,2.8975,3.013,3.0845,3.1294,3.1374,0.0,3.0288,3.0293,2.9678,0.0,0.0,0.0,0.0,0.0,0.0,0.0,0.0,0.0,0.0,0.0,0.0,0.0,0.0,0.0,0.0,0.0,0.0,0.0,2.352,2.2942,2.2613,2.2613,2.1994,2.1695,0.0,2.2328,2.2613,2.2607,2.2681,2.2667,2.2622,2.2733,2.274,2.2649,2.2053,2.217,2.2717,2.2053,2.1805,2.1805,2.1805,2.1805,2.1781,0.0,0.0,0.0,0.0,0.0,0.0,0.0,0.0,0.0,0.0,0.0,0.0,0.0,0.0,0.0,0.0,0.0,0.0,0.0,0.0,1.153,1.1799,1.4266,1.6519,1.8327,1.9306,1.9824,1.9912,1.9394,1.9248,1.9414,1.9238,1.8838,1.8291,1.849,1.8471,1.8271,1.8086,1.8115,1.8311,1.851,1.8403,1.8184,1.868,1.9165,0.0,0.0,0.0,0.0,0.0,0.0,0.0,2.3143,2.4094,2.5119,2.4762,2.5575,2.6587,2.6587,2.6716,2.7063,2.8051,2.9111,2.9984,3.0255,3.0352,3.0567,3.1188,3.0377,2.9515,2.9473,2.8495,0.0,0.0,0.0,0.0,0.0,0.0,0.0,0.0,0.0,0.0,0.0,0.0,0.0,0.0,0.0,0.0,0.0,0.0,0.0,2.2897,2.2269,2.1924,2.1924,2.1769,2.1695,0.0,2.1844,2.1924,2.1934,2.2453,2.2423,2.1967,2.2966,2.3143,2.2694,2.2543,2.2852,2.3355,2.2725,2.2475,2.2475,2.2475,2.2475,2.2406,0.0,0.0,0.0,0.0,0.0,0.0,0.0,0.0,0.0,0.0,0.0,0.0,0.0,0.0,0.0,0.0,0.0,0.0,0.0,0.0,1.2043,1.2953,1.4996,1.6693,1.7997,1.9269,0.0,1.9609,1.918,1.8975,1.8975,1.8975,1.874,1.8286,1.851,1.8481,1.8256,1.8096,1.8008,1.8027,1.8217,1.8203,1.8037,1.8217,1.872,1.9398,2.0301,0.0,0.0,0.0,0.0,0.0,0.0,0.0,2.5245,2.4399,2.5548,2.7016,2.6701,2.7055,2.7801,2.9039,2.9827,3.0273,3.0225,3.0149,3.0114,3.0189,2.9654,2.9136,2.911,0.0,0.0,0.0,0.0,0.0,0.0,0.0,0.0,0.0,0.0,0.0,0.0,0.0,0.0,0.0,0.0,0.0,0.0,2.2383,2.2224,2.2224,2.1575,2.1231,2.1231,2.0902,2.0737,2.0756,2.1066,2.1231,2.1246,2.1924,2.2025,2.175,2.2736,2.2975,2.271,2.3003,2.3312,2.3573,2.3253,2.312,2.312,2.312,2.312,2.3076,0.0,0.0,0.0,0.0,0.0,0.0,0.0,0.0,0.0,0.0,0.0,0.0,0.0,0.0,0.0,0.0,0.0,0.0,0.0,1.1777,1.2651,1.4141,1.553,0.0,0.0,0.0,0.0,1.918,1.8783,1.8598,1.8598,1.8529,1.8529,1.8598,1.8529,1.849,1.8471,1.812,1.8008,1.8008,1.8008,1.8008,1.8008,1.8008,1.8462,1.9177,2.0074,2.0942,2.1815,2.2628,0.0,0.0,0.0,0.0,2.4778,2.4008,2.5369,2.6996,2.6548,2.7357,2.8576,2.9529,3.0049,3.0241,2.9957,2.9922,2.9702,2.8959,2.8807,2.8807,2.8807,0.0,0.0,0.0,0.0,0.0,0.0,0.0,0.0,0.0,0.0,0.0,0.0,0.0,0.0,0.0,0.0,0.0,2.1798,2.1629,2.153,2.153,2.0887,2.0543,2.0543,1.9974,1.9708,1.9708,2.0258,2.0543,2.0557,2.1096,2.141,2.156,2.2239,2.2523,2.2568,2.3056,2.3266,2.3281,2.34,2.343,2.3445,2.3565,2.3595,2.3595,0.0,0.0,0.0,0.0,0.0,0.0,0.0,0.0,0.0,0.0,1.2091,1.2144,1.1933,1.1866,0.0,0.0,0.0,0.0,1.1826,0.0,0.0,1.4149,0.0,0.0,0.0,0.0,0.0,1.8685,1.8627,1.8598,1.8598,1.8227,1.8256,1.8588,1.8252,1.8096,1.8086,1.8037,1.8008,1.8008,1.8008,1.8008,1.8008,1.8008,1.8076,1.8303,1.9177,2.0042,2.091,2.1772,2.2201,0.0,0.0,0.0,2.3164,2.4251,2.4809,2.517,2.5607,2.6664,2.7647,2.7684,2.9007,3.0108,2.9319,2.9145,2.8907,0.0,2.7959,2.7959,0.0,0.0,0.0,0.0,0.0,0.0,0.0,0.0,0.0,0.0,0.0,0.0,0.0,0.0,0.0,0.0,0.0,0.0,2.2217,2.1337,2.0823,2.0823,2.0183,1.9842,1.9842,1.9753,1.9708,1.9708,1.9798,1.9842,1.9842,1.9932,2.0273,2.0868,2.1545,2.1829,2.1829,2.1919,2.1949,2.2009,2.2598,2.2823,2.2882,2.34,2.3595,2.3595,0.0,0.0,0.0,0.0,0.0,0.0,0.0,0.0,0.0,0.0,0.0,1.2047,1.1919,1.1611,0.0,0.0,0.0,0.0,1.1597,1.1744,0.0,0.0,0.0,0.0,0.0,0.0,1.8477,1.8247,1.7769,1.8032,1.8994,1.8529,1.8676,1.9309,1.916,1.8945,1.8691,1.8213,1.8008,1.8008,1.8008,1.8008,1.8008,1.8008,1.7861,1.778,1.8596,1.9274,1.9884,2.0788,2.1414,2.1851,2.1871,0.0,0.0,0.0,2.3812,2.4898,2.5841,2.651,2.7074,2.7664,2.8476,2.8969,2.846,2.8332,2.8112,2.7351,2.7182,2.7182,0.0,0.0,0.0,0.0,0.0,0.0,0.0,0.0,0.0,0.0,0.0,0.0,0.0,0.0,0.0,0.0,0.0,2.1175,2.1175,2.0531,2.0139,2.0139,1.9839,1.9708,1.9708,1.9708,1.9708,1.9708,1.9708,1.9708,1.9708,1.9708,1.9872,2.0183,2.0857,2.1141,2.1171,2.1545,2.1695,2.1754,2.2448,2.2478,2.2224,2.2868,2.2868,2.2532,0.0,0.0,0.0,0.0,0.0,0.0,0.0,0.0,0.0,0.0,0.0,0.0,1.1906,0.0,0.0,0.0,0.0,0.0,1.1303,0.0,0.0,0.0,0.0,0.0,0.0,0.0,1.7852,1.7852,1.7217,1.7715,1.9277,1.9062,1.9329,2.0078,1.9961,1.9619,1.9082,1.8437,1.813,1.812,1.8057,1.8008,1.8008,1.8008,1.7812,1.7629,1.8133,1.8606,1.9099,1.9807,2.0482,2.0971,2.0763,2.1258,0.0,0.0,0.0,2.4425,2.5468,2.5887,2.6206,2.7026,2.7624,2.7852,2.7439,0.0,2.7587,0.0,2.6691,0.0,0.0,0.0,0.0,0.0,0.0,0.0,0.0,0.0,0.0,0.0,0.0,0.0,0.0,0.0,0.0,0.0,0.0,2.0634,2.0634,2.0139,1.9856,1.9856,1.9747,1.9708,1.9708,1.9708,1.9708,1.9708,1.9708,1.9708,1.9708,1.9708,1.9708,1.9738,2.0228,2.0453,2.0483,2.0976,2.1186,2.1246,2.1939,2.1874,2.153,2.2209,2.2134,2.1695,0.0,0.0,0.0,0.0,0.0,0.0,0.0,0.0,0.0,0.0,0.0,0.0,1.1906,0.0,0.0,0.0,0.0,0.0,0.0,0.0,0.0,0.0,0.0,0.0,0.0,1.693,1.7422,1.7422,1.7406,1.8018,1.9297,1.9678,2.0088,2.0546,2.0098,1.9416,1.8627,1.8588,1.8568,1.8539,1.813,1.8008,1.8008,1.8008,1.7998,1.793,1.7586,1.7942,1.868,1.9058,1.9391,1.982,2.0503,2.0353,2.0054,0.0,0.0,0.0,2.3576,2.4222,2.4686,2.4627,2.5982,2.7147,2.6284,0.0,2.7587,2.6843,2.6691,0.0,0.0,0.0,0.0,0.0,0.0,0.0,0.0,0.0,0.0,0.0,0.0,0.0,0.0,0.0,0.0,0.0,0.0,2.1536,2.1536,2.0716,2.0263,2.0263,1.9909,1.9708,1.9708,1.9708,1.9708,1.9708,1.9708,1.9708,1.9708,1.9708,1.9708,1.9708,1.9738,1.9753,1.9753,1.9798,1.9813,1.9872,2.0543,2.0778,2.0823,2.15,2.1724,2.1695,0.0,0.0,0.0,0.0,0.0,0.0,0.0,0.0,0.0,0.0,0.0,0.0,0.0,1.202,1.1819,1.1611,1.1209,0.0,0.0,0.0,0.0,0.0,0.0,0.0,0.0,1.6759,1.7109,1.7383,1.6848,1.723,1.8477,1.8896,1.9143,1.9346,1.9746,1.959,1.9014,1.8432,1.8198,1.8188,1.8076,1.8008,1.8008,1.8008,1.7842,1.7588,1.7432,1.7694,1.8196,1.8868,1.9281,1.9634,2.0436,2.0302,2.0016,2.1075,2.2021,2.283,2.3443,2.349,2.3549,2.4236,2.4863,2.5419,2.5905,2.6584,2.7012,2.6742,2.6691,0.0,0.0,0.0,0.0,0.0,0.0,0.0,0.0,0.0,0.0,0.0,0.0,0.0,0.0,0.0,0.0,0.0,0.0,0.0,2.1597,2.1055,2.06,2.0314,2.0158,2.0089,2.0089,1.9836,1.9836,2.0072,1.9821,1.9708,1.9708,1.9708,1.9708,1.9708,1.9708,1.9708,1.9708,1.9708,1.9708,1.9768,2.0438,2.0438,2.0139,2.0812,2.0782,2.0427,0.0,0.0,0.0,0.0,0.0,0.0,0.0,0.0,0.0,1.2285,0.0,0.0,0.0,0.0,1.2013,1.1913,1.1423,1.1136,1.1136,0.0,0.0,0.0,0.0,0.0,0.0,1.6584,1.6843,1.7168,1.6572,1.6807,1.7812,1.8198,1.8461,1.8617,1.8936,1.9072,1.9033,1.8467,1.8188,1.8178,1.8066,1.8008,1.8008,1.8008,1.7842,1.7578,1.7432,1.7501,0.0,0.0,0.0,1.9233,2.0355,2.0302,2.0016,2.1075,2.17,2.2244,2.3076,2.3016,2.2923,2.3884,2.4209,2.4531,2.5501,2.6104,2.6505,2.6674,2.6691,0.0,0.0,0.0,0.0,0.0,0.0,0.0,0.0,0.0,0.0,0.0,0.0,0.0,0.0,0.0,0.0,0.0,0.0,0.0,2.1823,2.1431,2.1007,2.055,2.0533,2.0533,2.0533,2.0277,2.0261,2.0533,2.0089,1.9909,1.9909,1.9764,1.9708,1.9708,1.9708,1.9708,1.9708,1.9708,1.9708,1.9753,2.0183,2.0094,1.9753,2.0198,2.0079,1.9708,0.0,0.0,0.0,0.0,0.0,0.0,0.0,0.0,1.2085,1.2301,0.0,0.0,0.0,0.0,0.0,1.194,1.161,1.1402,1.1402,1.1395,0.0,0.0,0.0,0.0,1.5914,1.6461,1.6716,1.6716,1.6716,1.6941,1.7393,1.7812,1.8188,1.8529,1.7744,1.7832,1.8539,1.8559,1.8568,1.8549,1.8174,1.8008,1.8008,1.8008,1.8008,1.7959,1.7549,1.7435,0.0,1.8748,0.0,0.0,2.0207,2.0302,1.9927,2.0597,2.0795,2.1066,0.0,0.0,0.0,2.3391,0.0,0.0,2.5019,0.0,2.6105,2.6556,2.6657,0.0,0.0,0.0,0.0,0.0,0.0,0.0,0.0,0.0,0.0,0.0,0.0,0.0,0.0,0.0,0.0,0.0,0.0,2.2313,2.2296,2.1853,2.1414,2.1023,2.1023,2.1023,2.1007,2.1023,2.0991,2.0991,2.0516,2.0297,2.0263,1.9874,1.9708,1.9708,1.9708,1.9708,1.9708,1.9708,1.9708,1.9708,1.9708,1.9708,1.9708,1.9708,1.9708,1.9708,0.0,0.0,0.0,0.0,0.0,1.6026,1.5065,1.4577,1.4063,0.0,0.0,0.0,1.2392,1.2305,1.2271,1.2191,1.1917,1.175,1.175,1.1543,1.1964,1.3244,1.4207,1.5249,1.6387,1.693,1.7207,1.7207,1.7207,1.7266,1.7393,1.7812,1.791,1.7715,1.749,1.7334,1.7252,1.7598,1.791,1.8174,1.8057,1.8008,0.0,0.0,0.0,0.0,0.0,1.7842,1.8071,0.0,1.9809,1.9482,2.0425,2.0302,1.9927,2.0597,2.0795,2.0968,2.1771,0.0,0.0,0.0,0.0,0.0,0.0,0.0,2.5291,2.5326,0.0,0.0,0.0,0.0,0.0,0.0,0.0,0.0,0.0,0.0,0.0,0.0,0.0,0.0,0.0,0.0,0.0,0.0,2.3207,2.2868,2.233,2.1853,2.1536,2.143,2.115,2.1134,2.143,2.115,2.0991,2.0991,2.0516,2.0158,1.9856,1.9747,1.9708,1.9708,1.9708,1.9708,1.9708,1.9708,1.9708,1.9708,1.9708,1.9708,1.9708,1.9708,1.9708,1.9708,0.0,0.0,0.0,0.0,1.7367,1.6866,1.5921,1.5438,1.4985,0.0,0.0,0.0,1.3579,1.3322,1.3093,1.2893,1.2399,1.2087,1.2087,1.2232,1.2874,1.4046,1.498,1.6015,1.7173,1.7321,1.7383,1.7383,1.7383,1.7285,1.7119,1.7363,1.7344,1.709,1.6728,1.6621,1.6707,1.6807,1.7187,1.7764,1.7939,0.0,0.0,1.8008,1.8008,0.0,0.0,0.0,1.8202,1.9595,2.0128,0.0,0.0,2.0465,2.0191,2.0347,2.0371,2.0522,2.1148,2.1522,2.1761,0.0,0.0,0.0,2.3626,2.4071,0.0,0.0,0.0,0.0,0.0,0.0,0.0,0.0,0.0,0.0,0.0,0.0,0.0,0.0,0.0,0.0,0.0,0.0,0.0,2.4323,2.3748,2.3071,2.233,2.2032,2.1899,2.1899,2.166,2.1645,2.1899,2.166,2.1539,2.1539,2.107,2.0633,2.0225,2.0035,1.9856,1.9708,1.9708,1.98,1.9929,1.9764,1.9708,1.9708,1.9708,1.9708,1.9708,1.9708,1.9708,1.9708,0.0,0.0,1.8975,1.8213,1.7671,1.7242,1.6868,1.607,1.5515,0.0,1.5352,1.5256,1.5256,1.4786,1.4318,1.3912,1.3091,1.2629,1.2629,1.3419,1.4307,1.5305,1.614,1.7035,1.7974,1.7646,1.7484,1.7484,1.7402,1.7187,1.6775,1.6726,1.6677,1.659,1.583,1.5868,1.6531,1.6242,1.6545,1.7318,1.7744,1.7969,0.0,0.0,1.7978,1.7939,1.7939,1.791,1.7996,1.8866,1.9835,0.0,0.0,0.0,0.0,1.9845,1.9747,1.9927,2.0535,2.1137,2.172,0.0,0.0,0.0,2.3764,2.3577,2.3324,0.0,0.0,0.0,0.0,0.0,0.0,0.0,0.0,0.0,0.0,0.0,0.0,0.0,0.0,0.0,2.664,2.5506,2.4982,2.5558,2.4239,2.3105,2.2448,2.233,2.2296,2.2296,2.2296,2.2296,2.2296,2.2296,2.2265,2.2209,2.1794,2.1384,2.0991,2.0566,2.0176,1.9854,1.9854,2.0017,2.028,1.998,1.9818,1.9764,1.9711,1.9708,1.9708,1.9708,1.9708,1.9708,0.0,1.8617,1.8676,1.851,1.8398,1.8312,1.8235,1.7789,1.7434,1.7387,1.6407,1.5629,1.5519,1.5258,1.5023,1.4922,1.4736,1.4629,1.4629,1.4807,1.534,1.6289,1.6498,1.7035,1.7974,1.793,1.7891,1.7891,1.7549,1.7344,1.7246,1.6863,1.6543,1.6212,1.6046,1.584,1.5654,1.5977,0.0,1.6418,1.7187,1.7705,1.8008,1.8008,1.7803,1.75,1.75,1.7275,1.7101,1.7957,1.857,1.8988,0.0,0.0,0.0,1.8963,1.9333,1.9824,1.9952,2.0459,0.0,0.0,0.0,0.0,2.138,2.1639,2.1876,0.0,2.2259,0.0,0.0,0.0,0.0,0.0,0.0,0.0,0.0,0.0,0.0,0.0,0.0,0.0,2.6691,2.6437,2.6082,2.5626,2.4239,2.3342,2.319,2.2617,2.2296,2.2296,2.2296,2.2296,2.2296,2.2296,2.2106,2.1749,2.1627,2.1384,2.0991,2.091,2.0813,2.0747,2.0747,2.0582,2.0331,2.0632,2.0532,2.0158,1.9836,1.9708,1.9708,1.9708,1.9708,1.9708,1.8247,1.8461,1.8539,1.8325,1.8461,1.8598,1.8598,1.8422,1.8369,1.857,1.7963,1.7343,1.6848,1.6448,1.612,1.5921,1.5473,1.5199,1.5199,1.5658,1.6114,1.6567,1.7035,1.7501,1.7974,1.8008,1.8008,1.8008,1.7803,1.7695,1.7676,1.6999,1.6929,1.7307,1.6227,1.5989,1.6361,1.593,1.5889,1.6153,1.6787,0.0,1.7676,1.7451,1.7373,1.7353,1.7139,1.6882,1.6823,1.7719,1.8111,0.0,0.0,1.8807,1.9098,0.0,1.9228,1.9798,1.9798,0.0,0.0,2.0366,0.0,0.0,0.0,2.1161,2.1171,2.1441,2.1621,2.158,0.0,0.0,0.0,0.0,0.0,0.0,0.0,0.0,0.0,0.0,0.0,0.0,2.7249,2.7249,2.6776,2.5677,2.4932,2.4188,2.3427,2.3054,2.2682,2.2313,2.2296,2.2296,2.2296,2.2296,2.218,2.1943,2.1943,2.172,2.1291,2.1291,2.1181,2.0991,2.0991,2.0991,2.0943,2.0991,2.0991,2.0878,2.0244,2.0,1.9965,1.9764,1.9836,2.0,1.8008,1.8247,1.8373,1.8066,1.8256,1.851,1.8588,1.8529,1.8637,1.9102,1.9307,1.9111,1.834,1.7866,1.7458,1.7145,1.6334,1.5831,1.5831,1.6508,1.6888,1.6888,1.7613,1.8008,1.8008,1.8008,1.8008,1.8008,1.793,1.7852,1.7711,1.7028,1.7205,1.804,1.6558,1.6405,1.7207,1.6351,0.0,1.6506,0.0,1.7141,1.7217,1.6833,1.6894,1.7103,1.6631,1.6443,1.6568,1.7277,1.751,1.7538,1.7825,1.8504,0.0,0.0,0.0,0.0,0.0,0.0,0.0,0.0,0.0,2.0609,0.0,0.0,0.0,2.1054,0.0,0.0,0.0,0.0,0.0,0.0,0.0,0.0,0.0,0.0,0.0,0.0,0.0,0.0,0.0,2.7587,2.708,2.5913,2.5693,2.5017,2.368,2.3477,2.3054,2.2313,2.2296,2.2296,2.2296,2.2296,2.2296,2.2296,2.2296,2.2106,2.1718,2.1718,2.1553,2.126,2.126,2.1368,2.1582,2.1354,2.14,2.1506,2.0634,2.0365,2.0382,1.9965,2.0087,2.0433,1.8008,1.8047,1.8066,1.8018,1.8047,1.8178,1.8549,1.8286,1.8232,1.8617,1.9329,1.9668,1.9189,1.9107,1.9044,1.8996,1.853,0.0,1.8193,1.7962,1.7828,1.7828,1.794,1.8008,1.8008,1.8008,1.8008,1.8008,1.7637,1.7256,1.6843,1.6746,1.6574,1.6425,1.7297,1.7359,1.684,0.0,1.8013,0.0,1.8163,1.7689,0.0,1.6716,1.6514,1.6183,1.5723,1.5566,1.5557,0.0,1.5703,1.5693,0.0,1.6715,1.781,1.7754,0.0,0.0,0.0,0.0,0.0,0.0,1.9547,0.0,0.0,0.0,1.9787,1.9312,0.0,0.0,0.0,0.0,0.0,0.0,0.0,0.0,0.0,0.0,0.0,0.0,0.0,0.0,0.0,0.0,2.6759,2.659,2.5981,2.5236,2.4423,2.3763,2.3054,2.2313,2.2296,2.2296,2.2296,2.2296,2.2296,2.2296,2.2296,2.2268,2.2223,2.2223,2.2194,2.2152,2.2152,2.1928,2.1643,2.2003,2.1928,2.1506,2.0634,2.055,2.0862,2.0399,2.0516,2.0926,1.8008,1.8008,1.8008,1.8008,1.8008,1.8154,1.8539,1.887,1.9143,1.9319,1.9473,1.9482,1.9307,1.9062,1.9014,1.9268,1.9121,1.887,0.0,0.0,1.8227,1.8018,1.8008,1.79,1.7656,1.7881,1.7891,1.7646,1.7715,1.7529,1.7109,1.6824,1.7273,1.8274,1.7843,1.8263,1.9302,0.0,1.8717,0.0,0.0,0.0,0.0,1.7599,1.7153,1.6348,1.6591,1.6386,1.6093,0.0,1.6386,0.0,0.0,0.0,0.0,0.0,0.0,0.0,0.0,0.0,0.0,0.0,0.0,0.0,1.9685,0.0,1.9374,0.0,0.0,0.0,0.0,0.0,0.0,0.0,0.0,0.0,0.0,0.0,0.0,0.0,0.0,0.0,0.0,0.0,0.0,0.0,0.0,2.5727,2.4558,2.4203,2.3494,2.233,2.2296,2.2296,2.2296,2.2296,2.2296,2.2296,2.2296,2.2296,2.2296,2.2296,2.2296,2.2296,2.2296,2.2194,2.2017,2.2223,2.218,2.1943,2.129,2.1165,2.1291,2.0862,2.0991,2.1353,1.8721,1.8337,1.8008,1.8008,1.8008,1.8154,1.8539,1.9268,1.9785,1.9902,1.9756,1.9676,1.9676,1.9355,1.9297,1.9609,1.9531,1.9326,0.0,0.0,1.852,1.8369,1.8135,1.792,1.7734,1.791,1.7861,1.7549,1.7861,1.7734,1.7197,1.7184,1.7916,1.9152,1.8621,1.9287,2.0745,0.0,1.9854,1.9453,1.9779,1.9325,1.8448,1.8289,1.7649,1.6866,1.7413,1.7246,1.6866,1.7413,1.7246,0.0,1.744,0.0,0.0,0.0,0.0,0.0,1.9594,0.0,0.0,0.0,0.0,0.0,0.0,0.0,0.0,0.0,0.0,0.0,0.0,0.0,0.0,0.0,0.0,0.0,0.0,0.0,0.0,0.0,0.0,0.0,0.0,0.0,0.0,0.0,0.0,0.0,2.4575,2.4491,2.3831,2.2347,2.2296,2.2296,2.2296,2.2296,2.2296,2.2296,2.2296,2.2296,2.2296,2.2296,2.2296,2.2296,2.2296,2.2296,2.2296,2.2296,2.2296,2.2268,2.1928,2.1794,2.1749,2.1306,2.1431,2.1794,2.0526,1.9177,1.8008,1.8008,1.8008,1.8154,1.8539,1.9023,1.9453,1.9863,2.0273,0.0,0.0,0.0,0.0,0.0,0.0,1.9883,1.9873,0.0,1.8783,1.9228,1.8447,1.8193,0.0,1.8178,1.8008,1.7988,1.8008,1.7545,1.6758,1.79,1.8041,1.7385,1.9801,2.0449,1.986,2.1515,2.2028,2.1773,2.1523,2.1087,2.0376,0.0,1.7589,1.7578,1.7578,0.0,0.0,1.7578,1.7578,0.0,0.0,0.0,0.0,0.0,0.0,0.0,0.0,0.0,0.0,1.9547,0.0,0.0,0.0,0.0,1.8857,0.0,0.0,0.0,0.0,0.0,0.0,0.0,0.0,0.0,0.0,0.0,0.0,0.0,0.0,0.0,0.0,0.0,0.0,0.0,0.0,0.0,2.4575,2.4491,2.3831,2.2347,2.2296,2.2296,2.2296,2.2296,2.2296,2.2296,2.2296,2.2296,2.2296,2.2296,2.2296,2.2296,2.2296,2.2296,2.2296,2.2296,2.2296,2.2296,2.2282,2.2282,2.2223,2.1749,2.1884,2.2282,2.059,2.0139,1.9726,1.9726,1.9726,1.9645,1.9507,1.9591,1.9648,0.0,1.9629,0.0,0.0,1.9463,1.9521,0.0,0.0,1.9912,1.9912,1.9602,0.0,1.9287,1.9014,1.8662,0.0,1.8325,1.8154,1.7598,1.7871,1.8005,1.7975,1.8009,1.8497,1.9356,2.0229,2.0907,0.0,0.0,0.0,0.0,0.0,2.1408,2.1077,0.0,0.0,1.8382,1.8874,1.8741,0.0,1.8874,1.8741,1.8421,1.89,1.8555,1.8082,1.8723,1.8593,0.0,0.0,0.0,1.7915,1.8995,0.0,0.0,0.0,0.0,0.0,0.0,0.0,0.0,0.0,0.0,0.0,0.0,0.0,0.0,0.0,0.0,0.0,0.0,0.0,0.0,0.0,0.0,0.0,0.0,2.6691,0.0,0.0,2.4778,2.4051,2.3054,2.255,2.2296,2.2296,2.2296,2.2296,2.2296,2.2296,2.204,2.1583,2.209,2.204,2.1597,2.2076,2.2296,2.2296,2.2296,2.2296,2.2296,2.2296,2.2296,2.2282,2.212,2.2149,2.2296,2.1479,2.1479,2.129,2.0687,2.059,2.0564,2.0405,2.0369,0.0,0.0,1.9945,0.0,1.9775,0.0,1.919,0.0,2.0326,2.0416,2.0379,2.0416,0.0,1.9783,1.949,0.0,1.8943,1.8705,1.8591,1.8555,1.8488,1.8674,1.906,1.879,1.9188,2.0132,2.058,2.1243,2.2071,2.2782,2.2895,0.0,0.0,2.1242,0.0,0.0,1.9501,1.915,0.0,1.9501,1.9176,1.9643,1.9352,1.8906,1.9581,1.8894,1.7963,1.8759,1.84,1.78,1.811,1.7802,0.0,1.8505,1.8204,0.0,1.8556,0.0,0.0,0.0,0.0,0.0,0.0,0.0,0.0,0.0,0.0,0.0,0.0,2.3507,0.0,0.0,0.0,0.0,0.0,0.0,2.6691,2.6691,0.0,0.0,0.0,0.0,2.4169,2.341,2.2682,2.2296,2.2296,2.2296,2.2296,2.2296,2.2296,2.1904,2.1224,2.1972,2.1738,2.0822,2.187,2.2144,2.1921,2.2178,2.2296,2.2296,2.2296,2.2296,2.2296,2.2296,2.2296,2.2296,2.3108,2.3108,2.2598,2.1005,2.0709,0.0,0.0,0.0,2.1397,0.0,2.1137,2.0631,2.061,1.9848,1.9725,2.0571,2.1113,2.1365,2.123,2.135,0.0,0.0,1.9885,1.9867,2.0638,1.9425,1.9394,2.0624,1.9792,1.9587,1.9986,2.0146,2.007,1.9797,2.1002,0.0,2.1606,2.2644,2.3083,2.297,2.1945,2.0853,1.9849,1.9849,1.9823,1.9798,1.9798,1.9798,1.9798,1.9798,1.9447,1.9121,1.961,1.9058,1.8342,1.8782,1.8204,1.7511,1.799,1.7739,1.7498,1.8028,0.0,0.0,0.0,0.0,1.8129,0.0,0.0,0.0,0.0,0.0,0.0,0.0,0.0,0.0,0.0,0.0,0.0,0.0,0.0,0.0,0.0,2.6385,2.6657,2.664,2.6674,0.0,0.0,0.0,2.4186,2.3477,2.2699,2.2296,2.2296,2.2296,2.2296,2.2296,2.2296,2.1904,2.1224,2.1972,2.1485,2.0137,2.1654,2.1904,2.1309,2.2023,2.2296,2.2296,2.2296,2.2296,2.2296,2.2296,2.2296,2.2296,2.3108,2.3108,2.2944,0.0,2.2218,2.1938,0.0,0.0,0.0,0.0,2.1008,2.0929,2.0643,2.0401,2.0487,2.0994,2.117,0.0,0.0,0.0,0.0,2.1582,2.1725,2.1759,2.1633,2.1294,2.1136,2.1194,0.0,2.0651,2.1373,2.0996,2.1102,2.1625,0.0,2.2096,2.2146,2.2807,2.2869,2.2468,2.2221,2.143,0.0,0.0,2.0201,1.9798,1.9798,1.9798,1.9798,1.9798,1.971,1.956,1.9284,1.902,1.8657,1.8003,1.7624,1.7335,1.7024,1.6848,1.6873,1.7451,1.7275,1.7061,0.0,0.0,0.0,0.0,0.0,0.0,0.0,0.0,0.0,0.0,0.0,0.0,0.0,0.0,0.0,2.3794,0.0,0.0,0.0,2.5772,2.6098,2.5897,2.6387,0.0,0.0,0.0,0.0,2.422,2.297,2.2296,2.2296,2.2296,2.2296,2.2296,2.2296,2.1904,2.1224,2.1972,2.1786,2.094,2.1887,2.2178,2.204,2.2212,2.2296,2.2296,2.2296,2.2296,2.2296,2.2296,2.2296,2.2296,2.3108,2.3308,0.0,2.3145,0.0,0.0,2.25,2.2428,0.0,2.1749,2.1565,0.0,2.1198,2.0814,2.0831,2.1459,2.172,0.0,2.2148,0.0,0.0,2.192,2.2176,2.2295,2.2205,2.1857,0.0,2.2135,0.0,2.1585,2.2402,2.1854,2.1817,2.2309,0.0,2.2309,2.2334,2.2606,2.2431,2.1933,2.1681,0.0,0.0,2.0314,2.0087,1.9798,1.9798,1.9798,1.9761,1.9547,1.9296,1.9058,1.8756,1.8306,1.7842,1.7488,1.72,1.6936,1.6588,1.65,1.6575,1.6923,1.676,1.6651,1.725,1.7137,1.6986,0.0,0.0,0.0,0.0,0.0,0.0,0.0,0.0,0.0,0.0,0.0,0.0,0.0,2.4137,0.0,0.0,0.0,0.0,0.0,0.0,0.0,0.0,0.0,0.0,2.4491,2.3071,2.2296,2.2296,2.2296,2.2296,2.2296,2.2296,2.1904,2.1207,2.163,2.1211,2.0242,2.0961,2.1299,2.1333,2.1667,2.2006,2.2296,2.2296,2.2296,2.2296,2.2296,2.2296,2.2296,2.3221,2.3653,0.0,0.0,0.0,0.0,0.0,2.3108,0.0,2.3108,0.0,2.2063,2.2063,2.1396,2.1227,2.2002,0.0,2.2715,2.2595,2.3025,2.2911,2.2094,2.2128,2.2362,2.2778,2.198,2.2148,0.0,2.2487,2.2414,2.3095,2.2606,2.2385,0.0,0.0,0.0,0.0,2.2347,2.2033,2.1543,2.1018,2.0453,1.9911,1.9911,1.9874,1.9798,1.9798,1.9798,1.9723,1.9171,1.8682,1.8292,1.8141,1.7426,1.6722,1.7137,1.6911,1.65,1.65,1.65,1.65,1.65,1.65,1.6647,1.7149,1.7285,1.7285,1.7285,1.7652,1.7702,0.0,0.0,0.0,0.0,0.0,0.0,0.0,0.0,0.0,0.0,0.0,0.0,0.0,0.0,0.0,0.0,0.0,0.0,0.0,0.0,0.0,2.4355,2.3021,0.0,2.2296,0.0,2.2296,2.2296,2.2296,2.1904,2.119,2.119,2.0412,1.908,1.9727,2.0002,2.0052,2.0869,2.1634,2.2296,2.2296,2.2296,2.2296,2.2296,2.2296,2.2296,2.3841,0.0,0.0,0.0,0.0,2.3221,2.312,2.3108,2.3108,2.3108,2.2975,2.2884,2.2884,2.275,2.272,2.2884,2.2971,0.0,0.0,0.0,0.0,2.2911,2.3354,2.3867,2.4387,2.3813,2.3839,0.0,2.3436,2.2944,2.3108,2.3007,2.2719,0.0,0.0,0.0,2.2932,2.2498,0.0,2.2121,2.1568,2.1031,2.0541,2.0541,2.0239,1.9798,1.9798,1.9798,1.9723,1.9171,1.8945,1.8707,1.7815,1.741,1.7162,1.6773,1.6575,1.65,1.65,1.65,1.65,1.65,1.65,1.6525,1.6626,1.6651,1.6651,1.6651,1.6726,1.6898,1.7187,0.0,0.0,0.0,0.0,0.0,0.0,0.0,0.0,0.0,0.0,0.0,0.0,0.0,0.0,0.0,0.0,0.0,0.0,0.0,0.0,0.0,2.275,0.0,0.0,0.0,2.2296,2.2296,2.2296,2.1904,2.119,2.119,2.0686,1.9811,1.9934,2.0002,2.0052,2.0869,2.1634,2.2296,2.2296,2.2296,2.2296,2.2296,2.2296,2.2296,2.4418,0.0,0.0,0.0,0.0,0.0,0.0,2.3108,0.0,2.3108,2.3108,2.3108,2.3108,2.3108,2.3108,2.3108,2.3108,2.3108,2.3108,2.3108,2.3108,2.3108,2.3371,0.0,2.391,2.3659,2.3647,2.391,2.3371,2.3108,2.3108,2.3108,0.0,2.2719,0.0,2.3108,0.0,0.0,0.0,2.2259,2.1707,2.1182,2.0691,2.0691,2.0327,1.9798,1.9798,1.9623,1.9296,1.8757,1.8581,1.8381,1.7287,1.6936,1.6886,1.6597,1.65,1.65,1.65,1.65,1.65,1.65,1.65,1.65,1.65,1.65,1.6573,1.6858,1.6909,1.7161,1.8026,1.8393,0.0,0.0,0.0,0.0,0.0,0.0,0.0,0.0,0.0,0.0,0.0,0.0,0.0,0.0,0.0,0.0,0.0,0.0,0.0,0.0,0.0,0.0,0.0,0.0,0.0,2.2296,2.2296,2.2124,2.1735,2.094,2.0369,1.9951,1.9203,1.9084,1.9524,2.0716,2.1634,2.2296,2.2296,2.2296,2.2296,2.2296,2.2296,2.2296,0.0,2.4788,0.0,0.0,2.3816,0.0,2.317,2.3108,2.3108,2.3108,2.3108,2.3108,2.3108,2.3108,2.3108,2.3108,2.3108,2.3108,2.3108,2.3108,2.3108,2.3108,2.3108,2.3158,2.3283,2.317,2.3158,0.0,2.3158,2.3108,2.3108,2.3108,0.0,0.0,0.0,0.0,0.0,0.0,2.2385,2.2393,2.1757,2.1257,2.0855,2.0729,2.0327,1.9798,1.9798,1.9535,1.907,1.843,1.8129,1.7852,1.6814,1.65,1.65,1.65,1.65,1.65,1.65,1.65,1.65,1.65,1.65,1.65,1.65,1.6595,1.6795,1.7209,1.7394,1.7773,1.8714,1.8613,0.0,0.0,0.0,0.0,0.0,0.0,0.0,0.0,0.0,0.0,0.0,0.0,0.0,0.0,0.0,0.0,2.5423,2.4949,0.0,0.0,0.0,2.2533,2.2533,0.0,2.2296,0.0,2.2296,2.2212,2.204,2.0809,2.0166,1.9934,1.8611,1.8454,1.9249,2.0632,2.1634,2.2296,2.2296,2.2296,2.2296,2.2296,2.2296,2.2296,0.0,0.0,0.0,0.0,0.0,0.0,2.3108,2.3108,2.3108,2.3108,2.3108,2.3108,2.3108,2.3108,2.3108,2.3108,2.3108,2.3108,2.3108,2.3108,2.3108,2.3108,2.3108,2.3346,2.3904,2.3371,2.3358,0.0,0.0,2.3108,2.3108,2.3108,0.0,0.0,0.0,0.0,0.0,2.2518,2.2569,2.2932,2.1907,2.1455,2.1355,2.088,2.0327,1.9798,1.9798,1.9773,1.9572,1.8543,1.7877,1.735,1.6722,1.65,1.65,1.65,1.65,1.65,1.65,1.65,1.65,1.65,1.65,1.65,1.65,1.6879,1.7229,1.7291,1.7686,1.8205,1.879,1.8865,1.9244,0.0,0.0,0.0,0.0,0.0,2.2044,2.2703,0.0,0.0,0.0,0.0,0.0,0.0,0.0,0.0,2.4677,2.5169,2.4847,2.3444,0.0,2.3291,2.3291,2.2632,0.0,2.2296,2.2296,2.1955,2.1292,2.1156,2.0686,1.9951,1.9147,1.9232,1.9951,2.0839,2.1634,2.2296,2.2296,2.2296,2.2296,2.2296,2.2296,2.2296,0.0,0.0,0.0,0.0,0.0,0.0,0.0,2.3108,2.3108,2.3108,2.3108,2.3108,2.3108,2.3108,2.3108,2.3108,2.3108,2.3108,2.3108,2.3108,2.3108,2.3108,2.3108,2.3208,2.3446,2.3221,2.3221,0.0,0.0,2.3108,2.3108,2.3108,0.0,0.0,0.0,2.2895,2.3095,2.2869,2.2895,2.3032,2.2297,2.1782,2.1486,2.131,2.0655,1.985,2.0258,1.9927,1.9246,1.882,1.8329,1.7714,1.6789,1.65,1.65,1.65,1.65,1.65,1.65,1.6731,1.6972,1.6972,1.7209,1.7463,1.7463,1.7626,1.7867,1.8204,1.8438,1.8741,1.9281,1.912,1.9169,0.0,0.0,0.0,0.0,0.0,0.0,2.2628,0.0,2.3889,0.0,0.0,0.0,0.0,0.0,0.0,0.0,0.0,0.0,2.4085,0.0,2.2953,2.3393,2.2682,2.2296,2.2296,2.2296,2.2158,2.1837,2.0906,2.0048,1.9338,1.949,2.001,2.0737,2.1072,2.1634,2.2296,2.2296,2.2296,2.2296,2.2296,2.2296,2.2296,2.5234,0.0,2.4612,0.0,2.3496,2.3108,2.3108,2.3108,2.3108,2.3108,2.3108,2.3108,2.3108,2.3108,2.3108,2.3108,2.3108,2.3108,2.3108,2.3108,2.3108,2.3108,2.3108,0.0,2.3108,2.3108,2.3108,2.3108,2.3108,2.3108,2.3108,0.0,0.0,0.0,2.3108,2.3108,2.3108,2.3108,2.3245,2.3403,2.283,2.2411,2.2107,2.1981,2.1258,2.0421,2.0892,2.0532,1.9764,1.9608,1.9309,1.8755,1.7408,1.6999,1.6972,1.6972,1.6972,1.6972,1.6972,1.725,1.7544,1.7544,1.7827,1.8106,1.8106,1.8224,1.8496,1.9024,1.9151,1.9244,1.9621,1.9401,1.9332,1.989,0.0,0.0,0.0,0.0,0.0,0.0,2.313,2.3995,2.4745,0.0,0.0,0.0,0.0,0.0,0.0,0.0,0.0,0.0,0.0,0.0,0.0,2.2682,2.2296,2.2296,2.2296,2.2296,2.2262,2.1181,2.0268,1.9616,2.0352,2.0889,2.1207,2.1427,2.1837,2.2296,2.2296,2.2296,2.231,2.2388,2.2412,2.2412,2.5699,2.5172,2.4612,2.4092,2.3496,2.3108,2.3108,2.3108,2.3108,2.3108,2.3108,2.3108,2.3108,2.3108,2.3108,2.3108,2.3108,2.3108,2.3108,2.3108,2.3108,0.0,0.0,2.3108,2.3108,2.3108,2.3108,2.3108,0.0,0.0,2.3108,0.0,2.3108,2.3108,2.3108,2.3108,2.3108,2.3108,2.3573,2.4239,2.3632,2.3447,2.3508,2.2909,2.2273,2.1673,2.1697,2.1673,2.1576,2.1057,2.0863,2.0552,1.8742,1.8144,1.8086,1.8086,1.8086,1.8086,1.8086,1.8086,1.8086,1.8086,1.8106,1.8106,1.8106,1.8516,1.9043,1.9584,1.969,1.969,1.9708,1.969,1.9914,2.0583,0.0,0.0,0.0,0.0,0.0,0.0,2.1738,2.2536,2.3786,0.0,0.0,0.0,0.0,0.0,0.0,0.0,0.0,2.346,2.3393,0.0,2.3393,2.2682,2.2296,2.2296,2.2296,2.2296,2.2296,2.2279,2.187,2.1207,2.1955,2.1854,2.1258,2.1989,2.2279,2.2296,2.2296,2.2296,2.2335,2.2599,2.2695,2.2695,2.4682,2.4368,2.4079,2.3484,2.3233,2.3108,2.3108,2.3108,2.3108,2.3108,2.3108,2.3108,2.3108,2.3108,2.3108,0.0,2.3108,2.3108,0.0,2.3108,2.3108,2.3108,2.3108,2.3108,2.3108,2.3108,2.3108,2.3108,0.0,0.0,0.0,2.3662,2.3632,2.3138,2.3679,2.3914,2.3914,2.3914,2.4366,2.5009,2.4382,2.4188,2.4151,2.3596,2.2963,2.2363,2.2386,2.21,2.1669,2.1489,2.1447,2.1344,2.0773,1.9747,1.8858,1.9343,1.883,1.8208,1.8664,1.8722,1.865,1.865,1.893,1.9188,1.9188,1.9332,1.9479,1.9657,1.9708,1.9708,1.9708,1.9708,1.9768,1.9974,1.9824,0.0,0.0,0.0,0.0,0.0,2.333,2.4685,0.0,2.4962,0.0,0.0,0.0,0.0,0.0,0.0,0.0,0.0,2.3173,0.0,2.3393,2.2682,2.2296,2.2296,2.2296,2.204,2.1563,2.2247,2.2063,2.1241,2.1989,2.2161,2.1972,2.2195,2.2296,2.2324,2.25,2.256,2.2599,2.2923,2.3045,2.3045,2.4519,2.4305,2.413,2.3521,2.3246,2.3108,2.3108,2.3108,2.3108,2.3108,2.3108,2.3108,2.3108,2.3108,0.0,2.3108,2.3108,2.3108,2.3108,2.3108,2.3108,2.3108,2.3108,2.3108,2.3108,0.0,0.0,2.3108,2.3395,2.3543,2.3573,2.4337,2.4452,2.3989,2.4509,2.4709,2.4709,2.4709,2.5147,2.5782,2.5402,2.5251,2.5237,2.4936,2.423,2.3407,2.3406,2.2973,2.2409,2.2409,2.2414,2.2411,2.2411,2.1512,2.0431,2.0353,1.9727,1.9107,1.9269,1.9272,1.9207,1.9207,1.9442,1.9708,1.9708,1.9708,1.9708,1.9708,1.9708,1.9708,1.9708,1.9708,1.9747,1.9909,1.9927,1.9997,2.0156,0.0,0.0,0.0,0.0,0.0,0.0,2.4741,0.0,0.0,0.0,0.0,0.0,0.0,0.0,2.3678,2.2784,0.0,2.2987,2.2637,2.245,2.245,2.2584,2.2327,2.1776,2.2414,2.2306,2.1634,2.2107,2.2296,2.231,2.2398,2.245,2.2477,2.2776,2.2898,2.2935,2.3259,2.3392,2.3392,2.4971,2.4789,0.0,0.0,2.3611,0.0,2.3245,2.3245,2.3245,2.3245,2.3245,2.3245,2.3245,2.3245,2.3245,2.3245,0.0,0.0,0.0,2.3108,2.3108,2.3108,2.3155,2.3168,2.3108,2.3155,2.3185,2.3185,2.3972,2.4379,2.4408,2.5119,2.5453,2.5398,2.5453,2.5481,2.5481,2.5481,2.5906,2.659,2.659,2.6605,2.6647,2.6626,2.5809,2.4664,2.4619,2.4156,2.3595,2.3595,2.3595,2.3595,2.3595,2.3206,2.2523,2.1276,2.0808,2.0569,2.0007,1.9768,1.9708,1.9708,1.9708,1.9708,1.9708,1.9708,1.9708,1.9708,1.9708,1.9708,1.9708,1.9711,1.9889,2.0308,2.0409,2.0579,2.1006,0.0,0.0,0.0,0.0,0.0,0.0,2.3814,2.3712,0.0,0.0,0.0,0.0,0.0,2.378,2.233,2.2324,2.2321,2.2321,2.2603,2.2733,2.2746,2.3081,2.3045,2.2708,2.2721,2.259,2.2321,2.2321,2.2335,2.2374,2.2639,2.2733,2.2772,2.3105,2.3224,2.3288,2.3599,2.3724,2.3724,0.0,0.0,2.4858,2.4314,2.4574,2.4866,2.4866,2.4866,2.4866,2.4866,2.4866,2.4866,2.4866,2.4866,2.4866,2.4866,2.3783,2.3108,2.3108,2.3108,2.3108,2.3108,2.3679,2.3738,2.3108,2.3708,2.4031,2.4031,2.4753,2.5147,2.5147,2.5892,2.5933,2.5425,2.5987,2.6229,2.6229,2.6229,2.6669,2.7331,2.7331,2.7344,2.7315,2.6782,2.6093,2.5292,2.4784,2.4156,2.3595,2.3595,2.3595,2.3595,2.3595,2.349,2.331,2.3011,2.1874,2.0778,2.1126,2.0486,1.9708,1.9708,1.9708,1.9708,1.9708,1.9708,1.9708,1.9708,1.9708,1.9708,1.9708,1.9947,2.0379,2.1093,2.147,2.1709,2.1824,2.2768,0.0,0.0,2.3045,2.3946,2.3697,2.3494,2.3712,0.0,0.0,0.0,0.0,2.346,2.3241,2.233,2.25,2.2612,2.2612,2.2923,2.3081,2.3081,2.3414,2.3259,2.2708,2.2972,2.2898,2.2612,2.2612,2.2738,2.2989,2.3063,2.3081,2.3117,2.3448,2.3577,2.361,2.3966,2.4084,2.4084,2.4807,2.5172,2.5423,2.4889,2.5119,2.5398,2.5398,2.5398,2.5398,2.5398,2.5398,2.5398,2.5398,2.5398,2.5398,2.5398,2.4639,2.415,2.415,2.415,2.415,2.415,2.4553,2.4582,2.415,2.4582,2.4794,2.4794,2.5536,2.5906,2.5933,2.6654,2.68,2.6428,2.6811,2.7008,2.7008,2.7008,2.7229,2.76,2.76,2.76,2.7555,2.721,2.6437,2.5555,2.5187,2.4448,2.3595,2.3595,2.3595,2.3595,2.3595,2.3595,2.3595,2.3595,2.2652,2.156,2.1321,2.0707,2.0079,1.9783,1.9708,1.9708,1.9708,1.9839,1.9965,1.9965,1.9965,2.0035,2.026,2.0609,2.111,2.1915,2.2231,2.2443,2.2667,2.2971,0.0,2.2028,2.2839,2.346,2.341,2.3105,2.319,2.3949,0.0,0.0,2.2902,2.3008,2.2901,2.249,2.2621,2.2772,2.2935,2.3247,2.3511,2.366,2.3837,2.3577,2.2947,2.3288,2.3153,2.2708,2.286,2.3033,2.32,2.3369,2.3426,2.3448,2.3795,2.3927,2.3937,2.4123,2.419,2.419,2.5577,2.5909,2.6187,2.5675,2.5673,2.5728,2.5728,2.5728,2.5728,2.5728,2.5728,2.5728,2.5728,2.5728,2.5728,2.5728,2.5728,2.5646,2.5425,2.5398,2.5398,2.5398,2.5508,2.5508,2.5398,2.5508,2.5563,2.5563,2.631,2.6669,2.6695,2.7306,2.76,2.76,2.76,2.76,2.76,2.76,2.76,2.76,2.76,2.76,2.76,2.76,2.6776,2.5615,2.5615,2.4747,2.3595,2.3595,2.3595,2.3595,2.3595,2.3595,2.3595,2.3595,2.3236,2.2553,2.1216,2.0703,2.0423,1.9824,1.9747,1.98,1.98,2.0122,2.0416,2.0416,2.0416,2.0533,2.0926,2.1366,2.1942,2.2751,2.3026,2.3232,2.3532,0.0,2.255,2.233,2.2296,2.2547,2.3173,2.2682,2.2578,2.3243,2.2677,2.2324,0.0,2.259,2.2721,2.2772,2.2822,2.3009,2.3357,2.3621,2.3917,2.419,2.419,2.3886,2.3288,2.3566,2.3392,2.2873,2.3153,2.3294,2.338,2.366,2.3785,2.3806,2.4084,2.419,2.419,2.419,2.419,2.419,2.5508,2.6343,2.6955,2.6424,2.6837,2.7265,2.7265,2.7265,2.7265,2.7265,2.7265,2.7265,2.7265,2.7265,2.7265,2.7265,2.7265,2.6733,2.5481,2.5398,2.5398,2.5398,2.6014,2.6041,2.5398,2.6014,2.6336,2.6336,2.706,2.7433,2.7433,2.7549,2.76,2.76,2.76,2.76,2.76,2.76,2.76,2.76,2.76,2.76,2.76,2.76,2.6776,2.5615,2.5615,2.4747,2.3595,2.3595,2.3595,2.3595,2.3595,2.3595,2.3595,2.3595,2.3535,2.3176,2.1889,2.0707,1.9842,1.9738,1.9962,2.021,2.021,2.055,2.0894,2.0894,2.0894,2.091,2.0991,2.1827,2.2785,2.3588,2.4528,2.497,2.4408,0.0,2.3712,2.2448,2.2296,2.233,2.2448,2.2364,2.2436,2.2781,2.2477,2.2402,2.2621,2.2669,2.2835,2.3117,2.3392,2.3703,2.4036,2.4094,2.4151,2.419,2.419,2.3996,2.361,2.3682,2.3631,2.3555,2.3599,2.3785,2.4054,2.4094,2.4113,2.4141,2.418,2.419,2.419,2.419,2.419,2.419,2.6618,2.7071,2.7398,2.7144,2.7382,2.76,2.76,2.76,2.76,2.76,2.76,2.76,2.76,2.76,2.76,2.76,2.76,2.7316,2.6613,2.6587,2.6587,2.6587,2.6904,2.6916,2.6587,2.693,2.7086,2.7086,2.7433,2.76,2.76,2.76,2.76,2.76,2.76,2.76,2.76,2.76,2.76,2.76,2.76,2.76,2.76,2.76,2.7001,2.6138,2.6138,2.5285,2.4126,2.4126,2.4126,2.4066,2.3714,2.3849,2.4118,2.4049,2.3773,2.3285,2.228,2.1362,2.063,2.0455,2.0347,2.0365,2.0616,2.1007,2.1322,2.1322,2.1322,2.153,2.217,2.2862,2.367,2.4662,2.5276,0.0,0.0,2.4152,2.3511,2.2431,2.2296,2.2296,2.2296,2.244,2.2577,2.2682,2.2755,2.2845,2.296,2.3141,2.3311,2.3459,2.3795,2.4036,2.419,2.419,2.419,2.419,2.419,2.4016,2.3703,2.3886,2.3876,2.3703,2.3896,2.4064,2.419,2.419,2.419,2.419,2.419,2.419,2.419,2.419,2.419,2.419,2.76,2.76,2.76,2.76,2.76,2.76,2.76,2.76,2.76,2.76,2.76,2.76,2.76,2.76,2.76,2.76,2.76,2.76,2.76,2.76,2.76,2.76,2.76,2.76,2.76,2.76,2.76,2.76,2.76,2.76,2.76,2.76,2.76,2.76,2.76,2.76,2.76,2.76,2.76,2.76,2.76,2.76,2.76,2.76,2.718,2.6587,2.6587,2.5839,2.4814,2.4649,2.4605,2.4485,2.3819,2.4041,2.4517,2.4436,2.4217,2.3828,2.2983,2.2186,2.1593,2.1326,2.094,2.0699,2.1055,2.1445,2.1814,2.1978,2.188,2.215,2.3416,2.3872,2.4329,2.5206,0.0,0.0,0.0,2.3763,2.3122,2.2381,2.2296,2.2321,2.2388,2.2573,2.2772,2.2923,2.3105,2.3224,2.3311,2.3555,2.3742,2.3816,2.4074,2.419,2.419,2.419,2.419,2.419,2.419,2.4074,2.3816,2.4084,2.4064,2.3827,2.4084,2.419,2.419,2.419,2.419,2.419,2.419,2.419,2.419,2.419,2.419,2.419,2.76,2.76,2.76,2.76,2.76,2.76,2.76,2.76,2.76,2.76,2.76,2.76,2.76,2.76,2.76,2.76,2.76,2.76,2.76,2.76,2.76,2.76,2.76,2.76,2.76,2.76,2.76,2.76,2.76,2.76,2.76,2.76,2.76,2.76,2.76,2.76,2.76,2.76,2.76,2.76,2.76,2.76,2.76,2.76,2.718,2.6587,2.6587,2.6138,2.5427,2.4814,2.4605,2.4485,2.3819,2.3973,2.441,2.4405,2.5057,2.5551,2.4383,2.3072,2.2065,2.2034,2.1761,2.1506,2.1536,2.1913,2.2454,2.3129,2.2724,2.269,2.4152,2.4441,2.4477,2.4575,0.0,0.0,2.368,2.3427,2.3122,2.2381,2.2296,2.2402,2.2647,2.2682,2.296,2.3577,2.3357,2.3335,2.3649,2.3692,2.3837,2.4161,2.418,2.419,2.419,2.419,2.419,2.419,2.419,2.418,2.4161,2.418,2.418,2.4161,2.418,2.419,2.419,2.419,2.419,2.419,2.419,2.419,2.419,2.419,2.419,2.419,2.76,2.8034,2.8244,2.769,2.8049,2.8229,2.7675,2.76,2.76,2.76,2.76,2.76,2.76,2.76,2.76,2.76,2.76,2.76,2.76,2.76,2.76,2.76,2.76,2.76,2.76,2.76,2.76,2.76,2.76,2.76,2.76,2.76,2.76,2.76,2.76,2.76,2.76,2.76,2.76,2.76,2.76,2.76,2.76,2.76,2.7435,2.7225,2.7225,2.6806,2.6123,2.5442,2.544,2.5535,2.4447,2.4746,2.55,2.5407,2.589,2.6334,2.5878,2.4495,2.3178,2.2957,2.2249,2.1673,2.1974,2.2163,2.2513,2.3241,2.2818,2.275,2.422,2.4135,2.3966,2.4423,0.0,2.4558,2.3528,2.3393,2.3122,2.2381,2.2296,2.2415,2.2669,2.2898,2.32,2.3671,2.3774,2.3886,2.4006,2.4006,2.4074,2.4208,2.419,2.419,2.419,2.419,2.419,2.419,2.419,2.419,2.419,2.419,2.419,2.419,2.419,2.419,2.419,2.419,2.419,2.419,2.419,2.419,2.419,2.419,2.419,2.419,2.7645,2.8079,2.8304,2.7705,2.8094,2.8289,2.769,2.76,2.76,2.76,2.76,2.76,2.76,2.76,2.76,2.76,2.76,2.76,2.76,2.76,2.76,2.76,2.76,2.76,2.76,2.76,2.76,2.76,2.76,2.76,2.76,2.76,2.76,2.76,2.76,2.76,2.76,2.76,2.76,2.76,2.76,2.771,2.787,2.787,2.7993,2.8149,2.7944,2.7713,2.73,2.6221,2.6381,2.6745,2.5153,2.5342,2.615,2.6199,2.6436,2.6691,2.6691,2.5581,2.4379,2.416,2.33,2.2595,2.2929,2.2987,2.3207,2.3934,2.3325,2.3173,2.488,2.422,2.3644,2.4372,2.4305,2.3898,2.3156,2.3054,2.2868,2.2347,2.2374,2.2541,2.2822,2.3153,2.35,2.3827,2.4074,2.419,2.419,2.419,2.419,2.419,2.419,2.419,2.419,2.419,2.419,2.419,2.419,2.419,2.419,2.419,2.419,2.419,2.419,2.419,2.419,2.419,2.419,2.419,2.419,2.419,2.419,2.419,2.419,2.419,2.7735,2.76,2.76,2.76,2.76,2.76,2.76,2.76,2.76,2.76,2.76,2.76,2.76,2.76,2.76,2.76,2.76,2.76,2.76,2.76,2.76,2.76,2.76,2.76,2.76,2.76,2.76,2.76,2.76,2.76,2.76,2.76,2.76,2.76,2.76,2.76,2.76,2.76,2.76,2.76,2.7625,2.7968,2.8487,2.8511,2.8873,2.9316,2.8709,2.8896,2.9093,2.7088,2.7306,2.8035,2.5878,2.5594,2.6103,2.6573,2.6708,2.6708,2.6708,2.6167,2.5609,2.5592,2.505,2.4491,2.4491,2.4491,2.4711,2.5456,2.4425,2.4069,2.6268,2.4881,2.3644,2.4355,2.3881,2.3139,2.2398,2.2296,2.2296,2.231,2.2537,2.2835,2.3165,2.3493,2.3837,2.417,2.419,2.419,2.419,2.419,2.419,2.419,2.419,2.419,2.419,2.419,2.419,2.419,2.419,2.419,2.419,2.419,2.419,2.419,2.419,2.419,2.419,2.419,2.419,2.419,2.419,2.419,2.419,2.419,2.419,2.419,2.8338,2.8293,2.8143,2.7675,2.8004,2.8128,2.766,2.76,2.76,2.76,2.76,2.76,2.76,2.76,2.76,2.76,2.76,2.76,2.76,2.76,2.7809,2.8263,2.7854,2.76,2.76,2.8064,2.8293,2.8293,2.8293,2.8293,2.8278,2.7824,2.76,2.76,2.76,2.76,2.76,2.76,2.76,2.765,2.8067,2.8343,2.8559,2.8966,2.9248,2.9384,2.9203,2.9248,2.924,2.816,2.8329,2.8731,2.7433,2.7136,2.7277,2.7434,2.7469,2.7469,2.7469,2.6928,2.6251,2.5744,2.505,2.4491,2.4491,2.4491,2.4711,2.5456,2.4831,2.4372,2.5032,2.4188,2.3291,2.3004,2.2784,2.255,2.233,2.2296,2.236,2.2563,2.266,2.2923,2.35,2.3649,2.3837,2.417,2.419,2.419,2.419,2.419,2.419,2.419,2.419,2.419,2.419,2.419,2.419,2.419,2.419,2.419,2.419,2.419,2.419,2.419,2.419,2.419,2.419,2.419,2.419,2.419,2.419,2.419,2.419,2.419,2.419,2.419,2.8293,2.8188,2.8094,2.766,2.7944,2.8079,2.766,2.76,2.76,2.76,2.76,2.76,2.76,2.7839,2.7899,2.7615,2.76,2.7705,2.7989,2.8004,2.8304,2.8966,2.8618,2.8393,2.8393,2.8798,2.8996,2.8996,2.8727,2.8607,2.8592,2.7914,2.76,2.76,2.76,2.76,2.76,2.76,2.7735,2.7993,2.8343,2.8779,2.9248,2.9607,2.9892,3.0081,2.9848,2.9913,2.9966,2.9025,2.889,2.9084,2.8797,2.85,2.8281,2.8281,2.8043,2.7807,2.7807,2.7249,2.659,2.615,2.5693,2.5371,2.5371,2.5371,2.5506,2.5947,2.5456,2.4948,2.4948,2.4086,2.3241,2.2818,2.2496,2.2296,2.2296,2.2402,2.2527,2.2682,2.2935,2.3247,2.366,2.3816,2.3986,2.418,2.419,2.419,2.419,2.419,2.419,2.419,2.419,2.419,2.419,2.419,2.419,2.419,2.419,2.419,2.419,2.419,2.419,2.419,2.419,2.419,2.419,2.419,2.419,2.419,2.419,2.419,2.419,2.419,2.419,2.419,2.8109,2.7809,2.7779,2.7779,2.7779,2.7779,2.7779,2.772,2.769,2.769,2.769,2.769,2.769,2.8304,2.8427,2.7824,2.7779,2.8049,2.8652,2.8682,2.8981,2.9666,2.9696,2.9726,2.9786,2.9726,2.9696,2.9696,2.9071,2.8742,2.8667,2.8004,2.766,2.76,2.76,2.76,2.76,2.766,2.7993,2.8511,2.863,2.9316,3.0293,3.0356,3.072,3.1131,3.0597,3.074,3.1013,2.9779,2.9254,2.923,2.9888,2.9634,2.9094,2.9027,2.8484,2.7891,2.7824,2.7249,2.6691,2.6691,2.6691,2.6691,2.6691,2.6691,2.6691,2.6691,2.6167,2.5659,2.5541,2.4408,2.346,2.3325,2.275,2.231,2.2335,2.255,2.2721,2.2784,2.3335,2.3703,2.3735,2.4016,2.419,2.419,2.419,2.419,2.419,2.419,2.419,2.419,2.419,2.419,2.419,2.419,2.419,2.419,2.419,2.419,2.419,2.419,2.419,2.419,2.419,2.419,2.419,2.419,2.419,2.419,2.419,2.419,2.419,2.419,2.419,2.419,2.9924,2.9475,2.9172,2.9172,2.9172,2.9172,2.9172,2.8738,2.8368,2.8368,2.8368,2.8368,2.8368,2.8966,2.9337,2.9187,2.9172,2.9232,2.9355,2.937,2.9654,3.0283,3.0298,3.0552,3.1077,3.0582,3.0298,3.0298,3.0163,2.9849,2.9382,2.8682,2.8109,2.76,2.76,2.76,2.7625,2.8091,2.8367,2.8583,2.954,3.0081,3.0351,3.0821,3.1075,3.119,3.1055,3.1075,3.1173,3.087,3.035,2.9888,3.0057,2.9989,2.9753,2.9179,2.8891,2.8602,2.7976,2.7249,2.6691,2.6691,2.6691,2.6691,2.6691,2.6691,2.6691,2.6691,2.6573,2.6099,2.4948,2.4474,2.3881,2.2733,2.2398,2.2374,2.2573,2.2656,2.288,2.3414,2.3599,2.3806,2.4074,2.4161,2.419,2.419,2.419,2.419,2.419,2.419,2.419,2.419,2.419,2.419,2.419,2.419,2.419,2.419,2.419,2.419,2.419,2.419,2.419,2.419,2.419,2.419,2.419,2.419,2.419,2.419,2.419,2.419,2.419,2.419,2.419,2.419,3.0118,2.9831,2.9606,2.9606,2.9606,2.9606,2.9606,2.928,2.9071,2.9071,2.9071,2.9071,2.9071,2.9639,3.0028,3.0028,2.9786,2.9726,2.9998,3.0028,3.0313,3.0943,3.0972,3.1137,3.1496,3.1152,3.0972,3.0972,3.0672,3.0521,3.054,2.92,2.8589,2.8549,2.7896,2.776,2.8042,2.8383,2.8826,2.9406,3.0059,3.0477,3.076,3.1075,3.119,3.119,3.119,3.119,3.119,3.119,3.0937,3.0632,3.0632,3.0632,3.0548,3.0161,2.9551,2.8908,2.8484,2.7554,2.6691,2.6691,2.6691,2.6691,2.6691,2.6691,2.6691,2.6691,2.6691,2.6353,2.522,2.4745,2.4135,2.3004,2.2637,2.2537,2.2682,2.2984,2.3311,2.366,2.3837,2.4006,2.418,2.419,2.419,2.419,2.419,2.419,2.419,2.419,2.419,2.419,2.419,2.419,2.419,2.419,2.419,2.419,2.419,2.419,2.419,2.419,2.419,2.419,2.419,2.419,2.419,2.419,2.419,2.419,2.419,2.419,2.419,2.419,2.419,2.419,3.0013,2.9909,2.9909,2.9909,2.9909,2.9909,2.9909,2.9846,2.9744,2.9744,2.9744,2.9744,2.9744,3.0298,3.0672,3.0672,3.0208,3.0133,3.0642,3.0672,3.0913,3.1481,3.1511,3.1511,3.1511,3.1511,3.1511,3.1511,3.1069,3.1122,3.1575,3.0009,2.9465,2.9717,2.8587,2.8305,2.8677,2.8756,2.9384,3.0293,3.0414,3.074,3.119,3.119,3.119,3.119,3.119,3.119,3.119,3.119,3.119,3.119,3.119,3.119,3.1173,3.1055,3.0142,2.9128,2.8874,2.7858,2.686,2.6725,2.6691,2.6691,2.6691,2.6691,2.6691,2.6691,2.6758,2.657,2.584,2.5272,2.4601,2.3699,2.3243,2.2962,2.289,2.3357,2.3714,2.3785,2.4026,2.419,2.419,2.419,2.419,2.419,2.419,2.419,2.419,2.419,2.419,2.419,2.419,2.419,2.419,2.419,2.419,2.419,2.419,2.419,2.419,2.419,2.419,2.419,2.419,2.419,2.419,2.419,2.419,2.419,2.419,2.419,2.419,2.419,2.419,2.419,3.1256,3.1241,3.1241,3.1241,3.1241,3.1241,3.1241,3.0761,3.0372,3.0372,3.0372,3.0372,3.0372,3.0957,3.1361,3.1361,3.1286,3.1271,3.1361,3.1361,3.1406,3.1511,3.1511,3.1511,3.1511,3.1511,3.1511,3.1511,3.2056,3.2072,3.1606,3.1915,3.1469,3.0384,3.0194,2.9789,2.9316,2.9827,3.0145,3.0351,3.0858,3.1131,3.119,3.119,3.119,3.119,3.119,3.119,3.119,3.119,3.119,3.119,3.119,3.119,3.1072,3.0446,3.0125,2.9668,2.8314,2.7807,2.7503,2.686,2.6691,2.6691,2.6691,2.6691,2.6691,2.6691,2.6988,2.6983,2.6241,2.6324,2.6002,2.4509,2.4212,2.4028,2.3623,2.3631,2.3806,2.4094,2.417,2.419,2.419,2.419,2.419,2.419,2.419,2.419,2.419,2.419,2.419,2.419,2.419,2.419,2.419,2.419,2.419,2.419,2.419,2.419,2.419,2.419,2.419,2.419,2.419,2.419,2.419,2.419,2.419,2.419,2.419,2.419,2.419,2.419,2.419,2.419,3.1511,3.1511,3.1511,3.1511,3.1511,3.1511,3.1511,3.1241,3.1047,3.1047,3.1047,3.1047,3.1047,3.1316,3.1511,3.1511,3.1511,3.1511,3.1511,3.1511,3.1511,3.1511,3.1894,3.2104,3.2104,3.2489,3.2664,3.2664,3.2625,3.2829,3.3269,3.2793,3.2474,3.2196,3.1458,3.1119,3.1147,3.1407,3.1497,3.1441,3.1702,3.1582,3.119,3.119,3.119,3.119,3.119,3.119,3.119,3.119,3.119,3.119,3.119,3.119,3.114,3.0818,3.0429,2.9871,2.8772,2.8128,2.7621,2.6877,2.6691,2.6691,2.6691,2.6691,2.6758,2.7004,2.7178,2.7276,2.7183,2.6763,2.6297,2.5826,2.5339,2.4871,2.4424,2.4529,2.4547,2.4235,2.419,2.419,2.419,2.419,2.419,2.419,2.419,2.419,2.419,2.419,2.419,2.419,2.419,2.419,2.419,2.419,2.419,2.419,2.419,2.419,2.419,2.419,2.419,2.419,2.419,2.419,2.419,2.419,2.419,2.419,2.419,2.419,2.419,2.419,2.419,2.419]}]]